[[{"header":{"parameterUnit":"m.s-1","parameterCategory":1,"la1":30.6,"la2":28.766,"lo1":-90.7593,"lo2":-88.6598,"dy":0.0162,"dx":0.0183,"nx":116,"ny":114,"refTime":"2023-04-24T06:00:00:Z","depth":0,"parameterNumber":2,"parameterNumberName":"U-component_of_WINDS"},"data":[0.0,0.0,0.0,0.0,0.0,0.0,0.0,0.0,0.0,0.0,0.0,0.0,0.0,0.0,0.0,0.0,0.0,0.0,0.0,0.0,0.0,0.0,0.0,0.0,0.0,0.0,0.0,0.0,0.0,0.0,0.0,0.0,0.0,0.0,0.0,0.0,0.0,0.0,0.0,0.0,0.0,0.0,0.0,0.0,0.0,0.0,0.0,0.0,0.0,0.0,0.0,0.0,0.0,0.0,0.0,0.0,0.0,0.0,0.0,0.0,0.0,0.0,0.0,0.0,0.0,0.0,0.0,0.0,0.0,0.0,0.0,0.0,0.0,0.0,0.0,0.0,0.0,0.0,0.0,0.0,0.0,0.0,0.0,0.0,0.0,0.0,0.0,0.0,0.0,0.0,0.0,0.0,0.0,0.0,0.0,0.0,0.0,0.0,0.0,0.0,0.0,0.0,0.0,0.0,0.0,0.0,0.0,0.0,0.0,0.0,0.0,0.0,0.0,0.0,0.0,0.0,0.0,0.0,0.0,0.0,0.0,0.0,0.0,0.0,0.0,0.0,0.0,0.0,0.0,0.0,0.0,0.0,0.0,0.0,0.0,0.0,0.0,0.0,0.0,0.0,0.0,0.0,0.0,0.0,0.0,0.0,0.0,0.0,0.0,0.0,0.0,0.0,0.0,0.0,0.0,0.0,0.0,0.0,0.0,0.0,0.0,0.0,0.0,0.0,0.0,0.0,0.0,0.0,0.0,0.0,0.0,0.0,0.0,0.0,0.0,0.0,0.0,0.0,0.0,0.0,0.0,0.0,0.0,0.0,0.0,0.0,0.0,0.0,0.0,0.0,0.0,0.0,0.0,0.0,0.0,0.0,0.0,0.0,0.0,0.0,0.0,0.0,0.0,0.0,0.0,0.0,0.0,0.0,0.0,0.0,0.0,0.0,0.0,0.0,0.0,0.0,0.0,0.0,0.0,0.0,0.0,0.0,0.0,0.0,0.0,0.0,0.0,0.0,0.0,0.0,0.0,0.0,0.0,0.0,0.0,0.0,0.0,0.0,0.0,0.0,0.0,0.0,0.0,0.0,0.0,0.0,0.0,0.0,0.0,0.0,0.0,0.0,0.0,0.0,0.0,0.0,0.0,0.0,0.0,0.0,0.0,0.0,0.0,0.0,0.0,0.0,0.0,0.0,0.0,0.0,0.0,0.0,0.0,0.0,0.0,0.0,0.0,0.0,0.0,0.0,0.0,0.0,0.0,0.0,0.0,0.0,0.0,0.0,0.0,0.0,0.0,0.0,0.0,0.0,0.0,0.0,0.0,0.0,0.0,0.0,0.0,0.0,0.0,0.0,0.0,0.0,0.0,0.0,0.0,0.0,0.0,0.0,0.0,0.0,0.0,0.0,0.0,0.0,0.0,0.0,0.0,0.0,0.0,0.0,0.0,0.0,0.0,0.0,0.0,0.0,0.0,0.0,0.0,0.0,0.0,0.0,0.0,0.0,0.0,0.0,0.0,0.0,0.0,0.0,0.0,0.0,0.0,0.0,0.0,0.0,0.0,0.0,0.0,0.0,0.0,0.0,0.0,0.0,0.0,0.0,0.0,0.0,0.0,0.0,0.0,0.0,0.0,0.0,0.0,0.0,0.0,0.0,0.0,0.0,0.0,0.0,0.0,0.0,0.0,0.0,0.0,0.0,0.0,0.0,0.0,0.0,0.0,0.0,0.0,0.0,0.0,0.0,0.0,0.0,0.0,0.0,0.0,0.0,0.0,0.0,0.0,0.0,0.0,0.0,0.0,0.0,0.0,0.0,0.0,0.0,0.0,0.0,0.0,0.0,0.0,0.0,0.0,0.0,0.0,0.0,0.0,0.0,0.0,0.0,0.0,0.0,0.0,0.0,0.0,0.0,0.0,0.0,0.0,0.0,0.0,0.0,0.0,0.0,0.0,0.0,0.0,0.0,0.0,0.0,0.0,0.0,0.0,0.0,0.0,0.0,0.0,0.0,0.0,0.0,0.0,0.0,0.0,0.0,0.0,0.0,0.0,0.0,0.0,0.0,0.0,0.0,0.0,0.0,0.0,0.0,0.0,0.0,0.0,0.0,0.0,0.0,0.0,0.0,0.0,0.0,0.0,0.0,0.0,0.0,0.0,0.0,0.0,0.0,0.0,0.0,0.0,0.0,0.0,0.0,0.0,0.0,0.0,0.0,0.0,0.0,0.0,0.0,0.0,0.0,0.0,0.0,0.0,0.0,0.0,0.0,0.0,0.0,0.0,0.0,0.0,0.0,0.0,0.0,0.0,0.0,0.0,0.0,0.0,0.0,0.0,0.0,0.0,0.0,0.0,0.0,0.0,0.0,0.0,0.0,0.0,0.0,0.0,0.0,0.0,0.0,0.0,0.0,0.0,0.0,0.0,0.0,0.0,0.0,0.0,0.0,0.0,0.0,0.0,0.0,0.0,0.0,0.0,0.0,0.0,0.0,0.0,0.0,0.0,0.0,0.0,0.0,0.0,0.0,0.0,0.0,0.0,0.0,0.0,0.0,0.0,0.0,0.0,0.0,0.0,0.0,0.0,0.0,0.0,0.0,0.0,0.0,0.0,0.0,0.0,0.0,0.0,0.0,0.0,0.0,0.0,0.0,0.0,0.0,0.0,0.0,0.0,0.0,0.0,0.0,0.0,0.0,0.0,0.0,0.0,0.0,0.0,0.0,0.0,0.0,0.0,0.0,0.0,0.0,0.0,0.0,0.0,0.0,0.0,0.0,0.0,0.0,0.0,0.0,0.0,0.0,0.0,0.0,0.0,0.0,0.0,0.0,0.0,0.0,0.0,0.0,0.0,0.0,0.0,0.0,0.0,0.0,0.0,0.0,0.0,0.0,0.0,0.0,0.0,0.0,0.0,0.0,0.0,0.0,0.0,0.0,0.0,0.0,0.0,0.0,0.0,0.0,0.0,0.0,0.0,0.0,0.0,0.0,0.0,0.0,0.0,0.0,0.0,0.0,0.0,0.0,0.0,0.0,0.0,0.0,0.0,0.0,0.0,0.0,0.0,0.0,0.0,0.0,0.0,0.0,0.0,0.0,0.0,0.0,0.0,0.0,0.0,0.0,0.0,0.0,0.0,0.0,0.0,0.0,0.0,0.0,0.0,0.0,0.0,0.0,0.0,0.0,0.0,0.0,0.0,0.0,0.0,0.0,0.0,0.0,0.0,0.0,0.0,0.0,0.0,0.0,0.0,0.0,0.0,0.0,0.0,0.0,0.0,0.0,0.0,0.0,0.0,0.0,0.0,0.0,0.0,0.0,0.0,0.0,0.0,0.0,0.0,0.0,0.0,0.0,0.0,0.0,0.0,0.0,0.0,0.0,0.0,0.0,0.0,0.0,0.0,0.0,0.0,0.0,0.0,0.0,0.0,0.0,0.0,0.0,0.0,0.0,0.0,0.0,0.0,0.0,0.0,0.0,0.0,0.0,0.0,0.0,0.0,0.0,0.0,0.0,0.0,0.0,0.0,0.0,0.0,0.0,0.0,0.0,0.0,0.0,0.0,0.0,0.0,0.0,0.0,0.0,0.0,0.0,0.0,0.0,0.0,0.0,0.0,0.0,0.0,0.0,0.0,0.0,0.0,0.0,0.0,0.0,0.0,0.0,0.0,0.0,0.0,0.0,0.0,0.0,0.0,0.0,0.0,0.0,0.0,0.0,0.0,0.0,0.0,0.0,0.0,0.0,0.0,0.0,0.0,0.0,0.0,0.0,0.0,0.0,0.0,0.0,0.0,0.0,0.0,0.0,0.0,0.0,0.0,0.0,0.0,0.0,0.0,0.0,0.0,0.0,0.0,0.0,0.0,0.0,0.0,0.0,0.0,0.0,0.0,0.0,0.0,0.0,0.0,0.0,0.0,0.0,0.0,0.0,0.0,0.0,0.0,0.0,0.0,0.0,0.0,0.0,0.0,0.0,0.0,0.0,0.0,0.0,0.0,0.0,0.0,0.0,0.0,0.0,0.0,0.0,0.0,0.0,0.0,0.0,0.0,0.0,0.0,0.0,0.0,0.0,0.0,0.0,0.0,0.0,0.0,0.0,0.0,0.0,0.0,0.0,0.0,0.0,0.0,0.0,0.0,0.0,0.0,0.0,0.0,0.0,0.0,0.0,0.0,0.0,0.0,0.0,0.0,0.0,0.0,0.0,0.0,0.0,0.0,0.0,0.0,0.0,0.0,0.0,0.0,0.0,0.0,0.0,0.0,0.0,0.0,0.0,0.0,0.0,0.0,0.0,0.0,0.0,0.0,0.0,0.0,0.0,0.0,0.0,0.0,0.0,0.0,0.0,0.0,0.0,0.0,0.0,0.0,0.0,0.0,0.0,0.0,0.0,0.0,0.0,0.0,0.0,0.0,0.0,0.0,0.0,0.0,0.0,0.0,0.0,0.0,0.0,0.0,0.0,0.0,0.0,0.0,0.0,0.0,0.0,0.0,0.0,0.0,0.0,0.0,0.0,0.0,0.0,0.0,0.0,0.0,0.0,0.0,0.0,0.0,0.0,0.0,0.0,0.0,0.0,0.0,0.0,0.0,0.0,0.0,0.0,0.0,0.0,0.0,0.0,0.0,0.0,0.0,0.0,0.0,0.0,0.0,0.0,0.0,0.0,0.0,0.0,0.0,0.0,0.0,0.0,0.0,0.0,0.0,0.0,0.0,0.0,0.0,0.0,0.0,0.0,0.0,0.0,0.0,0.0,0.0,0.0,0.0,0.0,0.0,0.0,0.0,0.0,0.0,0.0,0.0,0.0,0.0,0.0,0.0,0.0,0.0,0.0,0.0,0.0,0.0,0.0,0.0,0.0,0.0,0.0,0.0,0.0,0.0,0.0,0.0,0.0,0.0,0.0,0.0,0.0,0.0,0.0,0.0,0.0,0.0,0.0,0.0,0.0,0.0,0.0,0.0,0.0,0.0,0.0,0.0,0.0,0.0,0.0,0.0,0.0,0.0,0.0,0.0,0.0,0.0,0.0,0.0,0.0,0.0,0.0,0.0,0.0,0.0,0.0,0.0,0.0,0.0,0.0,0.0,0.0,0.0,0.0,0.0,0.0,0.0,0.0,0.0,0.0,0.0,0.0,0.0,0.0,0.0,0.0,0.0,0.0,0.0,0.0,0.0,0.0,0.0,0.0,0.0,0.0,0.0,0.0,0.0,0.0,0.0,0.0,0.0,0.0,0.0,0.0,0.0,0.0,0.0,0.0,0.0,0.0,0.0,0.0,0.0,0.0,0.0,0.0,0.0,0.0,0.0,0.0,0.0,0.0,0.0,0.0,0.0,0.0,0.0,0.0,0.0,0.0,0.0,0.0,0.0,0.0,0.0,0.0,0.0,0.0,0.0,0.0,0.0,0.0,0.0,0.0,0.0,0.0,0.0,0.0,0.0,0.0,0.0,0.0,0.0,0.0,0.0,0.0,0.0,0.0,0.0,0.0,0.0,0.0,0.0,0.0,0.0,0.0,0.0,0.0,0.0,0.0,0.0,0.0,0.0,0.0,0.0,0.0,0.0,0.0,0.0,0.0,0.0,0.0,0.0,0.0,0.0,0.0,0.0,0.0,0.0,0.0,0.0,0.0,0.0,0.0,0.0,0.0,0.0,0.0,0.0,0.0,0.0,0.0,0.0,0.0,0.0,0.0,0.0,0.0,0.0,0.0,0.0,0.0,0.0,0.0,0.0,0.0,0.0,0.0,0.0,0.0,0.0,0.0,0.0,0.0,0.0,0.0,0.0,0.0,0.0,0.0,0.0,0.0,0.0,0.0,0.0,0.0,0.0,0.0,0.0,0.0,0.0,0.0,0.0,0.0,0.0,0.0,0.0,0.0,0.0,0.0,0.0,0.0,0.0,0.0,0.0,0.0,0.0,0.0,0.0,0.0,0.0,0.0,0.0,0.0,0.0,0.0,0.0,0.0,0.0,0.0,0.0,0.0,0.0,0.0,0.0,0.0,0.0,0.0,0.0,0.0,0.0,0.0,0.0,0.0,0.0,0.0,0.0,0.0,0.0,0.0,0.0,0.0,0.0,0.0,0.0,0.0,0.0,0.0,0.0,0.0,0.0,0.0,0.0,0.0,-0.1321,0.0,0.0,0.0,0.0,0.0,0.0,0.0,0.0,0.0,0.0,0.0,0.0,0.0,0.0,0.0,0.0,0.0,0.0,0.0,0.0,0.0,0.0,0.0,0.0,0.0,0.0,0.0,0.0,0.0,0.0,0.0,0.0,0.0,0.0,0.0,0.0,0.0,0.0,-0.1962,-0.2071,-0.1812,-0.1257,-0.1257,-0.1249,-0.1254,0.0,0.0,0.0,0.0,0.0,0.0,0.0,0.0,0.0,0.0,0.0,0.0,0.0,0.0,0.0,0.0,0.0,0.0,0.0,0.0,0.0,0.0,0.0,0.0,0.0,0.0,0.0,0.0,0.0,0.0,0.0,0.0,0.0,0.0,0.0,0.0,0.0,0.0,0.0,0.0,0.0,0.0,0.0,0.0,0.0,0.0,0.0,0.0,0.0,0.0,0.0,0.0,0.0,0.0,0.0,0.0,0.0,0.0,0.0,0.0,0.0,0.0,0.0,0.0,0.0,0.0,0.0,0.0,0.0,0.0,0.0,-0.1231,0.0,0.0,0.0,0.0,0.0,0.0,0.0,0.0,0.0,0.0,0.0,0.0,0.0,0.0,0.0,0.0,0.0,0.0,0.0,0.0,0.0,0.0,0.0,-0.4278,-0.4276,-0.4309,-0.4314,-0.4314,0.0,0.0,0.0,0.0,0.0,0.0,-0.4265,-0.4424,-0.3997,-0.2913,-0.2925,-0.2445,-0.1495,-0.1392,-0.1359,-0.1356,-0.1325,0.0,0.0,0.0,0.0,0.0,0.0,0.0,0.0,0.0,0.0,0.0,0.0,0.0,0.0,0.0,0.0,0.0,0.0,0.0,0.0,0.0,0.0,0.0,0.0,0.0,0.0,0.0,0.0,0.0,0.0,0.0,0.0,0.0,0.0,0.0,0.0,0.0,0.0,0.0,0.0,0.0,0.0,0.0,0.0,0.0,0.0,0.0,0.0,0.0,0.0,0.0,0.0,0.0,0.0,0.0,0.0,0.0,0.0,0.0,0.0,0.0,0.0,0.0,-0.4784,-0.4604,-0.4186,-0.4149,-0.3993,-0.368,-0.2627,-0.201,-0.1721,0.0,0.0,0.0,0.0,0.0,0.0,0.0,0.0,0.0,0.0,0.0,0.0,0.0,0.0,0.0,0.0,0.0,0.0,0.0,0.0,0.0,0.0,-0.6151,-0.619,-0.6319,-0.6312,-0.6312,-0.6312,0.0,0.0,0.0,0.0,0.0,-0.5325,-0.5318,-0.4702,-0.3413,-0.2677,-0.2298,-0.2238,-0.1788,-0.1554,-0.1545,-0.1368,-0.13,-0.1298,0.0,0.0,0.0,0.0,0.0,0.0,0.0,0.0,0.0,0.0,0.0,0.0,0.0,0.0,0.0,0.0,0.0,0.0,0.0,0.0,0.0,0.0,0.0,0.0,0.0,0.0,0.0,0.0,0.0,0.0,0.0,0.0,0.0,0.0,0.0,0.0,0.0,0.0,0.0,0.0,0.0,-0.2176,-0.2875,0.0,0.0,0.0,0.0,0.0,0.0,0.0,0.0,0.0,0.0,0.0,0.0,0.0,0.0,-0.6864,-0.7015,-0.6861,-0.6375,-0.6461,-0.6516,-0.6554,-0.6369,-0.6306,-0.6261,-0.5536,0.0,-0.2336,-0.1805,0.0,0.0,0.0,0.0,0.0,0.0,0.0,0.0,0.0,0.0,0.0,0.0,0.0,0.0,0.0,0.0,0.0,0.0,0.0,0.0,0.0,-0.6749,-0.6823,-0.6809,-0.7188,-0.7249,-0.6837,-0.7068,0.0,0.0,0.0,-0.6695,-0.6571,-0.6607,-0.6321,-0.5681,-0.455,-0.3798,-0.3411,-0.2975,-0.2366,-0.1663,-0.1558,-0.1478,-0.1396,-0.1334,0.0,0.0,0.0,0.0,0.0,0.0,0.0,0.0,0.0,0.0,0.0,0.0,0.0,0.0,0.0,0.0,0.0,0.0,0.0,0.0,0.0,0.0,0.0,0.0,0.0,0.0,0.0,0.0,0.0,0.0,0.0,0.0,0.0,0.0,0.0,0.0,0.0,0.0,0.0,-0.2989,-0.3069,-0.3949,-0.3539,-0.3409,0.0,0.0,0.0,0.0,0.0,0.0,0.0,0.0,0.0,-0.7568,-0.7801,-0.802,-0.8271,-0.8513,-0.8356,-0.7831,-0.7959,-0.788,-0.7558,-0.7399,-0.7274,-0.7171,-0.6831,-0.6015,-0.4803,-0.3239,-0.2535,-0.2366,0.0,0.0,0.0,0.0,0.0,-0.1376,0.0,0.0,0.0,0.0,0.0,0.0,0.0,0.0,0.0,0.0,0.0,0.0,-0.6976,-0.719,-0.7328,-0.7364,-0.7797,-0.7804,-0.7175,-0.7337,-0.7251,-0.6722,-0.6764,-0.6929,-0.7219,-0.7416,-0.7564,-0.7661,-0.6485,-0.562,-0.5072,-0.4663,-0.3904,-0.2867,-0.2582,-0.2108,-0.1545,-0.1409,-0.1342,-0.1322,0.0,0.0,0.0,0.0,0.0,0.0,0.0,0.0,0.0,0.0,0.0,0.0,0.0,0.0,0.0,0.0,0.0,0.0,0.0,0.0,0.0,0.0,0.0,0.0,0.0,0.0,0.0,0.0,0.0,0.0,0.0,0.0,0.0,0.0,0.0,0.0,0.0,-0.4291,-0.4325,-0.5056,-0.5109,-0.514,0.0,0.0,0.0,0.0,0.0,0.0,-0.6747,-0.7203,-0.7848,-0.8763,-0.8973,-0.9194,-0.9502,-0.977,-0.9674,-0.9298,-0.9451,-0.9248,-0.875,-0.8602,-0.8427,-0.8228,-0.8091,-0.7864,-0.7406,-0.502,-0.3938,-0.3678,-0.2644,-0.2184,-0.2108,-0.2154,-0.2411,-0.2648,0.0,0.0,0.0,0.0,0.0,0.0,0.0,0.0,0.0,0.0,0.0,-0.7004,-0.7759,-0.7911,-0.8135,-0.8581,-0.8397,-0.8145,-0.7787,-0.7364,-0.7006,-0.6715,-0.6952,-0.6978,-0.6736,-0.7293,-0.7841,-0.8347,-0.7658,-0.7338,-0.7402,-0.6887,-0.6425,-0.6009,-0.4948,-0.3438,-0.1673,-0.1555,-0.146,-0.1381,-0.1325,0.0,0.0,0.0,0.0,0.0,0.0,0.0,0.0,0.0,0.0,0.0,0.0,0.0,0.0,0.0,0.0,0.0,0.0,0.0,0.0,0.0,0.0,0.0,0.0,0.0,0.0,0.0,0.0,0.0,0.0,0.0,0.0,0.0,0.0,0.0,0.0,0.0,0.0,-0.6028,-0.5981,0.0,0.0,0.0,0.0,-0.7619,-0.8122,-0.8486,-0.8652,-0.9172,-0.9655,-1.008,-1.0241,-1.0401,-1.0607,-1.0631,-1.0729,-1.0887,-1.0895,-1.0875,-1.0847,-1.0634,-1.0431,-1.0254,-0.9919,-0.975,-0.9562,-0.7073,-0.5798,-0.5373,-0.5172,-0.4986,-0.4828,-0.5015,-0.5153,-0.5105,0.0,0.0,0.0,0.0,0.0,0.0,0.0,0.0,-0.6803,-0.6736,-0.7286,-0.7788,-0.8132,-0.8606,-0.9008,-0.9266,-0.9339,-0.9136,-0.8547,-0.8119,-0.7645,-0.7178,-0.6951,-0.7062,-0.7526,-0.8302,-0.9037,-0.9749,-0.9427,-0.9112,-0.8796,-0.8091,-0.7387,-0.6656,-0.5991,-0.5312,-0.4539,-0.2484,-0.159,-0.1519,-0.1399,-0.137,0.0,0.0,0.0,0.0,0.0,0.0,0.0,0.0,0.0,0.0,0.0,0.0,0.0,0.0,0.0,0.0,0.0,0.0,0.0,0.0,0.0,0.0,0.0,0.0,0.0,0.0,0.0,0.0,0.0,0.0,0.0,0.0,0.0,0.0,0.0,0.0,0.0,-0.7949,-0.8156,0.0,-0.8329,-0.8268,-0.8505,-0.9115,-0.9535,-0.9899,-1.0203,-1.0612,-1.0891,-1.1021,-1.12,-1.1273,-1.1216,-1.133,-1.1391,-1.1313,-1.1313,-1.1313,-1.1297,-1.1033,-1.0769,-1.059,-1.032,-1.0168,-1.0004,-0.8992,-0.7876,-0.6706,-0.5791,-0.5366,-0.5275,-0.5376,-0.5637,-0.5825,0.0,0.0,0.0,0.0,0.0,0.0,0.0,0.0,-0.6901,-0.6909,-0.7611,-0.8265,-0.8651,-0.9296,-0.9788,-1.0008,-0.9974,-0.9652,-0.8989,-0.8398,-0.7838,-0.7259,-0.7096,-0.7437,-0.8318,-0.9202,-1.0132,-1.1047,-1.0987,-1.0873,-1.0705,-1.0103,-0.932,-0.8426,-0.7799,-0.7337,-0.6882,-0.4345,-0.2907,-0.2316,-0.1726,-0.1483,-0.146,0.0,0.0,0.0,0.0,0.0,0.0,0.0,0.0,0.0,0.0,0.0,0.0,0.0,0.0,0.0,0.0,0.0,0.0,0.0,0.0,0.0,0.0,0.0,0.0,0.0,0.0,0.0,0.0,0.0,0.0,0.0,0.0,0.0,0.0,0.0,-0.8751,-0.9295,-0.9897,-1.0131,-0.9721,-0.9814,-1.0046,-1.0412,-1.0742,-1.1049,-1.1313,-1.1614,-1.1768,-1.1768,-1.189,-1.1866,-1.1679,-1.1801,-1.1768,-1.1589,-1.1589,-1.1557,-1.1492,-1.1191,-1.0984,-1.0797,-1.0515,-1.0336,-1.0241,-1.008,-0.9361,-0.8299,-0.7272,-0.6811,-0.6697,-0.6836,-0.7084,-0.7268,0.0,0.0,0.0,0.0,0.0,0.0,-0.63,-0.6422,-0.6709,-0.7225,-0.7724,-0.8395,-0.9405,-0.9994,-1.0473,-1.0887,-1.0231,-0.9598,-0.9042,-0.8185,-0.7476,-0.6959,-0.7454,-0.8159,-0.9047,-0.9974,-1.098,-1.2112,-1.2243,-1.2546,-1.3056,-1.2851,-1.2338,-1.1504,-1.0431,-0.9456,-0.8497,-0.7023,-0.5475,-0.3927,-0.2396,-0.1725,-0.1657,0.0,0.0,0.0,0.0,0.0,0.0,0.0,0.0,0.0,0.0,0.0,0.0,0.0,0.0,0.0,0.0,0.0,0.0,0.0,0.0,0.0,0.0,0.0,0.0,0.0,0.0,0.0,0.0,0.0,0.0,0.0,0.0,0.0,-0.8625,-0.9661,-1.0297,-1.002,-1.1073,-1.1465,-1.0548,-1.1109,-1.1524,-1.1533,-1.1849,-1.2021,-1.2021,-1.2223,-1.232,-1.2312,-1.232,-1.2231,-1.2005,-1.2005,-1.1955,-1.1815,-1.1806,-1.1717,-1.15,-1.1284,-1.1135,-1.0984,-1.0571,-1.0417,-1.0401,-1.0276,-1.0194,-1.0154,-0.977,-0.9442,-0.9244,-0.9509,-0.9599,-0.9476,0.0,0.0,0.0,0.0,0.0,0.0,-0.63,-0.6651,-0.695,-0.7005,-0.8049,-0.8988,-0.9502,-1.0186,-1.0778,-1.1233,-1.0546,-0.9854,-0.9332,-0.8343,-0.7721,-0.7636,-0.8518,-0.9503,-1.0584,-1.0979,-1.1591,-1.2373,-1.2093,-1.2172,-1.2576,-1.2137,-1.2108,-1.2411,-1.1523,-1.1106,-1.0924,-0.9154,-0.8081,-0.7345,-0.4519,-0.3321,-0.3138,0.0,0.0,0.0,0.0,0.0,0.0,0.0,0.0,0.0,0.0,0.0,0.0,0.0,0.0,0.0,0.0,0.0,0.0,0.0,0.0,0.0,0.0,0.0,0.0,0.0,0.0,0.0,0.0,0.0,0.0,0.0,0.0,-0.9782,-0.976,-1.0466,-1.1155,-1.1603,-1.2093,-1.2272,-1.2007,-1.2038,-1.2134,-1.2295,-1.2393,-1.2475,-1.2572,-1.2629,-1.2629,-1.2531,-1.2621,-1.2507,-1.2231,-1.2231,-1.2142,-1.1924,-1.1833,-1.1782,-1.1717,-1.137,-1.1171,-1.1135,-1.0777,-1.0623,-1.0607,-1.0428,-1.0282,-1.0162,-0.9908,-0.976,-0.9694,-0.9623,-0.9599,-0.9583,0.0,0.0,0.0,0.0,0.0,0.0,-0.63,-0.6617,-0.6888,-0.698,-0.8128,-0.9106,-0.9544,-1.0365,-1.1027,-1.1289,-1.0468,-0.9745,-0.9317,-0.8406,-0.8022,-0.8349,-0.9348,-1.0252,-1.1048,-1.1522,-1.2043,-1.2688,-1.2454,-1.2529,-1.2837,-1.2522,-1.2444,-1.2605,-1.2142,-1.1914,-1.1768,-1.066,-1.0177,-0.9867,-0.7236,-0.5723,-0.491,-0.3935,-0.3533,-0.3452,-0.2802,-0.2538,-0.2428,-0.1754,0.0,0.0,0.0,0.0,0.0,0.0,0.0,0.0,0.0,0.0,0.0,0.0,0.0,0.0,0.0,0.0,0.0,0.0,0.0,0.0,0.0,0.0,0.0,0.0,-0.9991,-1.1114,-1.1265,-1.1608,-1.2078,-1.2686,-1.2873,-1.2938,-1.2938,-1.2841,-1.2759,-1.2816,-1.2816,-1.28,-1.2799,-1.2807,-1.2759,-1.2678,-1.275,-1.2669,-1.2418,-1.2345,-1.2215,-1.1997,-1.1857,-1.1806,-1.1798,-1.1468,-1.1338,0.0,-1.1037,-1.0875,-1.0829,-1.0696,-1.055,0.0,0.0,0.0,0.0,0.0,-0.9664,-0.9599,0.0,0.0,0.0,0.0,0.0,0.0,-0.63,-0.6422,-0.6654,-0.7038,-0.8,-0.8886,-0.9469,-1.0419,-1.1068,-1.1136,-1.0128,-0.9401,-0.9109,-0.8504,-0.8477,-0.922,-1.0134,-1.0836,-1.1255,-1.1964,-1.2549,-1.3039,-1.3105,-1.3245,-1.3398,-1.3375,-1.307,-1.2485,-1.2469,-1.2208,-1.1778,-1.1742,-1.1735,-1.1586,-1.0119,-0.8489,-0.6875,-0.6347,-0.621,-0.6107,-0.4689,-0.4138,-0.3916,-0.2641,0.0,0.0,0.0,0.0,0.0,0.0,0.0,0.0,0.0,0.0,0.0,0.0,0.0,0.0,0.0,0.0,0.0,0.0,0.0,0.0,0.0,0.0,0.0,0.0,-1.1017,-1.2281,-1.2815,-1.2913,-1.3026,-1.337,-1.3427,-1.3427,-1.341,-1.3427,-1.3327,-1.3141,-1.3108,-1.3027,-1.284,0.0,0.0,0.0,0.0,-1.2726,-1.2629,-1.2426,-1.2255,-1.2054,-1.1914,-1.1825,-1.1831,-1.1614,-1.1516,-1.1492,-1.1305,-1.1126,-1.1,-1.1,-1.0878,-1.0615,-1.0137,-0.9942,-0.9934,-0.9893,-0.977,0.0,0.0,0.0,0.0,0.0,0.0,0.0,-0.63,-0.6422,-0.6654,-0.7038,-0.7848,-0.854,-0.8987,-0.9553,-1.0101,-1.0594,-0.9653,-0.9026,-0.9011,-0.9137,-0.9662,-1.0651,-1.1538,-1.2466,-1.3459,-1.3594,-1.3735,-1.3968,-1.3641,-1.33,-1.2878,-1.301,-1.3086,-1.3106,-1.2966,-1.2931,-1.294,-1.2631,-1.2409,-1.228,-1.1879,-1.0558,-0.8678,-0.7178,-0.666,-0.6692,-0.6111,-0.5943,-0.5918,-0.5418,-0.5266,-0.523,-0.4968,-0.464,0.0,0.0,0.0,0.0,0.0,0.0,0.0,0.0,0.0,0.0,0.0,0.0,0.0,0.0,0.0,0.0,0.0,0.0,0.0,-1.0542,-1.1768,-1.2831,-1.3374,-1.3569,-1.3612,-1.3427,-1.3498,-1.353,-1.3419,-1.3506,-1.3514,-1.3362,-1.3181,-1.3076,-1.3043,-1.288,0.0,-1.2807,-1.2807,-1.2791,-1.275,-1.2605,-1.2531,-1.249,0.0,0.0,-1.1971,-1.1801,-1.1638,-1.1492,-1.1305,-1.1126,-1.1,-1.1,-1.0777,-1.0434,-1.0209,-1.0137,-1.0097,-0.9786,-0.9746,-0.9819,0.0,0.0,0.0,0.0,0.0,0.0,-0.63,-0.6361,-0.6518,-0.685,-0.7448,-0.8013,-0.844,-0.9006,-0.9459,-0.9761,-0.9317,-0.9057,-0.9191,-0.9744,-1.0636,-1.1951,-1.2508,-1.3207,-1.4076,-1.4183,-1.4236,-1.4269,-1.4191,-1.3824,-1.3158,-1.3318,-1.3311,-1.3165,-1.3049,-1.3082,-1.3125,-1.2927,-1.28,-1.2758,-1.2569,-1.1982,-1.1058,-0.9753,-0.92,-0.9018,-0.8132,-0.7717,-0.7463,-0.6593,-0.6308,-0.6257,-0.5973,-0.5966,-0.5954,0.0,0.0,0.0,0.0,0.0,0.0,0.0,0.0,0.0,0.0,0.0,0.0,0.0,0.0,-0.8637,-0.9061,0.0,-1.1114,-1.1556,-1.2607,-1.3431,-1.3698,-1.3928,-1.3977,-1.3834,-1.3774,-1.3807,-1.3896,-1.3823,-1.3734,-1.3644,-1.3465,-1.3287,-1.3108,-1.3011,-1.2896,-1.2807,-1.2807,-1.2807,-1.2807,-1.2653,-1.2596,-1.2596,-1.2385,-1.2175,-1.1997,-1.1939,-1.1809,-1.163,-1.1541,-1.1346,-1.1086,-1.0935,-1.0729,-1.0523,-1.0371,-1.0211,-1.0048,-1.0004,-0.9965,-0.9909,0.0,0.0,0.0,0.0,0.0,0.0,0.0,-0.632,-0.6409,-0.6661,-0.7063,-0.7455,-0.7871,-0.8468,-0.881,-0.8778,-0.902,-0.9296,-0.9599,-1.0332,-1.1395,-1.2914,-1.3194,-1.3593,-1.4151,-1.4491,-1.4622,-1.4526,-1.4709,-1.4441,-1.3632,-1.3796,-1.3586,-1.3043,-1.3071,-1.3091,-1.3091,-1.3091,-1.3091,-1.3077,-1.2908,-1.2915,-1.2969,-1.2257,-1.1823,-1.1409,-1.0107,-0.9302,-0.8741,-0.7654,-0.7139,-0.6969,-0.694,-0.7297,-0.7568,-0.6696,-0.701,0.0,0.0,0.0,0.0,0.0,0.0,0.0,0.0,-0.8667,-0.89,-0.9348,-0.963,-0.9993,-1.0629,-1.1455,-1.2139,-1.2529,-1.329,-1.3872,-1.3945,-1.4083,-1.4225,-1.4221,-1.4066,-1.4066,-1.4322,-1.4156,-1.3977,-1.3904,-1.3739,-1.3496,-1.3165,-1.3116,-1.3011,-1.2807,-1.2807,-1.2807,-1.2807,-1.2686,-1.2645,-1.2645,-1.2475,-1.2312,-1.2134,-1.207,-1.1987,-1.1855,-1.1782,-1.1549,-1.1219,-1.0891,-1.0772,-1.0729,-1.055,-1.0282,-1.0022,-1.0255,-1.0168,-0.9934,0.0,0.0,0.0,0.0,0.0,0.0,0.0,0.0,-0.6409,-0.6661,-0.6843,-0.7019,-0.7197,-0.7594,-0.7807,-0.7694,-0.8719,-0.9674,-1.0409,-1.0953,-1.1858,-1.3289,-1.3609,-1.3963,-1.4422,-1.5011,-1.5301,-1.5285,-1.5324,-1.4788,-1.3762,-1.3967,-1.3747,-1.3193,-1.3288,-1.3349,-1.3349,-1.3349,-1.3349,-1.3349,-1.3329,-1.3254,-1.3152,-1.2759,-1.2447,-1.2121,-1.14,-1.0512,-0.9704,-0.9979,-0.9603,-0.9157,-0.9658,-0.9619,-0.9227,-0.8588,-0.8093,-0.7651,-0.7006,-0.7069,-0.744,-0.7954,-0.8368,-0.8984,0.0,-1.05,-1.0679,-1.1565,-1.2017,-1.2324,-1.2346,-1.2817,-1.3241,-1.3295,-1.3471,-1.3747,-1.4107,-1.42,-1.4237,-1.4346,-1.4253,-1.4164,-1.4205,-1.431,-1.4201,-1.392,-1.3888,-1.3717,-1.3394,-1.3181,-1.3011,-1.2807,-1.2807,-1.2807,-1.2807,-1.2783,-1.2775,-1.2775,-1.275,-1.2678,-1.2531,-1.2345,-1.2174,-1.1949,-1.1671,-1.1508,-1.1443,-1.1114,-1.0968,-1.0951,-1.0737,-1.0515,-1.0328,-1.0241,-1.0088,-0.9909,0.0,0.0,0.0,0.0,0.0,0.0,0.0,0.0,0.0,-0.6457,-0.6518,-0.662,-0.6784,-0.7066,-0.7217,-0.7158,-0.8413,-0.9538,-1.0255,-1.1438,-1.2719,-1.4114,-1.4519,-1.4944,-1.5362,-1.5492,-1.5531,-1.5381,-1.5133,-1.4642,-1.3967,-1.4079,-1.3989,-1.372,-1.379,-1.3818,-1.3818,-1.3818,-1.3652,-1.3403,-1.3403,-1.3308,-1.3132,-1.2745,-1.225,-1.1674,-1.0989,-1.0297,0.0,-0.9737,-0.9594,-0.9485,-0.9876,-0.9707,-0.9267,-0.873,-0.8214,-0.7822,-0.7964,-0.8201,-0.861,-0.9411,-1.0127,-1.0799,-1.1441,-1.1849,-1.2229,-1.2744,-1.3138,-1.3444,-1.3622,-1.3829,-1.4038,0.0,-1.4031,-1.4042,-1.4286,-1.4058,-1.3928,-1.4099,-1.388,-1.3866,-1.4184,-1.405,-1.3917,-1.3904,-1.3904,-1.379,-1.3547,-1.3457,-1.3245,-1.2994,-1.2986,-1.2904,-1.2807,-1.2807,-1.2807,-1.2807,-1.2807,-1.2743,-1.2596,-1.2523,-1.2304,-1.1981,-1.1654,-1.15,-1.1468,-1.1147,-1.1057,-1.1086,-1.0802,-1.0647,-1.0574,-1.0501,-1.0355,-1.0217,0.0,0.0,0.0,0.0,0.0,0.0,0.0,0.0,0.0,0.0,-0.63,-0.6377,-0.6583,-0.6672,-0.6768,-0.6884,-0.7906,-0.8949,-0.9901,-1.1337,-1.2707,-1.4045,-1.4621,-1.5107,-1.5527,-1.5489,-1.5526,-1.5658,-1.5226,-1.4841,-1.448,-1.448,-1.4375,-1.4208,-1.4128,-1.4108,-1.4108,-1.3942,-1.3707,-1.3336,-1.3336,-1.32,-1.2935,-1.2447,-1.1742,-1.0975,-1.0317,-0.9618,-0.896,-0.8764,-0.8655,-0.8682,-0.9076,-0.9042,-0.8811,-0.8452,-0.8036,-0.7845,-0.8569,-0.9031,-0.9576,-1.0751,-1.1738,-1.2467,-1.2734,-1.318,-1.3606,-1.3856,-1.403,-1.417,-1.4431,-1.4427,-1.446,-1.4676,-1.4448,-1.4326,-1.4546,-1.4087,-1.3787,-1.3896,-1.3547,-1.3467,-1.3774,-1.3714,-1.3714,-1.3823,-1.392,-1.388,-1.3625,-1.3609,-1.3439,-1.3108,-1.3092,-1.3011,-1.2807,-1.2807,-1.2807,-1.2807,-1.2807,-1.2734,-1.2637,-1.2572,-1.232,-1.1981,-1.1711,-1.1573,-1.1549,-1.1269,-1.1183,-1.1265,-1.0907,-1.0769,-1.0789,-1.0712,-1.055,-1.0361,0.0,0.0,0.0,0.0,0.0,0.0,0.0,0.0,0.0,0.0,0.0,0.0,0.0,-0.6435,-0.6467,-0.6865,-0.7056,-0.7862,-0.9503,-1.0258,-1.1239,-1.2503,-1.3316,-1.3962,-1.4356,-1.4731,-1.5383,-1.625,-1.5951,-1.5625,-1.534,-1.534,-1.5049,-1.4497,-1.4208,-1.4108,-1.4066,-1.3611,-1.3356,-1.322,-1.322,-1.2915,-1.2461,-1.187,-1.1002,-1.0084,-0.9741,-0.8689,-0.7464,-0.745,-0.7063,-0.6709,-0.7434,-0.7831,-0.8047,-0.8008,-0.7725,-0.7602,-0.8475,-0.908,-0.9889,-1.1545,-1.266,-1.3598,-1.444,-1.4622,-1.4735,-1.5083,-1.4897,-1.4662,-1.47,-1.4516,-1.446,-1.4676,-1.4546,-1.4546,-1.4941,-1.4534,-1.4099,-1.392,-1.3425,-1.3043,0.0,-1.3498,-1.3823,-1.3625,-1.3977,-1.4018,-1.3625,-1.3609,-1.3439,-1.3108,-1.3092,-1.3011,-1.2807,-1.2807,-1.2807,-1.2807,-1.2807,-1.2799,-1.2783,-1.2475,-1.2215,-1.1989,-1.1841,-1.1798,-1.1782,-1.1565,-1.1484,-1.1451,-1.1131,-1.0992,-1.0968,-1.0761,-1.0496,-1.0219,0.0,0.0,0.0,0.0,0.0,0.0,0.0,0.0,0.0,0.0,0.0,0.0,0.0,0.0,0.0,0.0,-0.6989,-0.7548,-0.8117,-0.9645,-1.0793,-1.1404,-1.2889,-1.381,-1.4032,-1.4337,-1.4602,-1.4767,-1.4539,-1.4374,-1.427,-1.3993,-1.4134,-1.4551,-1.4206,-1.4216,-1.4521,-1.411,-1.3821,-1.3616,-1.2899,-1.2447,-1.2049,-1.1097,-1.0043,-0.8934,0.0,-0.7373,-0.677,-0.655,-0.6338,-0.6295,-0.7032,-0.7079,-0.6941,-0.7286,-0.7713,-0.8331,-0.9623,-1.0631,-1.1647,-1.2773,-1.3779,-1.4575,-1.4921,-1.5116,-1.5212,-1.5082,-1.4497,-1.3893,-1.3685,-1.3303,-1.3204,-1.386,-1.4042,-1.4566,-1.6055,-1.611,-1.5704,-1.4902,-1.486,0.0,0.0,0.0,0.0,-1.3449,-1.3685,-1.3787,-1.3815,-1.3815,-1.3701,-1.3431,-1.3344,-1.3189,-1.3011,-1.2864,-1.2807,-1.2807,-1.2807,-1.2807,-1.2791,-1.2435,-1.2272,-1.2167,-1.1937,-1.1806,-1.179,-1.1573,-1.1573,-1.1646,-1.1281,-1.1135,-1.1126,-1.107,-1.0818,-1.0553,0.0,0.0,0.0,0.0,0.0,0.0,0.0,0.0,0.0,0.0,0.0,0.0,0.0,0.0,0.0,0.0,0.0,-0.6984,-0.7206,-0.8723,-0.9705,-0.9949,-1.1831,-1.2873,-1.2914,-1.3433,-1.3608,-1.3442,-1.348,-1.3379,-1.3197,-1.3237,-1.3588,-1.4159,-1.3756,-1.3785,-1.4137,-1.3537,-1.3022,-1.2611,-1.1883,-1.1255,-1.0672,-0.979,-0.8798,0.0,-0.6884,-0.6416,-0.6159,-0.5825,-0.5745,-0.5914,-0.6663,-0.6809,-0.6839,-0.7396,-0.8086,-0.9042,-1.082,-1.1951,-1.2865,-1.399,-1.4789,-1.5324,-1.5407,-1.5374,-1.528,-1.5052,-1.4233,-1.3436,-1.2988,-1.2715,-1.2807,-1.3661,-1.4162,-1.5179,-1.7299,-1.7378,-1.7056,-1.6532,-1.6449,-1.5856,0.0,0.0,0.0,-1.4052,-1.4285,-1.4693,-1.5299,-1.5442,-1.5423,-1.5197,-1.5032,-1.4824,-1.4648,-1.4424,-1.4292,-1.4292,-1.4292,-1.4292,-1.4283,-1.3916,-1.3483,-1.3035,-1.2647,-1.2221,-1.1798,-1.1646,-1.1671,-1.1774,-1.1443,-1.1321,-1.1313,-1.1219,-1.1049,-1.0875,0.0,0.0,0.0,0.0,0.0,0.0,0.0,0.0,0.0,0.0,0.0,0.0,0.0,0.0,0.0,0.0,0.0,0.0,-0.6852,-0.757,-0.8072,-0.8339,-1.0225,-1.1249,-1.124,-1.2137,-1.2589,-1.2509,-1.2922,-1.2847,-1.2365,-1.3159,-1.3469,-1.3331,-1.2932,-1.2808,-1.2842,-1.1909,-1.1104,-1.0481,-1.0274,-0.9519,-0.847,-0.8094,-0.7432,-0.6634,-0.6181,-0.5901,-0.5685,-0.5314,-0.532,-0.562,-0.6351,-0.7038,-0.7699,-0.8333,-0.8869,-0.9747,-1.2041,-1.2955,-1.3579,-1.5139,-1.565,-1.5804,-1.5869,-1.5419,-1.501,-1.4999,-1.4166,-1.3234,-1.2604,-1.2698,-1.3166,-1.4047,-1.4934,-1.6311,-1.8627,-1.847,-1.8276,-1.867,0.0,0.0,0.0,0.0,0.0,-1.5566,0.0,-1.6555,-1.7874,-1.8226,-1.8306,-1.808,-1.7864,-1.7627,-1.7412,-1.7141,-1.7023,-1.7012,-1.7012,-1.7012,-1.699,-1.6505,-1.5649,-1.4457,-1.3996,-1.3105,-1.1988,-1.1988,-1.1957,-1.1881,-1.17,-1.1567,-1.1484,-1.1313,-1.1211,-1.1171,0.0,0.0,0.0,0.0,0.0,0.0,0.0,0.0,0.0,0.0,0.0,0.0,0.0,0.0,0.0,0.0,0.0,0.0,-0.6866,-0.7113,-0.7847,-0.9126,-1.0067,-1.0937,-1.1793,-1.2421,-1.2754,-1.2726,-1.2997,-1.3039,-1.2899,-1.2818,-1.2671,-1.2483,-1.2103,-1.1758,-1.1452,-1.0763,-1.0391,-1.0196,-0.9307,-0.8739,-0.8368,-0.777,-0.7144,-0.6525,-0.6301,-0.6275,-0.6239,-0.5406,-0.5778,-0.6719,-0.7453,-0.8056,-0.8707,-0.9961,-1.07,-1.1491,-1.3283,-1.4221,-1.4854,-1.5536,-1.574,-1.5981,-1.6757,-1.5909,-1.4998,-1.5048,-1.3642,-1.2118,-1.1267,-1.1836,-1.2764,-1.3736,-1.571,-1.7947,-2.034,-2.1057,-2.118,-2.0733,-2.0685,-2.0005,-1.8305,-1.807,0.0,0.0,-1.8042,-1.7552,-1.8237,-1.8347,-1.8272,-1.7966,-1.7981,-1.7875,-1.7638,-1.7423,-1.7217,-1.7012,-1.7012,-1.7012,-1.699,-1.6505,-1.6114,-1.5773,-1.5323,-1.4917,-1.4629,-1.4629,-1.4063,-1.3216,-1.317,-1.2468,-1.1508,-1.1606,-1.1459,-1.1203,0.0,0.0,0.0,0.0,0.0,0.0,0.0,0.0,0.0,0.0,0.0,0.0,0.0,0.0,0.0,0.0,0.0,0.0,0.0,-0.6743,-0.7231,-0.7846,-0.9124,-1.0077,-1.0622,-1.1449,-1.1842,-1.1757,-1.2188,-1.2227,-1.1925,-1.2113,-1.1948,-1.1482,-1.116,-1.075,-1.0243,-0.9601,-0.919,0.0,0.0,-0.7586,-0.7211,-0.6847,-0.6491,-0.6185,-0.6103,-0.6421,-0.6869,-0.6929,-0.7591,-0.8478,-0.8929,-0.9569,-1.0412,-1.1625,-1.2289,-1.3008,-1.4492,-1.5228,-1.5618,-1.5934,-1.6249,-1.6385,-1.6099,-1.551,-1.4852,-1.41,-1.2809,-1.1647,-1.1098,-1.1936,-1.3111,-1.4336,-1.6623,-1.9108,-2.1662,-2.2623,-2.305,-2.3051,-2.2913,-2.2298,-2.0962,-2.0619,-2.0884,0.0,-2.0138,-1.9449,-2.0328,-2.0494,-2.04,-2.0091,-2.0007,-1.9862,-1.9611,-1.937,-1.9167,-1.9023,-1.8872,-1.8812,-1.8768,-1.8232,-1.7718,-1.7161,0.0,-1.6131,-1.5599,-1.5599,-1.5184,-1.453,-1.453,-1.4044,-1.3247,-1.28,-1.2494,-1.2231,0.0,0.0,0.0,0.0,0.0,0.0,0.0,0.0,0.0,0.0,0.0,0.0,0.0,0.0,0.0,0.0,0.0,0.0,0.0,0.0,-0.6589,-0.6186,-0.8094,-0.9122,-0.8998,-1.0127,-1.0587,-1.033,-1.0965,-1.097,-1.0392,-1.1342,-1.1281,-1.0398,-1.0373,-0.9907,-0.9099,-0.8418,-0.7834,-0.7318,-0.697,-0.6417,-0.5833,0.0,-0.5861,-0.5867,-0.5924,-0.6486,-0.7444,-0.8939,-0.9834,-1.0364,-1.0599,-1.1385,-1.2384,-1.3238,-1.3697,-1.4306,-1.584,-1.6131,-1.6089,-1.6485,-1.6862,-1.67,-1.4949,-1.4791,-1.459,-1.2924,-1.2041,-1.1574,-1.1557,-1.246,-1.3757,-1.5455,-1.755,-1.9907,-2.2586,-2.3482,-2.4178,-2.4983,-2.4636,-2.4209,-2.3915,-2.3621,-2.3425,-2.3465,-2.2074,-2.1698,-2.2892,-2.318,-2.318,-2.2907,-2.2579,-2.2271,-2.1991,-2.177,-2.1609,-2.1529,-2.1229,-2.1109,-2.1096,-2.0504,-1.9646,-1.8521,0.0,0.0,-1.6157,-1.6157,-1.6068,-1.5909,-1.5876,-1.5747,-1.548,-1.4351,-1.3963,-1.3754,0.0,0.0,0.0,0.0,0.0,0.0,0.0,0.0,0.0,0.0,-0.6388,-0.634,0.0,0.0,0.0,0.0,0.0,0.0,0.0,0.0,0.0,-0.8051,-0.8717,-0.9175,-0.9468,-1.0341,-1.0509,-0.9988,-1.0108,-1.0198,-1.0247,-1.115,-1.0806,-0.9487,-1.0229,-0.9501,-0.7733,-0.7424,-0.7004,-0.6496,-0.6433,-0.622,-0.5984,-0.6151,0.0,0.0,-0.6537,-0.6912,-0.7578,-0.9535,-1.0564,-1.1222,-1.2282,-1.3178,-1.3922,-1.4665,-1.4885,-1.5493,-1.7896,-1.7197,-1.6186,-1.7732,-1.7285,-1.6256,-1.5427,-1.4998,-1.4447,-1.3307,-1.2201,-1.153,-1.1768,-1.2584,-1.4013,-1.6497,-1.8262,-2.0214,-2.2873,-2.3754,-2.4369,-2.4997,-2.5021,-2.481,-2.4479,-2.4222,0.0,0.0,0.0,-2.3254,-2.3225,-2.3265,-2.318,-2.2907,-2.2579,-2.2271,-2.1991,-2.1937,-2.167,-2.1189,-2.1136,-2.1109,-2.1096,-2.0748,-2.0332,-1.988,0.0,0.0,-1.9055,-1.9055,-1.8448,-1.7488,-1.7274,-1.6544,-1.5569,-1.5362,-1.5273,-1.5095,0.0,0.0,0.0,0.0,0.0,0.0,0.0,-0.647,-0.6552,-0.6688,-0.6532,-0.6436,-0.6484,-0.645,-0.6381,0.0,0.0,0.0,0.0,0.0,0.0,-0.7224,-0.7841,-0.8328,-0.8647,-0.9566,-1.0187,-1.0587,0.0,-1.1282,-1.176,-1.1453,-1.0757,-0.9786,-1.0111,-0.916,-0.7374,-0.7643,-0.7348,-0.6645,-0.6468,-0.6348,-0.6261,-0.63,0.0,0.0,-0.6479,-0.6942,-0.7643,-0.8856,-1.0047,-1.1338,-1.2992,-1.3945,-1.4521,-1.4862,-1.5254,-1.607,-1.8176,-1.7498,-1.6593,-1.8166,-1.7788,-1.6515,-1.4599,-1.4516,-1.4276,-1.2249,-1.1387,-1.1132,-1.1557,-1.239,-1.3608,-1.5494,-1.7301,-1.9227,-2.1371,-2.2752,-2.3937,-2.4957,-2.5115,-2.5077,-2.5053,-2.4653,-2.4452,0.0,0.0,-2.4088,-2.3794,-2.3452,-2.318,-2.2907,-2.2726,-2.2612,-2.2479,-2.2171,-2.1844,-2.1563,-2.1256,-2.1109,-2.1096,-2.0815,-2.0601,-2.0454,-2.0264,0.0,-2.0027,-2.0027,-1.9653,-1.9073,-1.8792,-1.8323,-1.7677,-1.6885,-1.6603,-1.6426,0.0,0.0,0.0,0.0,0.0,0.0,0.0,-0.6518,-0.662,-0.687,-0.6722,-0.658,-0.6546,-0.6512,-0.6457,0.0,0.0,0.0,0.0,0.0,0.0,0.0,0.0,0.0,-0.7587,0.0,0.0,-1.0309,-1.0806,0.0,0.0,0.0,0.0,0.0,-1.0048,-0.916,-0.767,-0.8046,-0.7731,0.0,0.0,-0.6525,0.0,0.0,0.0,0.0,0.0,-0.6763,-0.7447,-0.8015,-0.9183,-1.0739,-1.2514,-1.3671,-1.4383,-1.4505,-1.5372,-1.6745,-1.8608,-1.8375,-1.7888,-1.9131,-1.8702,-1.7176,-1.4047,-1.4052,-1.3994,-1.132,-1.0701,-1.0829,-1.1583,-1.2189,-1.3065,-1.4469,-1.6005,-1.7756,-1.981,-2.155,-2.3188,-2.474,-2.4997,0.0,-2.5398,-2.4906,0.0,0.0,0.0,0.0,-2.4128,-2.3554,-2.3113,-2.2907,-2.2893,-2.284,-2.2706,-2.2251,-2.1924,-2.179,-2.1323,-2.1109,-2.1096,-2.0869,-2.0766,-2.0699,-2.0494,0.0,0.0,-2.0304,-2.0304,-2.0264,-2.0,-1.9853,-1.9654,-1.8433,-1.7955,-1.7718,0.0,0.0,0.0,0.0,0.0,0.0,0.0,-0.6607,-0.6742,-0.6884,-0.6884,-0.6809,-0.6695,-0.6573,-0.6546,0.0,0.0,0.0,0.0,0.0,0.0,0.0,0.0,0.0,0.0,0.0,0.0,-0.7469,-0.7529,0.0,0.0,0.0,0.0,0.0,0.0,-0.9885,-0.8713,-0.7913,0.0,0.0,0.0,0.0,0.0,0.0,0.0,0.0,0.0,-0.6435,-0.6764,-0.7845,-0.8519,-0.9082,-1.0131,-1.1742,-1.3336,-1.3831,-1.563,-1.8019,-2.0697,-2.1068,-2.0991,-2.1849,-2.0509,-1.8171,-1.5076,-1.4129,-1.3423,-1.1677,-1.0992,-1.1103,-1.243,-1.2288,-1.2711,-1.495,-1.528,-1.631,-1.9399,-2.0927,-2.2358,-2.4075,-2.4756,0.0,-2.5117,-2.4823,0.0,0.0,0.0,0.0,-2.3857,-2.3268,-2.292,-2.2893,-2.2893,-2.2639,-2.2104,-2.205,-2.1724,-2.1189,-2.1136,-2.1109,-2.1109,-2.1082,-2.0922,-2.0726,0.0,0.0,0.0,-2.0641,-2.0641,-2.0601,-2.0277,-1.9997,-1.98,-1.9641,-1.9439,-1.9039,0.0,0.0,0.0,0.0,0.0,0.0,-0.6471,-0.662,-0.6756,-0.6891,-0.6904,-0.6918,-0.6938,-0.6749,-0.6586,-0.6464,0.0,0.0,0.0,0.0,0.0,0.0,0.0,0.0,0.0,0.0,-0.7721,-0.7874,-0.8238,0.0,0.0,0.0,0.0,0.0,0.0,-0.8763,-0.7819,-0.8025,0.0,0.0,0.0,0.0,0.0,0.0,0.0,0.0,0.0,0.0,-0.6449,-0.6895,-0.7354,-0.7782,-0.8087,-0.9174,-1.0584,-1.1891,-1.4363,-1.7132,-1.9419,-2.0689,-2.1541,-2.2146,-2.0648,-1.8285,-1.5406,-1.424,-1.3309,-1.1585,-1.1074,-1.1157,-1.1828,-1.1757,-1.1971,-1.3113,-1.3627,-1.4669,-1.6847,-1.8624,-2.0525,-2.2619,-2.3554,-2.4302,0.0,0.0,0.0,0.0,0.0,0.0,-2.3817,-2.3367,-2.306,-2.2907,-2.2893,-2.2693,-2.2245,-2.2071,-2.181,-2.1408,-2.1189,-2.1109,-2.1109,-2.1109,-2.1042,-2.0949,0.0,0.0,0.0,-2.0935,-2.0935,-2.0882,-2.0384,-2.013,-1.9983,-1.9666,-1.9495,-1.9343,0.0,0.0,0.0,0.0,0.0,-0.6347,-0.6471,-0.6586,-0.6688,-0.6823,-0.6803,-0.683,-0.6972,-0.6749,-0.6525,-0.6375,-0.622,0.0,0.0,0.0,0.0,0.0,0.0,0.0,0.0,0.0,-0.7493,-0.7897,-0.8358,-0.8922,0.0,0.0,-0.861,-0.8785,0.0,0.0,0.0,0.0,0.0,0.0,0.0,0.0,0.0,0.0,0.0,0.0,0.0,0.0,0.0,0.0,0.0,-0.6929,-0.6764,-0.7278,-0.8347,-1.0424,-1.3373,-1.6424,-1.8328,-2.0484,-2.2187,-2.2166,-2.0555,-1.8355,-1.5708,-1.4084,-1.2758,-1.1517,-1.1145,-1.1166,-1.158,-1.1593,-1.165,-1.1962,-1.2617,-1.3608,-1.5057,-1.7048,-1.9038,-2.0869,0.0,-2.3065,0.0,-2.4466,0.0,0.0,0.0,0.0,0.0,-2.33,-2.3086,-2.2907,-2.2893,-2.2706,-2.2298,-2.2084,-2.1836,-2.1448,-2.1203,-2.1109,-2.1109,-2.1109,-2.1109,-2.1109,0.0,0.0,0.0,-2.1109,-2.1109,-2.1056,-2.053,-2.0277,-2.0144,-1.9679,-1.9468,-1.9401,0.0,0.0,0.0,0.0,0.0,0.0,-0.6471,-0.6491,-0.6552,-0.6681,-0.6593,-0.6552,-0.6688,-0.6464,-0.6361,-0.6477,-0.6491,0.0,0.0,0.0,0.0,0.0,0.0,0.0,0.0,0.0,-0.645,-0.6722,-0.6851,-0.7,-0.7165,-0.8083,-0.85,-0.85,0.0,0.0,0.0,0.0,0.0,0.0,0.0,0.0,0.0,0.0,0.0,0.0,0.0,0.0,0.0,0.0,0.0,0.0,0.0,-0.6445,-0.7153,-0.9821,-1.3173,-1.6405,-1.8226,-2.1205,-2.3479,-2.2311,-2.054,-1.8489,-1.6122,-1.348,-1.1538,-1.159,-1.1235,-1.1191,-1.2111,-1.2069,-1.1975,-1.2251,-1.2577,-1.3326,-1.4807,-1.6754,-1.8249,0.0,-2.0241,-2.1483,-2.2331,0.0,0.0,0.0,0.0,0.0,0.0,-2.2907,-2.2893,-2.2893,-2.2893,-2.2612,-2.1991,-2.1991,-2.1697,-2.1109,-2.1109,-2.1109,-2.1109,-2.1109,-2.1109,0.0,0.0,0.0,0.0,-2.1109,-2.1109,-2.1082,-2.0788,-2.0494,-2.017,-1.9907,-1.9642,-1.9401,0.0,0.0,0.0,0.0,0.0,0.0,0.0,-0.645,-0.6512,-0.6559,-0.6614,-0.6647,-0.6695,-0.6546,-0.6463,-0.6491,-0.6422,0.0,0.0,0.0,0.0,0.0,0.0,0.0,0.0,0.0,-0.6607,-0.6702,-0.683,-0.6979,-0.7098,-0.7401,-0.7533,-0.7533,-0.7533,-0.7533,0.0,0.0,0.0,0.0,0.0,0.0,0.0,0.0,0.0,0.0,0.0,0.0,0.0,0.0,0.0,0.0,0.0,0.0,0.0,-0.8443,-1.1103,-1.3704,-1.447,-1.737,-1.995,-1.896,-1.7782,-1.6366,-1.4562,-1.2882,-1.1586,-1.1203,-1.0989,-1.1127,-1.1877,-1.1966,-1.2122,-1.2812,-1.3173,-1.3647,-1.4536,-1.6595,-1.8383,-1.937,-2.1851,-2.3599,0.0,0.0,0.0,0.0,0.0,0.0,0.0,-2.3014,-2.2893,-2.2893,-2.2672,-2.2378,-2.1991,-2.1823,-2.1529,-2.1109,-2.1109,-2.1109,-2.1109,-2.1109,0.0,0.0,0.0,0.0,0.0,-2.1109,-2.1109,-2.1056,-2.053,-2.0277,-2.0144,-1.9679,-1.9481,-1.9372,0.0,0.0,0.0,0.0,0.0,0.0,0.0,-0.6375,-0.6429,-0.6429,-0.6498,-0.6573,-0.6607,-0.6498,-0.6457,-0.6484,-0.6429,0.0,0.0,0.0,0.0,0.0,0.0,0.0,0.0,-0.6593,-0.6702,-0.6702,-0.683,-0.6979,-0.7092,-0.7045,-0.7045,-0.7098,-0.7098,-0.7098,0.0,0.0,0.0,0.0,0.0,0.0,-0.63,0.0,0.0,0.0,0.0,0.0,0.0,0.0,0.0,0.0,0.0,0.0,0.0,0.0,-0.9039,-1.1177,-1.2291,-1.4961,-1.725,-1.6585,-1.5724,-1.4722,-1.3458,-1.2286,-1.136,-1.0967,-1.098,-1.1213,-1.1802,-1.1828,-1.1979,-1.2612,-1.2927,-1.3327,-1.3914,-1.6035,-1.8116,-1.9773,0.0,0.0,0.0,0.0,0.0,0.0,0.0,0.0,0.0,-2.3,-2.284,-2.2733,-2.2619,-2.2445,-2.2151,-2.189,-2.1596,-2.1269,-2.1162,-2.1109,-2.1109,-2.1109,0.0,0.0,0.0,0.0,0.0,-2.1109,-2.1109,-2.1056,-2.0588,-2.0304,-2.0144,-1.9706,-1.9495,-1.933,0.0,0.0,0.0,0.0,0.0,0.0,0.0,-0.63,-0.63,-0.63,-0.63,-0.6347,-0.6464,-0.6381,-0.6354,-0.6464,0.0,0.0,0.0,0.0,0.0,0.0,0.0,0.0,-0.63,-0.6573,-0.6702,-0.6702,-0.6843,-0.697,-0.7092,-0.6964,-0.6992,-0.7098,-0.7098,-0.7092,-0.7071,0.0,0.0,0.0,0.0,0.0,0.0,0.0,0.0,0.0,0.0,0.0,0.0,0.0,0.0,0.0,0.0,0.0,0.0,0.0,0.0,0.0,0.0,-1.3511,-1.511,-1.4858,-1.4148,-1.3314,-1.2619,-1.1642,0.0,-1.0886,-1.109,-1.1393,-1.1793,-1.1721,-1.1694,-1.1957,-1.2243,-1.2639,-1.3207,-1.5391,0.0,0.0,-2.143,0.0,0.0,0.0,0.0,0.0,0.0,0.0,0.0,-2.2893,-2.276,-2.2398,-2.2686,-2.2706,-2.2365,-2.2071,-2.1823,-2.1555,-2.1243,-2.1109,-2.1109,-2.1109,0.0,0.0,0.0,0.0,0.0,-2.1109,-2.1109,-2.1082,-2.0762,-2.0481,-2.017,-1.988,-1.9599,-1.933,0.0,0.0,0.0,0.0,0.0,0.0,0.0,0.0,0.0,0.0,-0.63,-0.6313,-0.6347,-0.632,-0.6313,0.0,0.0,0.0,0.0,0.0,0.0,0.0,0.0,0.0,-0.63,-0.6573,-0.6702,-0.6702,-0.6938,-0.7065,-0.7098,-0.7065,-0.7065,-0.7098,-0.7098,-0.7038,-0.6951,-0.6924,0.0,0.0,0.0,0.0,0.0,0.0,0.0,0.0,-0.63,-0.63,0.0,0.0,0.0,0.0,0.0,0.0,0.0,0.0,-0.7242,-0.8346,-0.8333,0.0,-1.1151,-1.1683,-1.1193,-1.0676,0.0,-1.0977,-1.0869,-1.0696,-1.085,-1.1126,-1.1593,-1.1632,-1.1873,-1.2747,-1.3333,-1.3801,-1.4141,-1.7021,0.0,-2.1376,-2.302,0.0,0.0,0.0,0.0,0.0,0.0,0.0,0.0,-2.2893,-2.276,-2.2398,-2.2485,-2.2271,-2.1796,-2.147,-2.1283,-2.1216,-2.1149,-2.1109,-2.1109,-2.1109,0.0,0.0,0.0,0.0,-2.1109,-2.1109,-2.1109,-2.1056,-2.0504,-2.0264,-2.0144,-1.9653,-1.9455,-1.933,0.0,0.0,0.0,0.0,0.0,0.0,0.0,0.0,0.0,0.0,0.0,-0.63,-0.63,-0.63,0.0,0.0,0.0,0.0,0.0,0.0,0.0,0.0,0.0,-0.6429,-0.6484,-0.6688,-0.6782,-0.6782,-0.6945,-0.7031,-0.7092,-0.7031,-0.7038,-0.7098,-0.7098,-0.6999,-0.6803,-0.6803,-0.6654,0.0,-0.6416,0.0,0.0,0.0,0.0,0.0,-0.63,-0.63,0.0,-0.63,-0.63,-0.63,0.0,0.0,0.0,0.0,-0.7072,-0.7832,-0.7409,-0.8418,-0.973,-1.0225,-1.0013,-0.9912,-1.0778,-1.1024,-1.1042,-1.0831,-1.0984,-1.1232,-1.1543,-1.1629,-1.1952,-1.2873,-1.3634,-1.4616,0.0,0.0,-2.0588,-2.2224,-2.3487,0.0,0.0,0.0,0.0,0.0,0.0,0.0,0.0,-2.2659,-2.2458,-2.2031,-2.2017,-2.1937,-2.1783,-2.1489,-2.1341,-2.1341,-2.1176,-2.1109,-2.1109,-2.1109,0.0,0.0,0.0,0.0,-2.1109,-2.1109,-2.1109,-2.1082,-2.0731,-2.0437,-2.0157,-1.988,-1.9629,-1.9343,0.0,0.0,0.0,0.0,0.0,0.0,0.0,0.0,0.0,0.0,0.0,0.0,0.0,0.0,0.0,0.0,0.0,0.0,0.0,0.0,0.0,0.0,-0.66,-0.6566,-0.6695,-0.683,-0.6904,-0.6904,-0.6904,-0.6972,-0.7058,-0.6938,-0.6951,-0.7065,-0.7038,-0.6911,-0.6702,-0.6675,-0.6532,-0.63,-0.63,0.0,0.0,0.0,0.0,0.0,0.0,0.0,0.0,-0.63,-0.63,-0.63,-0.63,0.0,0.0,0.0,0.0,0.0,-0.7499,-0.8496,-0.9598,-0.9761,-0.9845,-1.0143,-1.113,-1.1334,-1.1267,-1.1068,-1.1218,-1.1477,-1.1723,-1.1825,-1.2177,-1.3073,-1.3994,0.0,-1.8234,-1.9644,-2.0992,-2.2586,0.0,0.0,0.0,0.0,0.0,0.0,0.0,0.0,0.0,-2.2352,-2.2111,-2.1609,-2.1582,-2.1676,-2.1844,-2.1636,-2.1515,-2.1515,-2.1229,-2.1109,-2.1109,-2.1109,-2.1109,0.0,0.0,0.0,-2.1109,-2.1109,-2.1077,-2.1014,-2.0974,-2.0584,-2.0076,-2.0006,-1.9678,-1.9156,0.0,0.0,0.0,0.0,0.0,0.0,0.0,0.0,0.0,0.0,0.0,0.0,0.0,0.0,0.0,0.0,0.0,0.0,0.0,0.0,0.0,-0.7018,-0.6688,-0.6566,-0.6695,-0.683,-0.6904,-0.6904,-0.6904,-0.6918,-0.6938,-0.6782,-0.6796,-0.6931,-0.6803,-0.6742,-0.6695,-0.658,-0.643,-0.63,-0.63,0.0,0.0,0.0,0.0,0.0,0.0,0.0,0.0,-0.63,-0.63,-0.63,-0.63,0.0,0.0,0.0,0.0,0.0,-0.7499,-0.8402,-0.9439,-0.9789,-1.007,-1.0379,-1.1004,-1.1267,-1.1335,-1.1131,-1.1248,-1.1615,-1.2317,-1.2652,-1.3273,-1.4767,-1.6108,-1.7499,0.0,0.0,-2.1457,-2.2051,0.0,0.0,0.0,0.0,0.0,0.0,0.0,0.0,0.0,0.0,-2.193,-2.1596,-2.1582,-2.1489,-2.1243,-2.1203,-2.1176,-2.1176,-2.1136,-2.1109,-2.1109,-2.1109,-2.1109,0.0,0.0,-2.1109,-2.1109,-2.1109,-2.0919,-2.0652,-2.0435,-1.998,-1.9411,-1.9107,-1.8813,-1.8515,0.0,0.0,0.0,0.0,0.0,0.0,0.0,0.0,0.0,0.0,0.0,0.0,0.0,0.0,0.0,0.0,0.0,0.0,0.0,0.0,-0.6809,-0.7085,-0.685,-0.679,-0.6911,-0.6985,-0.706,-0.717,-0.717,-0.7122,-0.6997,-0.6789,-0.6762,-0.6897,-0.677,-0.6702,-0.6688,-0.6559,-0.6429,-0.63,0.0,0.0,0.0,0.0,0.0,0.0,0.0,0.0,0.0,0.0,-0.63,-0.63,-0.63,0.0,0.0,0.0,0.0,0.0,-0.7499,-0.8647,-0.9925,-1.0256,-1.0369,-1.0568,-1.1184,-1.127,-1.1247,-1.131,-1.1392,-1.1733,-1.2658,-1.3147,-1.417,-1.6381,-1.7781,-1.895,-1.9952,-2.0851,-2.1632,0.0,0.0,0.0,0.0,0.0,0.0,0.0,0.0,0.0,0.0,0.0,-2.1649,-2.1355,-2.1341,-2.1243,-2.1109,-2.1109,-2.1109,-2.1109,-2.1109,-2.1109,-2.1109,-2.1109,-2.1109,-2.1109,0.0,-2.1014,-2.0824,-2.0824,-2.0647,-2.0316,-2.0188,-1.9894,-1.9476,-1.9,-1.8639,-1.8365,0.0,0.0,0.0,0.0,0.0,0.0,0.0,0.0,0.0,0.0,0.0,0.0,0.0,0.0,0.0,0.0,0.0,0.0,0.0,0.0,-0.6884,-0.7085,-0.6991,-0.6984,-0.7092,-0.7154,-0.7251,-0.7396,-0.7396,-0.7258,-0.7012,-0.6736,-0.6675,-0.6796,-0.6668,-0.6614,-0.6634,-0.6505,-0.6402,-0.63,0.0,0.0,0.0,0.0,0.0,0.0,0.0,0.0,0.0,0.0,0.0,0.0,0.0,0.0,0.0,-0.6226,-0.6793,-0.7472,-0.7681,-0.899,-1.0372,-1.072,-1.0854,-1.1109,-1.1888,-1.1894,-1.1858,-1.2268,-1.2304,-1.2535,-1.3496,-1.4328,-1.5519,-1.7497,-1.8879,-1.9964,-2.0688,-2.1237,0.0,0.0,0.0,0.0,0.0,0.0,0.0,0.0,0.0,0.0,0.0,0.0,-2.1349,-2.0996,-2.1046,-2.1109,-2.1109,-2.1109,-2.1109,-2.1109,-2.1109,-2.1109,-2.1109,-2.1109,-2.1109,-2.1109,-2.1109,-2.0919,-2.0602,-2.0602,-2.0361,-1.9979,-1.9979,-1.977,-1.9374,-1.8809,-1.8446,-1.8242,0.0,0.0,0.0,0.0,0.0,0.0,0.0,0.0,0.0,0.0,0.0,0.0,0.0,0.0,0.0,0.0,0.0,0.0,0.0,0.0,-0.7071,-0.7092,-0.7085,-0.7085,-0.7098,-0.7278,-0.7382,-0.7396,-0.7396,-0.7172,-0.6722,-0.645,-0.6409,-0.6518,-0.6395,-0.6402,-0.6498,-0.6375,-0.6306,-0.63,-0.63,0.0,0.0,0.0,0.0,0.0,0.0,0.0,0.0,0.0,0.0,0.0,0.0,0.0,-0.6025,-0.6025,-0.6596,-0.7395,-0.8208,-0.9349,-1.0412,-1.0943,-1.1634,-1.2424,-1.3497,-1.3725,-1.3918,-1.469,-1.463,-1.4728,-1.5541,-1.7001,-1.7943,-1.7606,-1.9117,-2.0426,-2.077,0.0,0.0,0.0,0.0,0.0,0.0,0.0,0.0,0.0,0.0,0.0,0.0,0.0,0.0,-2.0634,-2.0951,-2.1109,-2.1109,-2.1109,-2.1109,-2.1109,-2.1109,-2.1109,-2.1109,-2.1109,-2.1109,-2.1109,-2.1109,-2.0919,-2.0602,-2.0602,-2.0221,-1.9647,-1.9647,-1.9296,-1.8719,-1.8161,-1.7967,-1.7901,0.0,0.0,0.0,0.0,0.0,0.0,0.0,0.0,0.0,0.0,0.0,0.0,0.0,0.0,0.0,0.0,0.0,0.0,0.0,-0.6958,-0.7098,-0.7098,-0.7098,-0.7098,-0.7098,-0.7175,-0.7202,-0.7202,-0.7136,-0.6959,-0.6695,-0.6416,-0.6375,-0.6484,-0.6361,-0.6381,-0.6484,-0.6361,-0.63,-0.63,-0.63,-0.63,0.0,0.0,0.0,0.0,0.0,0.0,0.0,0.0,-0.63,-0.63,-0.63,-0.6152,-0.6086,-0.6544,-0.6926,-0.7481,-0.8785,-0.9937,-1.0998,-1.188,-1.2711,-1.3304,-1.3376,-1.3906,-1.4594,-1.5221,-1.5535,-1.5876,-1.653,-1.7571,-1.8367,-1.8482,-1.9674,-2.0605,0.0,0.0,0.0,0.0,0.0,0.0,0.0,0.0,0.0,0.0,0.0,0.0,0.0,0.0,0.0,-2.0297,-2.0425,-2.0488,-2.0488,-2.0666,-2.0792,-2.0792,-2.1014,-2.1109,-2.1109,-2.1109,-2.0982,-2.0792,-2.0792,-2.0475,-1.9966,-1.9966,-1.9711,-1.9272,-1.9113,-1.8799,-1.842,-1.8215,-1.8131,-1.8118,0.0,0.0,0.0,0.0,0.0,0.0,0.0,0.0,0.0,0.0,0.0,0.0,0.0,0.0,0.0,0.0,0.0,0.0,-0.6695,-0.6911,-0.7051,-0.7092,-0.7098,-0.7071,-0.7031,-0.7031,-0.7051,-0.7098,-0.6931,-0.6782,-0.6695,-0.6416,-0.6354,-0.6443,-0.634,-0.6307,-0.6348,-0.632,-0.6272,-0.6212,-0.6279,-0.63,0.0,0.0,0.0,0.0,0.0,0.0,0.0,0.0,-0.6474,-0.6614,-0.6296,-0.6416,-0.672,-0.6995,-0.7443,-0.8116,-0.9257,-1.0448,-1.1539,-1.2358,-1.3314,-1.4063,-1.4196,-1.4798,-1.5584,-1.6453,-1.694,-1.723,-1.7322,-1.7865,-1.8408,0.0,-1.9757,-2.0483,0.0,0.0,0.0,0.0,0.0,0.0,0.0,0.0,0.0,0.0,0.0,0.0,0.0,0.0,0.0,0.0,-1.9954,-2.0017,-2.0106,-2.0181,-2.0223,-2.0314,-2.0461,-2.0671,-2.0951,-2.0951,-2.0761,-2.0456,-2.0456,-2.0125,-1.9603,-1.9516,-1.924,-1.8838,-1.8669,-1.8444,-1.8287,-1.8191,-1.8155,-1.8143,0.0,0.0,0.0,0.0,0.0,0.0,0.0,0.0,0.0,0.0,0.0,0.0,0.0,0.0,0.0,0.0,0.0,0.0,-0.6695,-0.6823,-0.695,-0.7092,-0.7098,-0.7031,-0.6911,-0.6904,-0.6972,-0.7092,-0.6823,-0.6695,-0.6688,-0.6416,-0.63,-0.63,-0.63,-0.6192,-0.6018,-0.6212,-0.6192,-0.6025,-0.6219,-0.63,-0.63,0.0,0.0,0.0,0.0,0.0,0.0,0.0,-0.6834,-0.7314,-0.6322,-0.6981,-0.7956,-0.722,-0.8088,-0.9341,-0.9652,-1.0789,-1.1958,-1.2243,-1.3326,-1.4727,-1.6344,-1.6706,-1.7153,-1.8778,-1.9116,-1.8874,-1.8064,-1.8149,-1.83,-1.83,-1.9193,0.0,0.0,0.0,0.0,0.0,0.0,0.0,0.0,0.0,0.0,0.0,0.0,0.0,0.0,0.0,0.0,0.0,-1.9657,-1.9801,-2.0062,-1.9565,-1.9425,-1.9692,-1.9412,-1.9763,-2.0602,-2.0602,-2.0425,-2.0106,-2.0106,-1.9903,-1.9578,-1.9318,-1.8827,-1.8287,-1.8287,-1.8287,-1.8251,-1.8004,-1.7907,-1.7871,0.0,0.0,0.0,0.0,0.0,0.0,0.0,0.0,0.0,0.0,0.0,0.0,0.0,0.0,0.0,0.0,0.0,0.0,-0.683,-0.6979,-0.7051,-0.7092,-0.7098,-0.7078,-0.7038,-0.685,-0.6736,-0.6668,-0.66,-0.6512,-0.6409,-0.634,-0.6219,-0.6079,-0.6079,-0.5991,-0.5863,-0.6018,-0.6052,-0.6025,-0.6219,-0.63,-0.63,0.0,0.0,0.0,0.0,0.0,0.0,0.0,0.0,0.0,-0.6989,-0.7427,-0.8062,-0.785,-0.7825,-0.8346,-1.0409,-1.1147,-1.1704,-1.3319,-1.457,-1.5692,-1.6742,-1.6972,-1.7322,-1.8553,-1.9285,-1.9431,-1.862,-1.8838,-1.9032,-1.8625,0.0,0.0,0.0,0.0,0.0,0.0,0.0,0.0,0.0,0.0,0.0,0.0,0.0,0.0,0.0,0.0,0.0,0.0,-1.8692,-1.8754,-1.884,-1.8914,-1.8999,-1.9074,-1.9231,-1.9537,-1.9989,-1.9989,-1.9903,-1.9731,-1.9543,-1.9267,-1.8959,-1.8672,-1.8343,-1.8028,-1.8028,-1.7889,-1.7732,-1.7871,-1.7907,-1.7919,0.0,0.0,0.0,0.0,0.0,0.0,0.0,0.0,0.0,0.0,-0.63,-0.63,0.0,0.0,0.0,0.0,0.0,0.0,0.0,-0.6985,-0.7038,-0.7092,-0.7098,-0.7045,-0.6945,-0.6729,-0.6559,-0.6429,-0.6429,-0.6381,-0.63,-0.6361,-0.6287,-0.6125,-0.6179,-0.6091,-0.5883,-0.6057,-0.6066,-0.6025,-0.6219,-0.63,-0.63,0.0,0.0,0.0,0.0,0.0,0.0,0.0,0.0,0.0,-0.767,-0.8152,-0.8668,-0.8722,-0.8848,-0.9367,-1.1183,-1.1942,-1.2609,-1.4205,-1.5415,-1.6416,-1.7213,-1.7817,-1.8475,-1.9334,-1.9721,-1.9772,-1.9418,-1.9261,0.0,-1.9044,0.0,0.0,0.0,0.0,0.0,0.0,0.0,0.0,0.0,0.0,0.0,0.0,0.0,0.0,0.0,0.0,0.0,0.0,-1.8209,-1.8179,-1.83,-1.8282,-1.8354,-1.8453,-1.8523,-1.8731,-1.9006,-1.9242,-1.9256,-1.9061,-1.8901,-1.8673,-1.8379,-1.8221,-1.7962,-1.775,-1.775,-1.7653,-1.7532,-1.7689,-1.775,-1.7774,0.0,0.0,0.0,0.0,0.0,0.0,0.0,0.0,0.0,0.0,-0.6261,-0.6287,0.0,0.0,0.0,0.0,0.0,0.0,0.0,0.0,-0.6964,-0.7092,-0.7085,-0.6965,-0.6709,-0.6573,-0.6443,-0.63,-0.63,-0.63,-0.6306,-0.6429,-0.6416,-0.6286,-0.6382,-0.6261,-0.5998,-0.6178,-0.6165,-0.6025,-0.6199,-0.6286,-0.63,-0.6286,0.0,0.0,0.0,0.0,0.0,0.0,0.0,0.0,-0.8384,-0.9012,-0.95,-0.9659,-1.0466,-1.1428,-1.1862,-1.2841,-1.3992,-1.4967,-1.6091,-1.7153,-1.7943,-1.908,-2.0026,-2.041,-2.0204,-2.0011,-2.0168,-1.941,-1.8939,0.0,0.0,0.0,0.0,0.0,0.0,0.0,0.0,0.0,0.0,0.0,0.0,0.0,0.0,0.0,0.0,0.0,0.0,0.0,-1.8004,-1.7992,-1.8215,-1.7732,-1.7629,0.0,-1.7629,-1.7641,-1.7883,-1.8453,-1.8557,-1.8251,-1.8251,-1.8094,-1.7871,-1.7871,-1.7726,-1.7508,-1.7508,-1.7508,-1.7508,-1.7508,-1.7508,-1.7508,0.0,0.0,0.0,0.0,0.0,0.0,0.0,0.0,0.0,0.0,0.0,0.0,0.0,0.0,0.0,0.0,0.0,0.0,0.0,0.0,-0.7065,-0.7092,-0.6991,-0.687,-0.6702,-0.6573,-0.6443,-0.63,-0.63,-0.63,-0.63,-0.6334,-0.6246,-0.6059,-0.5989,-0.5908,-0.5854,-0.5888,-0.5949,-0.5993,-0.6045,-0.6152,-0.6286,-0.6125,-0.6152,0.0,0.0,0.0,0.0,0.0,0.0,0.0,-0.9137,-0.9396,-0.9395,-0.9634,-0.9848,-1.0385,-1.2061,-1.2572,-1.3201,-1.5458,-1.7484,-1.9056,-1.966,-2.0023,-1.9963,-1.9,-1.9543,-2.0047,-1.9467,-1.9495,-1.9531,0.0,0.0,0.0,0.0,0.0,0.0,0.0,0.0,0.0,0.0,0.0,0.0,0.0,0.0,0.0,0.0,0.0,0.0,-1.7689,-1.7629,-1.7599,-1.766,-1.7569,-1.7544,0.0,-1.7532,-1.7544,-1.7605,-1.7931,-1.8052,-1.7992,-1.7992,-1.7847,-1.7593,-1.7593,-1.7569,-1.7508,-1.7508,-1.7508,-1.7508,-1.7508,-1.7508,-1.7508,0.0,0.0,0.0,0.0,0.0,0.0,0.0,0.0,0.0,0.0,0.0,0.0,0.0,0.0,0.0,0.0,0.0,0.0,0.0,0.0,-0.701,-0.7098,-0.6911,-0.6783,-0.6702,-0.6505,-0.6375,-0.63,-0.63,-0.6334,-0.6402,-0.6402,-0.6335,-0.624,-0.6159,-0.6103,-0.6035,-0.5942,-0.5937,-0.5986,-0.593,-0.5969,-0.6049,-0.5949,-0.5969,-0.6049,-0.5949,0.0,0.0,0.0,0.0,0.0,0.0,0.0,-0.9077,-0.9934,-1.0428,-1.1004,-1.2335,-1.297,-1.3837,-1.6282,-1.8113,-1.9418,-1.983,-1.9926,-1.9721,-1.9032,-1.9443,-1.9793,-1.937,-1.9418,0.0,0.0,0.0,0.0,0.0,0.0,0.0,0.0,0.0,0.0,0.0,0.0,0.0,0.0,0.0,0.0,0.0,-1.7714,-1.7653,-1.7491,-1.7508,-1.7508,-1.7508,-1.7508,-1.7508,-1.7508,-1.7358,-1.7298,-1.7327,-1.7593,-1.7714,-1.7714,-1.7714,-1.7641,-1.7508,-1.7508,-1.7508,-1.7508,-1.7508,-1.7508,-1.7508,-1.7508,-1.7508,-1.7508,0.0,0.0,0.0,0.0,0.0,0.0,0.0,0.0,0.0,0.0,0.0,0.0,0.0,0.0,0.0,0.0,0.0,0.0,0.0,0.0,0.0,-0.7014,-0.6802,-0.6688,-0.6661,-0.6416,-0.63,-0.63,-0.63,-0.6416,-0.6607,-0.6505,-0.6477,-0.6457,-0.643,-0.6362,-0.6286,-0.6079,-0.6025,-0.6039,-0.5874,-0.582,-0.5833,-0.5786,-0.5851,-0.5979,-0.5951,-0.6417,-0.7062,-0.7247,0.0,0.0,0.0,0.0,-0.8899,-1.0293,-1.1171,-1.1822,-1.2388,-1.3483,-1.4932,-1.7,-1.8246,-1.9068,-1.9418,-1.9431,-1.9394,-1.9479,-1.9467,-1.9431,-1.9431,-1.9249,0.0,0.0,0.0,0.0,0.0,0.0,0.0,0.0,0.0,0.0,0.0,0.0,0.0,0.0,0.0,0.0,-1.7448,-1.7399,-1.7346,-1.7346,-1.7346,-1.7346,-1.7346,-1.7346,-1.7399,-1.7436,-1.7201,-1.7068,-1.7032,-1.7249,-1.7394,-1.7508,-1.7508,-1.7508,-1.7508,-1.7508,-1.7508,-1.7508,-1.7508,-1.7508,-1.7508,-1.7508,-1.7508,-1.7508,0.0,0.0,0.0,0.0,0.0,0.0,0.0,0.0,0.0,0.0,-0.574,-0.585,0.0,0.0,0.0,0.0,0.0,0.0,0.0,0.0,0.0,-0.6673,-0.6685,-0.6641,-0.6525,-0.6381,-0.63,-0.63,-0.63,-0.6552,-0.7019,-0.6546,-0.6327,-0.632,-0.6146,-0.6152,-0.6286,-0.6079,-0.6105,-0.6245,-0.5915,-0.5863,-0.5951,-0.5711,-0.6095,-0.6732,-0.6557,-0.6958,-0.7609,-0.7697,-0.755,0.0,0.0,0.0,-0.938,-1.0396,-1.0773,-1.1026,-1.1798,-1.3461,-1.5403,-1.7068,-1.798,-1.8589,-1.9334,-1.9152,-1.8947,-1.9406,-1.9322,-1.9165,-1.9165,0.0,0.0,0.0,0.0,0.0,0.0,0.0,0.0,0.0,0.0,0.0,0.0,0.0,0.0,0.0,0.0,0.0,-1.7141,-1.6923,-1.6803,-1.6803,-1.6803,-1.6803,-1.6803,-1.6803,-1.6923,-1.7141,-1.7105,-1.6972,-1.6754,-1.6791,-1.7056,-1.7508,-1.7508,-1.7508,-1.7508,-1.7508,-1.7508,-1.7508,-1.7508,-1.7508,-1.7508,-1.7508,-1.7508,-1.7508,0.0,0.0,0.0,0.0,0.0,0.0,0.0,0.0,0.0,0.0,0.0,-0.5724,0.0,0.0,0.0,0.0,0.0,0.0,0.0,0.0,0.0,-0.6604,-0.6591,-0.6559,-0.6491,-0.6375,-0.63,-0.63,-0.63,-0.6539,-0.697,-0.6756,-0.677,-0.7022,-0.6654,-0.6505,-0.6512,-0.628,-0.6146,-0.6143,-0.6222,-0.6363,-0.653,-0.618,-0.6618,-0.7268,-0.6282,-0.6622,-0.7432,-0.678,-0.6689,-0.7026,-0.8079,0.0,0.0,0.0,-1.0689,-1.1099,-1.1906,-1.3375,-1.4932,-1.6079,-1.6996,-1.7793,-1.8463,-1.8548,-1.8529,-1.879,-1.8722,-1.8717,0.0,0.0,0.0,0.0,0.0,0.0,0.0,0.0,0.0,0.0,0.0,0.0,0.0,0.0,0.0,0.0,0.0,-1.7092,-1.7092,-1.6839,-1.6706,-1.6706,-1.6706,-1.6706,-1.6706,-1.6706,-1.6682,-1.6646,-1.6791,-1.673,-1.6477,-1.6634,-1.6827,-1.7056,-1.7201,-1.729,-1.7303,-1.7448,-1.7508,-1.7508,-1.7508,-1.7508,-1.7508,-1.7508,-1.7508,-1.7508,0.0,0.0,0.0,0.0,0.0,0.0,0.0,0.0,0.0,0.0,0.0,0.0,0.0,0.0,0.0,0.0,0.0,0.0,0.0,0.0,0.0,-0.6389,-0.6471,-0.6451,-0.6357,-0.6256,-0.6203,-0.6203,-0.6203,-0.6485,-0.7019,-0.7019,-0.7319,-0.7801,-0.7278,-0.6912,-0.6688,-0.6484,-0.6301,-0.6168,-0.6577,-0.6869,-0.704,-0.6907,-0.7415,-0.7986,-0.6538,0.0,0.0,0.0,-0.6069,-0.6564,-0.7447,-0.8073,0.0,0.0,0.0,-1.1255,-1.199,-1.2988,-1.4014,-1.4956,-1.5849,-1.6682,-1.7436,-1.7744,-1.795,-1.8143,-1.8131,-1.8167,0.0,0.0,0.0,0.0,0.0,0.0,0.0,0.0,0.0,0.0,0.0,0.0,0.0,0.0,0.0,0.0,0.0,-1.6916,-1.6916,-1.6634,-1.6489,-1.6489,-1.6489,-1.6489,-1.6489,-1.6561,-1.6465,-1.6214,-1.6465,-1.6453,-1.6214,-1.6404,-1.6489,-1.6513,-1.6851,-1.7032,-1.7105,-1.7327,-1.7448,-1.7508,-1.7508,-1.7508,-1.7508,-1.7508,-1.7508,-1.7508,0.0,0.0,0.0,0.0,0.0,0.0,0.0,0.0,0.0,0.0,0.0,0.0,-0.568,-0.5708,-0.5691,-0.5691,0.0,0.0,0.0,0.0,0.0,-0.586,-0.6257,0.0,-0.5931,-0.5925,-0.5918,-0.5918,-0.5918,-0.6422,-0.7369,-0.7369,-0.7763,-0.843,-0.7695,-0.7131,-0.6702,-0.6681,-0.6607,-0.6523,-0.6987,-0.7188,-0.7263,-0.7869,-0.8569,-0.9093,0.0,0.0,0.0,0.0,0.0,0.0,0.0,-0.8452,-0.9425,0.0,0.0,0.0,-1.1774,-1.2147,-1.2735,-1.4039,-1.4606,-1.5185,-1.6465,-1.6767,-1.6996,-1.7774,-1.7726,-1.7612,0.0,0.0,0.0,0.0,0.0,0.0,0.0,0.0,0.0,0.0,0.0,0.0,0.0,0.0,0.0,0.0,0.0,-1.6347,-1.6347,-1.6105,-1.5934,-1.5934,-1.5934,-1.5934,-1.5934,-1.6199,-1.6187,-1.591,-1.6202,-1.619,-1.591,-1.5948,-1.5934,-1.5958,-1.6489,-1.6863,-1.7092,-1.7105,-1.7261,-1.7508,-1.7508,-1.7508,-1.7508,-1.7508,-1.7508,-1.7508,0.0,0.0,0.0,0.0,0.0,0.0,0.0,0.0,0.0,0.0,0.0,0.0,0.0,-0.6041,-0.5952,-0.5952,-0.5879,0.0,0.0,0.0,0.0,-0.5816,-0.6166,-0.623,-0.5906,-0.5899,-0.5899,-0.5899,-0.5899,-0.6316,-0.7088,-0.7088,-0.7387,-0.7909,-0.7733,-0.7516,-0.7258,-0.6951,-0.6756,-0.6722,-0.7838,-0.8298,-0.8358,-0.8933,-0.9593,0.0,0.0,0.0,0.0,0.0,0.0,0.0,0.0,0.0,-0.9522,-1.0621,-1.0673,-1.0477,-1.1194,-1.1701,-1.2195,-1.2846,-1.3495,-1.4087,-1.4763,-1.5439,-1.6006,-1.6296,-1.6682,0.0,0.0,0.0,0.0,0.0,0.0,0.0,0.0,0.0,0.0,0.0,0.0,0.0,0.0,0.0,0.0,0.0,0.0,0.0,-1.6311,-1.6057,-1.5885,-1.5885,-1.5885,-1.5813,-1.5644,-1.5572,-1.5572,-1.5644,-1.5728,-1.5813,-1.5885,-1.5885,-1.5885,-1.5897,-1.6091,-1.6429,-1.6851,-1.702,-1.7278,-1.7508,-1.7508,-1.7508,-1.7508,-1.7508,-1.7508,-1.7508,0.0,0.0,0.0,0.0,0.0,0.0,0.0,0.0,0.0,-0.6656,0.0,0.0,0.0,0.0,-0.6132,-0.6132,-0.6085,-0.5979,-0.5787,-0.5963,-0.6,-0.583,-0.5982,-0.5944,-0.5705,-0.5705,-0.5725,-0.5809,-0.5809,-0.6158,-0.683,-0.6884,-0.7148,-0.7604,-0.7645,-0.7611,-0.7502,-0.7204,-0.7132,-0.734,-0.8541,-0.9041,-0.9131,-0.9901,0.0,0.0,0.0,0.0,0.0,0.0,0.0,0.0,0.0,0.0,0.0,-1.0379,-1.0312,-1.0086,-1.0881,-1.1352,-1.1713,-1.2075,-1.2569,-1.3075,-1.3521,-1.4401,-1.5125,-1.5209,-1.5873,0.0,0.0,0.0,0.0,0.0,0.0,0.0,0.0,0.0,0.0,0.0,0.0,0.0,0.0,0.0,0.0,0.0,0.0,0.0,-1.6045,-1.596,-1.5849,-1.5765,-1.5765,-1.5632,-1.5366,-1.5197,-1.5234,-1.5499,-1.5499,-1.5632,-1.5885,-1.5885,-1.5885,-1.5885,-1.5885,-1.6199,-1.6718,-1.6887,-1.7165,-1.7508,-1.7508,-1.7508,-1.7508,-1.7508,-1.7508,-1.7508,0.0,0.0,0.0,0.0,0.0,0.0,0.0,0.0,-0.6643,-0.6792,0.0,0.0,0.0,0.0,0.0,-0.6175,-0.6299,-0.6339,-0.6282,-0.6098,-0.5964,-0.589,0.0,0.0,-0.5298,-0.5298,-0.5401,-0.5601,-0.5601,-0.5993,-0.6695,-0.6823,-0.7134,-0.7584,-0.7473,-0.7412,-0.7396,-0.7389,-0.7723,-0.8331,-0.903,-0.9316,-0.9485,0.0,0.0,0.0,-0.8898,-0.8566,0.0,-0.7154,0.0,0.0,0.0,0.0,0.0,0.0,0.0,-1.0048,0.0,0.0,0.0,-1.1749,-1.1882,-1.2087,-1.2839,-1.3642,-1.4304,-1.4581,-1.528,0.0,0.0,0.0,0.0,0.0,0.0,0.0,0.0,0.0,0.0,0.0,0.0,0.0,0.0,0.0,0.0,0.0,0.0,-1.5753,-1.5499,-1.5728,-1.5753,-1.5499,-1.5475,-1.5354,-1.5101,-1.5101,-1.5234,-1.5487,-1.5499,-1.5632,-1.5885,-1.5885,-1.5885,-1.5885,-1.5885,-1.6199,-1.6682,-1.6682,-1.6996,-1.7496,-1.7496,-1.7479,-1.7508,-1.7508,-1.7508,-1.7508,0.0,0.0,0.0,0.0,0.0,0.0,-0.6897,-0.6767,-0.6712,0.0,0.0,0.0,-0.6694,-0.6269,-0.5911,-0.5701,-0.5735,-0.5673,-0.5515,-0.5643,-0.5627,-0.5473,-0.5555,-0.5498,-0.5298,-0.544,-0.5537,-0.5601,-0.575,-0.6074,-0.6552,-0.66,-0.6837,-0.7265,-0.7908,-0.7893,-0.7389,-0.7251,-0.7351,-0.7737,-0.8702,-0.9557,0.0,0.0,0.0,0.0,0.0,-0.9848,-0.9161,0.0,-0.9109,-0.9318,0.0,0.0,0.0,0.0,0.0,0.0,-1.0713,0.0,0.0,0.0,0.0,0.0,0.0,-1.2037,-1.2877,-1.2955,-1.3903,0.0,0.0,0.0,0.0,0.0,0.0,0.0,0.0,0.0,0.0,0.0,0.0,0.0,0.0,0.0,0.0,0.0,-1.5318,-1.5294,-1.5221,-1.5282,-1.5294,-1.5221,-1.5003,-1.4896,-1.4798,-1.4798,-1.4956,-1.5221,-1.5403,-1.5632,-1.5885,-1.5885,-1.5885,-1.5885,-1.5885,-1.6079,-1.6392,-1.6392,-1.6746,-1.7201,-1.7201,-1.7322,-1.7508,-1.7508,-1.7508,-1.7508,0.0,0.0,0.0,0.0,0.0,-0.6904,-0.6904,-0.6776,-0.6756,0.0,0.0,0.0,-0.6736,-0.6461,-0.6142,-0.5815,-0.5825,-0.5797,-0.5697,-0.5612,-0.5526,-0.5459,-0.5401,-0.5285,-0.5168,-0.5382,-0.5561,-0.572,-0.5936,-0.6258,-0.6661,-0.662,-0.6803,-0.7253,-0.7716,-0.793,-0.7966,-0.7848,-0.7907,-0.8191,-0.9569,0.0,0.0,-1.1565,-1.1487,0.0,0.0,0.0,-0.9309,-0.9814,-0.9954,0.0,0.0,0.0,0.0,0.0,0.0,0.0,0.0,0.0,-1.1087,0.0,0.0,0.0,-1.0748,-1.1427,-1.2198,0.0,0.0,0.0,0.0,0.0,0.0,0.0,0.0,0.0,0.0,0.0,0.0,0.0,0.0,0.0,0.0,0.0,0.0,-1.5113,-1.5113,-1.5113,-1.5113,-1.4979,-1.4919,-1.4919,-1.4774,-1.4642,-1.4545,-1.4545,-1.4678,-1.4944,-1.5209,-1.5475,-1.5728,-1.5837,-1.5885,-1.5885,-1.5885,-1.5982,-1.6115,-1.6115,-1.6529,-1.7092,-1.7092,-1.7249,-1.7508,-1.7508,-1.7508,-1.7508,0.0,0.0,-0.7045,-0.7045,-0.6979,-0.6904,-0.6904,-0.6803,-0.6776,0.0,-0.691,-0.6824,-0.6645,-0.6661,-0.6565,-0.6208,-0.6184,-0.622,-0.6292,-0.5784,-0.5548,-0.5663,-0.527,-0.5036,-0.5036,-0.5283,-0.5578,-0.5939,-0.6181,-0.6502,-0.6931,-0.6831,-0.7045,-0.7521,-0.7506,-0.8027,-0.8976,-0.9179,-0.926,-0.9321,-1.0836,-1.1179,0.0,0.0,-1.075,-0.9856,-0.9301,-0.9037,-0.9051,-0.9955,-1.0037,0.0,0.0,0.0,0.0,0.0,-0.9325,0.0,0.0,0.0,0.0,0.0,0.0,0.0,-1.1039,-1.1431,-1.1958,0.0,0.0,0.0,0.0,0.0,0.0,0.0,0.0,0.0,0.0,0.0,0.0,0.0,0.0,0.0,0.0,-1.504,-1.5016,-1.5016,-1.5016,-1.5016,-1.5016,-1.4799,-1.4666,-1.4666,-1.4666,-1.4545,-1.4304,-1.4328,-1.4473,-1.469,-1.4991,-1.527,-1.5511,-1.5765,-1.5885,-1.5885,-1.5885,-1.5885,-1.5885,-1.5885,-1.6332,-1.7008,-1.7008,-1.7177,-1.7472,-1.7472,-1.7455,-1.7508,0.0,-0.683,-0.679,-0.679,-0.6843,-0.6904,-0.6904,-0.6979,-0.7018,-0.7051,-0.6926,-0.6801,-0.6772,-0.6346,-0.6048,-0.5954,-0.5712,-0.5583,-0.5584,-0.5475,-0.5427,-0.5455,-0.5369,-0.5321,-0.5321,-0.5838,-0.6135,-0.6223,-0.6694,-0.6976,-0.7058,-0.7197,-0.7619,-0.8344,-0.942,-0.9949,-1.0109,-1.1616,-1.1566,-1.0417,-0.9999,-1.0205,-1.0731,-1.0935,-1.088,-1.067,-1.0552,-0.9809,-0.9071,-1.0281,-1.0156,-0.9504,0.0,0.0,0.0,0.0,0.0,0.0,0.0,0.0,0.0,0.0,0.0,0.0,-1.0682,-1.0923,-1.1307,0.0,0.0,0.0,0.0,0.0,0.0,0.0,0.0,0.0,0.0,0.0,0.0,0.0,0.0,0.0,0.0,-1.4594,-1.4461,-1.4461,-1.4461,-1.4461,-1.4461,-1.4413,-1.4377,-1.4377,-1.4377,-1.4352,-1.4292,-1.4497,-1.4642,-1.4702,-1.5197,-1.5451,-1.5511,-1.5765,-1.5885,-1.5885,-1.5885,-1.5885,-1.5885,-1.5885,-1.6115,-1.6465,-1.6468,-1.6742,-1.7165,-1.7165,-1.7298,-1.7508,-0.6904,-0.6782,-0.6722,-0.6782,-0.6857,-0.6904,-0.6904,-0.6965,-0.7018,-0.7085,-0.7166,-0.7145,-0.7002,-0.6677,-0.6412,-0.6302,-0.5907,-0.5699,-0.5851,-0.5588,-0.5513,-0.5654,-0.5523,-0.5522,-0.5649,-0.6074,-0.6384,-0.6561,-0.7028,-0.731,-0.7452,-0.8029,-0.849,-0.8904,-1.0071,-1.0716,-1.0935,-1.1589,-1.1462,-1.085,-1.1418,0.0,-1.1878,-1.2214,-1.2354,-1.2291,-1.1817,-1.1221,-1.0626,-1.0415,-1.0347,0.0,0.0,-0.9481,-0.9607,0.0,-0.9917,-1.0665,0.0,0.0,0.0,-1.0326,0.0,0.0,0.0,-0.9777,-0.9995,-1.0285,-1.0655,-1.1075,-1.1588,0.0,0.0,0.0,0.0,0.0,0.0,0.0,0.0,0.0,0.0,0.0,0.0,-1.4377,-1.4292,-1.4292,-1.4292,-1.4292,-1.4292,-1.4292,-1.4292,-1.4292,-1.4292,-1.4292,-1.4292,-1.4437,-1.4509,-1.4509,-1.5052,-1.5306,-1.5318,-1.5716,-1.5885,-1.5885,-1.5885,-1.5885,-1.5885,-1.5885,-1.597,-1.6115,-1.6263,-1.6638,-1.7092,-1.7092,-1.7261,-1.7508,-0.6904,-0.6763,-0.6661,-0.6796,-0.6843,-0.6864,-0.6864,-0.6911,-0.6999,-0.7141,-0.7428,-0.7547,-0.7363,-0.7173,-0.701,-0.6923,-0.6384,-0.6129,-0.6322,-0.5919,-0.5736,-0.5929,-0.5774,-0.5818,-0.6051,-0.6367,-0.6669,-0.694,-0.7336,-0.7604,-0.7832,-0.8753,-0.9263,-0.9424,-1.0403,-1.1144,-1.1596,-1.1114,-1.1024,-1.1364,0.0,-1.3293,-1.2577,-1.3052,-1.3344,-1.3403,-1.2648,-1.239,-1.2189,-1.0713,-1.0585,-1.0818,-0.9507,-0.9904,0.0,0.0,0.0,0.0,0.0,0.0,0.0,0.0,0.0,-0.9151,0.0,0.0,0.0,-0.9189,-0.9457,0.0,0.0,0.0,0.0,0.0,0.0,0.0,0.0,0.0,0.0,0.0,0.0,0.0,0.0,-1.4244,-1.4292,-1.4292,-1.4292,-1.4292,-1.4292,-1.4292,-1.4292,-1.4292,-1.4292,-1.4292,-1.4292,-1.4292,-1.4292,-1.4304,-1.4799,-1.5065,-1.5125,-1.5596,-1.5837,-1.5885,-1.5885,-1.5885,-1.5885,-1.5885,-1.5885,-1.5948,-1.6202,-1.6549,-1.6948,-1.7056,-1.7254,-1.7448,-0.6884,-0.6593,-0.6395,-0.6518,-0.6634,-0.6729,-0.6729,-0.6924,-0.7148,-0.7348,-0.7495,-0.7675,-0.7883,-0.747,-0.7343,-0.7724,-0.7053,0.0,-0.6473,0.0,-0.6173,-0.6086,-0.6265,-0.6455,-0.6616,-0.7108,-0.7391,-0.7435,-0.7767,-0.7885,-0.7807,-0.8749,-0.9505,-1.0139,-1.1235,-1.1903,-1.2109,-1.2044,-1.2304,0.0,-1.3279,-1.2389,0.0,-1.1115,-1.1716,-1.237,-1.2408,-1.239,-1.2297,0.0,-1.0862,-1.0162,0.0,-1.0201,-1.0295,0.0,0.0,0.0,0.0,0.0,0.0,0.0,-0.994,0.0,0.0,0.0,-0.8306,-0.8491,0.0,0.0,0.0,0.0,0.0,0.0,0.0,0.0,0.0,0.0,0.0,0.0,0.0,0.0,0.0,0.0,-1.4292,-1.4292,-1.4292,-1.4292,-1.4292,-1.4292,-1.4292,-1.4292,-1.4292,-1.4292,-1.4292,-1.4292,-1.4292,-1.4304,-1.4593,-1.4858,-1.5113,-1.5415,-1.5668,-1.5885,-1.5885,-1.5885,-1.5885,-1.5885,-1.5885,-1.5948,-1.6202,-1.6347,-1.6456,-1.6911,-1.7117,-1.7165,-0.6782,-0.6525,-0.6375,-0.6586,-0.6661,-0.6756,-0.6911,-0.7337,-0.7628,-0.7631,-0.7909,-0.8255,-0.8642,-0.8086,-0.7924,-0.8588,0.0,-0.7326,0.0,0.0,-0.6912,-0.7014,-0.6924,-0.6923,-0.7111,-0.7262,-0.7439,-0.7669,-0.8603,-0.9084,-0.9231,-1.0907,-1.1668,-1.171,-1.296,-1.3399,-1.3121,-1.2227,-1.2308,0.0,0.0,0.0,0.0,-1.2644,-1.2602,-1.2245,-1.1628,-1.1747,-1.2049,0.0,-1.0776,0.0,0.0,0.0,0.0,0.0,0.0,0.0,0.0,0.0,0.0,0.0,0.0,0.0,-0.7377,0.0,-0.6815,0.0,0.0,0.0,0.0,0.0,0.0,0.0,-0.9607,0.0,0.0,0.0,0.0,0.0,0.0,0.0,0.0,0.0,0.0,0.0,0.0,-1.3845,-1.3845,-1.4135,-1.4292,-1.4292,-1.4292,-1.4292,-1.4292,-1.4292,-1.4292,-1.4304,-1.4739,-1.5004,-1.5125,-1.5535,-1.5789,-1.5885,-1.5885,-1.5885,-1.5885,-1.5885,-1.5885,-1.5948,-1.6202,-1.6311,-1.6359,-1.6718,-1.696,-1.7129,-0.6816,-0.6586,-0.6484,-0.6715,-0.6763,-0.6843,-0.7134,-0.7587,-0.7885,-0.7851,-0.8194,-0.8702,-0.9356,-0.8804,0.0,0.0,-0.8788,-0.8243,0.0,0.0,-0.7585,0.0,0.0,0.0,0.0,-0.7517,-0.7614,-0.7851,-0.8814,-0.9546,-1.0075,-1.1896,-1.2703,-1.2641,-1.3835,-1.4136,-1.3692,-1.2654,-1.2678,-1.3343,-1.2085,-1.2387,-1.37,-1.431,-1.3863,-1.2824,-1.2309,-1.2125,-1.2004,-1.1264,-1.1098,0.0,-1.0536,0.0,0.0,0.0,0.0,0.0,-0.9963,0.0,0.0,0.0,0.0,0.0,0.0,0.0,0.0,0.0,0.0,0.0,0.0,0.0,0.0,0.0,0.0,0.0,0.0,0.0,0.0,0.0,0.0,0.0,0.0,0.0,0.0,0.0,0.0,0.0,-1.3485,-1.3882,-1.4147,-1.4292,-1.4292,-1.4292,-1.4292,-1.4292,-1.4292,-1.4304,-1.469,-1.4968,-1.5125,-1.5499,-1.5753,-1.5885,-1.5885,-1.5885,-1.5885,-1.5885,-1.5885,-1.591,-1.6103,-1.6202,-1.6251,-1.6646,-1.6887,-1.7032,-0.7058,-0.687,-0.6736,-0.687,-0.6897,-0.6999,-0.7342,-0.7509,-0.7712,-0.7973,-0.8174,0.0,0.0,0.0,0.0,0.0,0.0,-0.9319,-0.8817,0.0,-0.7962,0.0,0.0,-0.7895,0.0,0.0,-0.818,-0.7982,-0.8038,-0.8584,-0.9649,-1.0485,-1.141,-1.2359,-1.317,-1.3482,-1.3427,-1.3648,-1.4051,-1.4575,-1.4757,-1.4585,-1.4261,0.0,-1.4892,-1.4277,-1.5351,0.0,0.0,-1.2354,-1.2181,0.0,0.0,0.0,0.0,0.0,0.0,0.0,0.0,0.0,0.0,-0.7719,0.0,0.0,0.0,0.0,-0.5517,0.0,0.0,0.0,0.0,0.0,0.0,0.0,0.0,0.0,0.0,0.0,0.0,0.0,0.0,0.0,0.0,0.0,0.0,0.0,0.0,0.0,-1.3485,-1.3509,-1.375,-1.428,-1.4292,-1.4292,-1.4292,-1.4292,-1.4292,-1.4292,-1.4316,-1.4594,-1.5113,-1.5125,-1.5415,-1.5885,-1.5885,-1.5885,-1.5885,-1.5885,-1.5885,-1.5885,-1.5897,-1.5897,-1.5994,-1.6791,-1.6923,-1.6791,-0.7085,-0.7143,-0.7185,-0.721,-0.7224,-0.7292,-0.7495,-0.7845,0.0,0.0,-0.9322,0.0,0.0,-1.1043,-1.0975,0.0,0.0,-1.03,-0.9935,-0.9412,0.0,0.0,0.0,-0.8488,0.0,0.0,0.0,-0.9072,-0.9805,-1.0841,-1.2142,-1.3175,-1.3734,-1.3903,-1.4363,-1.4635,-1.4746,-1.4261,-1.4594,0.0,0.0,-1.5231,-1.5027,0.0,0.0,-1.3068,-1.3447,-1.3479,0.0,-1.3541,-1.2871,-1.2004,-1.1917,-1.1855,-1.184,-1.1835,-1.1972,0.0,0.0,0.0,-0.9102,-0.7214,0.0,0.0,0.0,0.0,0.0,0.0,0.0,0.0,0.0,0.0,0.0,0.0,0.0,0.0,0.0,0.0,0.0,0.0,0.0,0.0,0.0,0.0,0.0,0.0,0.0,0.0,0.0,-1.3326,-1.3761,-1.428,-1.4292,-1.4292,-1.4292,-1.4292,-1.4292,-1.4304,-1.4485,-1.4666,-1.4859,-1.5209,-1.5463,-1.5644,-1.5813,-1.5885,-1.5885,-1.5885,-1.5885,-1.5885,-1.5885,-1.5994,-1.6238,-1.6658,-1.6779,-1.6779,-0.7269,-0.7387,-0.7444,-0.7312,-0.7355,-0.7464,0.0,0.0,0.0,0.0,-1.0517,0.0,-1.2982,0.0,-1.1948,0.0,-1.1823,-1.1171,-1.069,-1.0265,0.0,-0.9625,-0.9352,0.0,0.0,0.0,0.0,0.0,-1.0778,-1.1905,-1.3165,-1.3902,-1.4355,-1.457,-1.4739,-1.5077,-1.5471,-1.511,-1.5441,0.0,0.0,-1.5584,0.0,0.0,-1.3976,-1.3095,0.0,-1.3489,-1.3385,-1.4008,-1.358,-1.2726,-1.2379,-1.2283,-1.2202,-1.1594,-1.1441,-1.1278,-1.0419,-0.9556,0.0,-0.7165,-0.6903,0.0,-0.6178,0.0,0.0,0.0,0.0,0.0,0.0,0.0,0.0,0.0,0.0,0.0,0.0,-0.8331,0.0,0.0,0.0,0.0,0.0,0.0,0.0,0.0,-1.1364,0.0,0.0,0.0,-1.3556,-1.428,-1.4292,-1.4292,-1.4292,-1.4292,-1.4292,-1.4304,-1.4485,-1.4618,-1.4702,-1.5161,-1.5415,-1.5511,-1.5777,-1.5885,-1.5885,-1.5885,-1.5885,-1.5897,-1.6021,-1.6154,-1.6347,-1.6598,-1.6815,-1.7032,-0.7556,-0.7597,-0.7509,-0.7186,-0.7305,0.0,0.0,0.0,-1.0135,0.0,-1.178,-1.2388,-1.4549,-1.3366,-1.261,-1.32,-1.2671,-1.1965,-1.1056,-1.0961,0.0,0.0,-0.9795,-0.9713,-0.9437,0.0,0.0,0.0,0.0,-1.1755,-1.2702,-1.2751,-1.3318,-1.4292,-1.4316,-1.4763,-1.5535,-1.6066,-1.6453,-1.6658,-1.6127,-1.5765,-1.5535,-1.5523,-1.5009,-1.4439,-1.5512,-1.4482,-1.2743,-1.3889,-1.425,-1.3981,-1.2852,-1.3241,-1.382,-1.2421,-1.1406,-1.0585,-0.9985,-0.9644,-0.9103,-0.7598,0.0,0.0,0.0,0.0,-0.6074,0.0,0.0,0.0,0.0,0.0,0.0,0.0,0.0,0.0,0.0,0.0,0.0,0.0,0.0,0.0,0.0,0.0,-1.167,-1.1128,-1.1111,-1.1576,0.0,0.0,-1.3194,-1.422,-1.428,-1.4292,-1.4292,-1.4292,-1.4292,-1.4292,-1.4292,-1.4437,-1.4678,-1.4968,-1.5234,-1.5499,-1.5753,-1.5873,-1.5885,-1.5885,-1.5885,-1.5948,-1.6202,-1.6323,-1.6384,-1.6622,-1.7044,-1.7508,-0.7423,-0.7522,-0.7645,0.0,-0.7817,-0.7946,0.0,0.0,0.0,0.0,-1.3517,-1.4381,-1.5746,-1.4645,-1.3756,-1.3632,-1.3227,0.0,0.0,0.0,0.0,-1.0941,-1.0541,-1.0127,-0.972,-1.0288,0.0,-1.011,0.0,-1.2436,-1.2727,-1.3511,-1.4028,-1.4304,-1.4521,-1.4944,-1.5523,-1.5861,-1.6272,-1.667,-1.632,-1.6166,0.0,0.0,-1.5666,-1.5485,-1.5779,-1.5512,-1.5045,-1.5351,-1.4734,-1.3808,-1.3754,-1.3214,-1.2544,-1.2351,-1.153,-1.0609,-1.0206,-0.9432,-0.8594,-0.7896,-0.7539,-0.7239,0.0,0.0,0.0,0.0,0.0,0.0,0.0,0.0,0.0,0.0,0.0,0.0,0.0,0.0,0.0,-0.8492,0.0,0.0,0.0,-1.1233,-1.1544,-1.1205,-1.1304,-1.1605,0.0,0.0,0.0,-1.3701,-1.4099,-1.4292,-1.4292,-1.4292,-1.4292,-1.4292,-1.4292,-1.434,-1.4413,-1.469,-1.4956,-1.5221,-1.5487,-1.5716,-1.5885,-1.5885,-1.5885,-1.5948,-1.6202,-1.6525,-1.6887,-1.696,-1.7201,-1.7508,-0.7631,-0.8352,0.0,-0.9187,0.0,0.0,-0.9224,-1.0659,0.0,-1.3551,-1.3954,0.0,-1.5777,-1.4814,-1.4055,-1.3953,-1.3471,0.0,-1.2713,0.0,0.0,-1.1409,-1.1192,-1.0778,-1.0127,-1.0703,0.0,-1.0982,0.0,-1.309,-1.3414,-1.4028,-1.4364,-1.4485,-1.4521,-1.4823,-1.5354,-1.5849,-1.6175,-1.6356,-1.6429,0.0,0.0,-1.5972,-1.5885,-1.5885,-1.5885,-1.5885,-1.5805,-1.5324,-1.4949,-1.4508,-1.3538,-1.2662,-1.1928,-1.1546,-1.0617,-0.9719,-0.9636,-0.9175,-0.8549,-0.8099,-0.7671,-0.7279,-0.6938,-0.6536,-0.6241,0.0,0.0,0.0,0.0,0.0,0.0,0.0,0.0,0.0,0.0,0.0,0.0,0.0,-0.8127,0.0,0.0,-1.0759,-1.144,-1.1047,-1.1237,0.0,0.0,0.0,0.0,-1.3676,-1.4208,-1.4316,-1.3954,-1.4425,-1.4473,-1.4123,-1.4364,-1.4485,-1.4497,-1.4883,-1.5137,-1.5294,-1.5559,-1.5753,-1.5885,-1.5885,-1.5885,-1.5934,-1.632,-1.6791,-1.7261,-1.7261,-1.7358,-1.7508,-0.8342,-0.955,0.0,0.0,0.0,0.0,0.0,-1.177,0.0,-1.4412,0.0,-1.4668,-1.61,-1.5044,-1.427,-1.4474,0.0,-1.3112,-1.2848,-1.2895,-1.254,-1.1606,-1.1685,-1.1374,-1.0568,-1.1293,0.0,0.0,0.0,-1.3663,-1.41,-1.422,-1.4449,-1.4678,-1.4461,-1.4666,-1.5258,-1.5982,-1.6214,-1.6091,-1.6561,-1.6465,-1.6042,-1.6006,-1.5994,-1.5994,-1.5985,-1.5922,-1.5725,-1.4573,-1.4842,-1.5206,-1.2933,-1.2091,-1.1737,-1.068,-0.9588,-0.8733,-0.8823,-0.8885,-0.879,-0.8321,-0.7939,-0.7569,-0.7065,-0.6676,-0.6417,-0.6433,-0.6285,0.0,0.0,0.0,0.0,0.0,0.0,0.0,0.0,0.0,0.0,0.0,0.0,0.0,0.0,0.0,-1.1413,-1.0903,-1.1131,0.0,0.0,0.0,0.0,-1.3679,-1.428,0.0,-1.3653,0.0,-1.4739,-1.4123,-1.4558,-1.475,-1.4762,-1.5246,-1.5463,-1.5511,-1.5741,-1.5861,-1.5885,-1.5885,-1.5934,-1.6042,-1.6549,-1.7056,-1.7508,-1.7508,-1.7508,-1.7508,-1.0279,-1.0347,0.0,0.0,0.0,-1.4943,-1.4071,-1.5061,-1.6188,-1.6955,-1.7673,-1.8773,-2.0569,-1.8131,-1.6412,-1.655,-1.4626,0.0,0.0,0.0,0.0,-1.2494,-1.1922,-1.1374,-1.0846,-1.2344,-1.236,0.0,0.0,-1.4138,-1.3004,-1.3884,-1.4449,-1.469,-1.4642,-1.5052,-1.5777,-1.6154,0.0,-1.6887,-1.6984,-1.696,-1.6863,-1.6634,-1.6561,-1.6525,-1.6323,-1.6093,-1.5725,-1.4573,-1.4132,-1.3997,-1.3565,-1.2617,-1.1618,-1.1355,-1.0625,-0.9699,-0.8816,-0.874,-0.8871,-0.879,-0.8219,-0.7695,-0.7697,-0.7036,-0.6439,-0.6542,-0.645,-0.6369,-0.647,0.0,0.0,0.0,0.0,0.0,0.0,0.0,0.0,0.0,0.0,0.0,0.0,0.0,0.0,0.0,0.0,0.0,0.0,0.0,0.0,0.0,0.0,0.0,0.0,0.0,-1.4932,-1.5221,-1.5101,-1.504,-1.504,-1.5137,-1.5294,-1.5499,-1.5547,-1.5692,-1.5885,-1.5885,-1.6151,-1.6585,-1.6899,-1.7213,-1.7508,-1.7508,-1.7508,-1.7508,-1.2028,0.0,0.0,0.0,0.0,0.0,0.0,-1.7114,0.0,-1.7025,-1.6474,-1.6476,-1.7393,-1.7145,-1.6936,-1.7071,-1.6596,-1.5977,-1.519,-1.4548,-1.372,-1.2656,-1.2121,0.0,-1.0928,-1.1595,-1.1722,-1.1337,0.0,0.0,-1.3741,-1.4123,-1.4521,-1.4895,-1.5065,-1.5258,0.0,0.0,0.0,-1.6911,-1.7189,-1.7213,-1.708,-1.6948,-1.6815,-1.6682,-1.6549,-1.6347,-1.5905,-1.4645,-1.4089,-1.3808,-1.2852,-1.1683,-1.0762,-1.1164,-1.0131,-0.8927,-0.9285,-0.8933,-0.8444,-0.8565,-0.8062,-0.7535,-0.7523,-0.7061,-0.6601,-0.6596,-0.6547,-0.645,-0.6325,-0.6478,0.0,0.0,0.0,0.0,0.0,0.0,0.0,0.0,0.0,0.0,0.0,0.0,0.0,0.0,0.0,0.0,0.0,0.0,0.0,0.0,0.0,0.0,0.0,0.0,0.0,-1.4458,-1.4714,-1.4854,-1.4854,-1.4983,-1.5217,-1.5505,-1.5505,-1.5644,-1.5897,-1.6057,-1.6416,-1.6911,-1.7044,-1.7249,-1.7508,-1.7508,-1.7508,-1.7508,-1.372,-1.4569,0.0,0.0,-1.8968,0.0,-1.8221,-1.8923,-1.903,-1.7226,-1.5344,-1.4467,-1.5291,-1.6254,-1.6887,-1.7071,-1.7562,-1.7401,-1.6409,-1.5878,-1.4995,-1.3551,-1.3124,-1.2589,-1.1879,-1.18,-1.208,0.0,0.0,0.0,0.0,-1.4545,-1.4678,0.0,0.0,0.0,0.0,0.0,-1.6626,-1.653,-1.7223,-1.7358,-1.7177,-1.7177,-1.6901,-1.6455,-1.6396,-1.6242,-1.5841,-1.4358,-1.385,-1.3548,-1.2055,-1.0751,-0.9904,-1.048,-0.9388,-0.8242,-0.934,-0.8844,-0.8051,-0.8192,-0.7816,-0.739,-0.7289,-0.7025,-0.6785,-0.6714,-0.6628,-0.6556,-0.6369,-0.6433,0.0,0.0,0.0,0.0,0.0,0.0,0.0,0.0,0.0,0.0,0.0,0.0,0.0,0.0,0.0,0.0,0.0,0.0,0.0,0.0,0.0,-1.3295,-1.2973,0.0,-1.4379,0.0,-1.443,-1.4692,-1.4703,-1.4896,-1.5148,-1.5401,-1.554,-1.5776,-1.6079,-1.6284,-1.6686,-1.7092,-1.7153,-1.7298,-1.7508,-1.7508,-1.7508,-1.7508,0.0,0.0,0.0,0.0,0.0,0.0,-2.0698,-2.1197,-2.1147,-1.9756,-1.7785,-1.7871,-2.1368,-1.8691,-1.6749,-1.7063,-1.5242,-1.4665,-1.6041,-1.5481,-1.5591,-1.6712,-1.6049,-1.5455,-1.5082,-1.5586,-1.5556,0.0,0.0,0.0,0.0,0.0,0.0,0.0,0.0,0.0,0.0,-1.617,-1.6304,-1.581,-1.7015,-1.7467,-1.7443,-1.7443,-1.6715,-1.566,-1.5442,-1.5326,-1.5027,-1.332,-1.2661,-1.25,-1.2026,-1.0904,-0.9711,-0.9251,-0.9168,-0.903,-0.8103,-0.7909,-0.8014,-0.8029,-0.7713,-0.7442,-0.7546,-0.7175,-0.6828,-0.6931,-0.6774,-0.6553,-0.6417,-0.6846,-0.7191,0.0,0.0,0.0,0.0,0.0,0.0,0.0,0.0,0.0,0.0,0.0,0.0,0.0,0.0,0.0,0.0,0.0,0.0,-1.2071,0.0,-1.3157,-1.3772,-1.4139,0.0,-1.5235,-1.5048,-1.4953,-1.4953,-1.5003,-1.5014,-1.5079,-1.5647,-1.6156,-1.6622,-1.6658,-1.6827,-1.7117,-1.7387,-1.7484,-1.7508,-1.7508,-1.7508,-1.7508,0.0,0.0,0.0,0.0,0.0,0.0,0.0,-2.1974,-2.2129,-2.163,-1.9884,-1.9259,-2.0819,-2.0488,-1.9757,-1.8684,-1.8615,-1.7886,-1.6147,-1.5593,-1.5047,-1.4281,-1.3665,-1.3612,-1.4164,-1.324,-1.3538,0.0,0.0,0.0,0.0,0.0,0.0,0.0,0.0,-1.4534,-1.3763,-1.5344,-1.5437,-1.45,-1.5006,-1.5688,-1.629,-1.551,-1.5417,-1.5613,-1.4628,-1.4753,-1.5074,-1.3489,-1.27,-1.2174,-1.1007,-0.9653,-0.854,-0.8809,-0.8506,-0.8174,-0.8567,-0.8125,-0.7543,-0.7715,-0.7508,-0.7287,-0.7343,-0.7194,-0.7035,-0.7018,-0.679,-0.658,-0.6531,-0.6653,-0.6918,0.0,0.0,0.0,0.0,0.0,0.0,0.0,0.0,0.0,0.0,0.0,0.0,0.0,0.0,0.0,0.0,0.0,0.0,-1.2033,0.0,-1.2853,-1.3402,-1.3681,-1.4127,-1.4748,-1.4589,-1.4584,-1.4734,-1.4584,-1.477,-1.527,-1.5837,-1.6402,-1.6936,-1.6936,-1.7092,-1.7334,-1.7472,-1.7508,-1.7508,-1.7508,-1.7508,-1.7508,-2.1459,0.0,-2.1808,0.0,-2.355,-2.3489,-2.2823,-2.305,-2.335,-2.3471,-2.2288,-2.1234,-2.0775,-2.133,-2.1133,-1.969,-2.0547,-1.9917,-1.6901,-1.639,-1.5421,-1.3771,-1.316,0.0,-1.3934,-1.2391,-1.2693,-1.4978,-1.3433,0.0,0.0,0.0,0.0,0.0,-1.4002,-1.3983,-1.339,-1.462,-1.4419,-1.3299,-1.3663,-1.4359,-1.5052,-1.4147,-1.4213,-1.4605,-1.3627,-1.3746,-1.4181,-1.2685,-1.2038,-1.162,-1.0268,-0.88,-0.7715,-0.8235,-0.782,-0.7432,-0.8478,-0.798,-0.7238,-0.7438,-0.7354,-0.721,-0.721,-0.721,-0.7149,-0.7035,-0.6844,-0.6703,-0.6607,-0.6525,-0.6653,-0.7211,0.0,0.0,0.0,0.0,0.0,0.0,-0.83,-0.8346,-0.9575,0.0,0.0,0.0,0.0,0.0,0.0,0.0,0.0,0.0,0.0,0.0,0.0,-1.3377,-1.3761,-1.4261,-1.4288,-1.4397,-1.4576,-1.4473,-1.4801,-1.5495,-1.5906,-1.645,-1.7057,-1.71,-1.7278,-1.7508,-1.7508,-1.7508,-1.7508,-1.7508,-1.7508,-1.7508,-2.1746,-2.1581,-2.1923,-2.4168,-2.4559,-2.4571,-2.4583,-2.4783,-2.5059,-2.5312,-2.5132,-2.4371,-2.2848,-2.0845,-1.9595,-1.95,-1.9321,-1.8977,-1.8391,-1.7882,-1.7396,0.0,0.0,-1.5812,-1.5483,-1.4936,-1.4586,-1.4499,0.0,0.0,-1.3517,0.0,-1.3741,-1.5499,-1.3984,-1.3679,-1.427,-1.4176,-1.3363,-1.2335,-1.3582,-1.4113,-1.4113,-1.4113,-1.3331,-1.2248,-1.2217,-1.2127,-1.1826,-1.0358,-1.0187,-1.0538,-1.0055,-0.8839,-0.7549,-0.7293,-0.721,-0.721,-0.721,-0.721,-0.721,-0.721,-0.721,-0.721,-0.721,-0.721,-0.7149,-0.7035,-0.7007,-0.6904,-0.6639,-0.659,-0.6553,-0.6428,0.0,0.0,0.0,0.0,0.0,0.0,-0.7646,-0.7535,-0.8615,0.0,0.0,0.0,0.0,0.0,0.0,0.0,0.0,-1.2083,-1.2309,0.0,-1.3104,-1.3377,-1.3743,-1.4191,-1.439,-1.4497,-1.4508,-1.4772,-1.5198,-1.5705,-1.5773,-1.627,-1.6997,-1.7057,-1.7278,-1.7508,-1.7508,-1.7508,-1.7508,-1.7508,-1.7508,-1.7508,-2.4144,-2.4191,-2.4281,-2.5005,-2.5138,-2.5077,-2.4897,-2.5102,-2.5234,-2.5138,-2.521,-2.5082,-2.4598,-2.3781,-2.2699,0.0,-2.1004,-2.0078,0.0,-1.7972,-1.7653,-1.717,-1.665,-1.6687,-1.7448,-1.4885,-1.4897,-1.7652,0.0,0.0,0.0,-1.1456,-1.1395,-1.2047,-1.3197,-1.2917,-1.168,-1.3189,-1.2633,-1.0731,-1.1048,-1.17,-1.2372,-1.1486,-1.1604,-1.2059,-1.0962,-1.124,-1.1838,-0.9842,-0.9804,-1.0332,-0.8852,-0.7933,-0.7376,-0.7232,-0.721,-0.721,-0.721,-0.721,-0.721,-0.721,-0.721,-0.721,-0.721,-0.721,-0.7199,-0.7133,-0.7068,-0.6959,-0.6883,-0.673,-0.6757,-0.7285,0.0,0.0,0.0,0.0,0.0,0.0,-0.8011,-0.811,0.0,-0.8624,0.0,0.0,0.0,0.0,0.0,0.0,0.0,0.0,-1.2759,0.0,-1.3562,-1.3846,-1.433,-1.5019,-1.486,-1.4772,-1.4783,-1.4991,-1.5315,-1.571,-1.5915,-1.6371,-1.6991,-1.7026,-1.7202,-1.7508,-1.7508,-1.7508,-1.7508,-1.7508,-1.7629,-1.7774,-2.5294,-2.5391,-2.5391,-2.5391,-2.5318,-2.5222,-2.5162,-2.5114,-2.5065,-2.5005,-2.5053,-2.509,-2.509,-2.4861,0.0,-2.3079,-2.2639,-2.1475,-1.9214,-1.8916,-1.8327,-1.717,-1.6782,-1.6871,-1.7436,0.0,0.0,-1.7672,-1.4468,-1.2588,-1.2024,-1.1988,-1.1948,-1.2004,-1.3591,-1.337,-1.1924,-1.2888,-1.2316,-1.0777,-1.0211,-1.0455,-1.1102,-1.03,-1.0607,-1.1349,-1.0339,-1.0571,-1.115,-0.9663,-0.9529,-0.9719,-0.8337,-0.7683,-0.7414,-0.7274,-0.722,-0.721,-0.721,-0.721,-0.721,-0.721,-0.721,-0.721,-0.721,-0.721,-0.721,-0.721,-0.7128,-0.7062,-0.7018,-0.6861,-0.6885,-0.7294,-0.6855,-0.6889,-0.8045,0.0,0.0,0.0,0.0,0.0,0.0,-0.7998,0.0,0.0,0.0,0.0,0.0,0.0,0.0,-1.2772,-1.3107,0.0,-1.3954,-1.4116,-1.4598,-1.5388,-1.5383,-1.5435,-1.5495,-1.5515,-1.5649,-1.5854,-1.6039,-1.6371,-1.6814,-1.6961,-1.7197,-1.7508,-1.7508,-1.7569,-1.7653,-1.7653,-1.7835,-1.8064,-2.5391,-2.5379,0.0,0.0,-2.5174,0.0,-2.5306,-2.4921,-2.4692,-2.4921,-2.474,-2.4583,-2.4583,-2.4354,-2.4282,-2.4511,0.0,0.0,0.0,-2.0559,-1.9437,-1.7432,-1.7191,-1.6822,-1.6248,-1.6106,-1.5782,-1.5262,-1.5012,-1.4079,-1.2596,-1.4048,-1.4706,-1.4696,-1.4919,-1.4816,-1.4403,-1.3195,-1.2497,-1.2075,-1.0781,-1.0281,-1.0281,-1.0281,-1.0256,-1.0295,-1.0281,-1.013,-0.9921,-0.9635,-0.9236,-0.8775,-0.8318,-0.7943,-0.7655,-0.7387,-0.7263,-0.7198,-0.7204,-0.7221,-0.721,-0.7193,-0.7215,-0.721,-0.721,-0.721,-0.721,-0.721,-0.721,-0.7149,-0.7046,-0.7018,-0.691,-0.6645,-0.6601,-0.6864,-0.7618,0.0,0.0,0.0,0.0,0.0,0.0,-0.707,-0.7738,0.0,0.0,0.0,0.0,0.0,-1.288,-1.2859,-1.3312,-1.376,-1.4234,-1.4256,-1.4658,-1.5456,-1.5977,-1.632,-1.6478,-1.6224,-1.6146,-1.6146,-1.6146,-1.6283,-1.6567,-1.6873,-1.7197,-1.7508,-1.7508,-1.7677,-1.7907,-1.7907,-1.8088,-1.8324,0.0,0.0,-2.5162,-2.5355,-2.5174,-2.4957,-2.48,-2.4849,-2.4776,-2.4427,-2.4499,-2.4583,-2.4583,-2.4354,-2.4138,-2.4005,-2.3692,-2.3233,-2.2596,-2.2062,-2.1478,-2.0757,-2.031,-1.9932,-1.9554,-1.8107,-1.658,-1.4978,-1.6194,-1.5917,-1.4308,-1.4679,-1.4742,-1.4581,-1.5489,-1.5251,-1.417,-1.3646,-1.2909,-1.1906,-1.0495,-0.993,-0.993,-0.993,-0.9974,-1.0055,-0.994,-0.983,-0.9629,-0.9217,-0.8824,-0.8452,-0.8083,-0.7859,-0.7671,-0.7489,-0.7359,-0.7284,-0.7404,-0.7324,-0.7204,-0.7269,-0.7253,-0.721,-0.721,-0.721,-0.721,-0.721,-0.721,-0.7199,-0.7149,-0.7073,-0.6937,-0.6785,-0.6681,-0.6924,-0.7799,-0.7438,0.0,0.0,-0.8332,-0.8493,-0.8429,-0.8841,-0.9746,0.0,0.0,0.0,0.0,-1.3452,-1.3771,-1.3577,-1.3868,-1.4245,-1.4719,-1.4873,-1.5293,-1.5939,-1.6276,-1.6451,-1.6508,-1.6419,-1.639,-1.639,-1.639,-1.6608,-1.6903,-1.6961,-1.7197,-1.7508,-1.7508,-1.7677,-1.7907,-1.7907,-1.8209,-1.862,-2.5391,-2.5282,-2.5234,-2.5367,-2.5174,-2.4957,-2.48,-2.48,-2.4668,-2.4246,-2.4318,-2.4354,-2.4246,-2.3993,-2.3776,-2.3643,-2.3378,-2.3104,-2.2744,-2.2345,-2.1946,-2.1547,-2.1135,-2.0797,-2.0531,-1.9365,-1.7862,-1.604,-1.7358,-1.7184,-1.5696,-1.6212,-1.6023,-1.5322,-1.6593,-1.5999,-1.3995,-1.3931,-1.3089,-1.1729,-1.0367,-0.9792,-0.9792,-0.9792,-0.9839,-0.9876,-0.9666,-0.954,-0.9384,-0.8848,-0.8549,-0.8336,-0.7994,-0.7859,-0.7769,-0.7698,-0.7557,-0.7403,-0.7473,-0.7383,-0.7241,-0.7252,-0.7247,-0.7236,-0.7236,-0.7279,-0.7351,-0.7351,-0.7274,-0.7236,-0.7236,-0.7171,-0.7035,-0.6828,-0.7165,-0.7564,-0.7952,-0.7845,0.0,-0.8925,-0.8967,-0.9054,-0.9358,-0.9848,-1.0561,-1.1608,0.0,0.0,-1.3193,-1.3846,-1.4083,-1.3799,-1.4266,-1.4686,-1.5024,-1.5406,-1.5825,-1.6283,-1.6722,-1.6977,-1.7125,-1.7104,-1.7033,-1.6899,-1.6864,-1.6904,-1.7003,-1.712,-1.7304,-1.752,-1.7641,-1.7859,-1.8113,-1.8234,-1.8536,-1.8899,-2.5391,-2.5367,-2.5355,-2.5391,-2.515,-2.4945,-2.4945,-2.4704,-2.4427,-2.4174,-2.4138,-2.4053,-2.3824,-2.3571,-2.3402,-2.3354,-2.314,-2.2816,-2.2332,-2.2018,-2.1619,-2.1111,-2.0809,-2.0519,-2.0265,-1.9987,-1.9113,-1.7664,-1.841,-1.8144,-1.694,-1.7882,-1.7637,-1.6504,-1.751,-1.6525,-1.4123,-1.3859,-1.3068,-1.1903,-1.0604,-1.0095,-1.0095,-1.0095,-0.9943,-0.97,-0.9396,-0.9244,-0.9098,-0.858,-0.8372,-0.8275,-0.7994,-0.7903,-0.7903,-0.7903,-0.7731,-0.7573,-0.7573,-0.7457,-0.7332,-0.7269,-0.7285,-0.7338,-0.7338,-0.7414,-0.7489,-0.7489,-0.7408,-0.7327,-0.7311,-0.7252,-0.7183,-0.7051,-0.7796,-0.8377,-0.8299,0.0,-0.8882,-0.9981,-0.9573,-0.961,-1.0615,-1.0862,-1.1326,-1.2271,-1.233,-1.2755,0.0,-1.4202,-1.4234,-1.396,-1.46,-1.5052,-1.5271,-1.577,-1.6187,-1.6476,-1.7051,-1.751,-1.7877,-1.7873,-1.7758,-1.7539,-1.7487,-1.7367,-1.7221,-1.7433,-1.7577,-1.7624,-1.7883,-1.8106,-1.8384,-1.8633,-1.8886,-1.9104,-2.5391,-2.521,-2.5138,-2.5355,-2.4981,-2.4644,-2.4644,-2.4427,-2.4162,-2.3897,-2.386,-2.3848,-2.3812,-2.3571,-2.3318,-2.3167,-2.2901,-2.2623,-2.232,-2.1849,-2.1426,-2.1111,-2.0628,-2.0253,-1.9987,-1.9709,-1.9333,-1.8843,-1.8964,-1.8808,-1.836,-1.8315,-1.8075,-1.7594,-1.6748,-1.597,-1.5177,-1.2991,-1.2582,-1.3276,-1.1933,-1.142,-1.142,-1.142,-1.0543,-0.9366,-0.9305,-0.8976,-0.8519,-0.8433,-0.8214,-0.7964,-0.7903,-0.7903,-0.7903,-0.7903,-0.7875,-0.7848,-0.7848,-0.7731,-0.7616,-0.7491,-0.7446,-0.7462,-0.7462,-0.7473,-0.7489,-0.7489,-0.7473,-0.743,-0.7327,-0.7294,-0.7471,-0.8044,-0.8295,-0.8652,-0.9411,0.0,-0.9935,-1.052,-1.1414,-1.2164,-1.2618,-1.3367,-1.4009,-1.4392,-1.4234,-1.4193,-1.4373,-1.482,-1.4948,-1.4757,-1.5002,-1.5282,-1.5548,-1.5639,-1.5937,-1.6405,-1.6801,-1.726,-1.7817,-1.811,-1.8202,-1.8178,-1.8153,-1.8117,-1.8106,-1.8154,-1.8172,-1.8167,-1.8215,-1.8396,-1.8625,-1.8674,-1.8886,-1.9104,-2.5391,-2.5294,-2.5246,-2.5379,-2.5065,-2.4764,-2.4607,-2.4366,-2.4101,-2.3836,-2.38,-2.3752,-2.3607,-2.3393,-2.3128,-2.2901,-2.2635,-2.2369,-2.2103,-2.1728,-2.1329,-2.0906,-2.0519,-2.012,-1.9697,-1.9431,-1.9225,-1.9104,-1.8971,-1.8766,-1.8469,-1.8221,-1.7955,-1.766,-1.7066,-1.6361,-1.551,-1.4321,-1.3336,-1.2556,-1.1963,-1.1299,-1.0664,-1.0482,-0.9943,-0.9244,-0.8946,-0.8641,-0.8372,-0.8183,-0.8025,-0.7903,-0.7903,-0.7903,-0.7903,-0.7903,-0.7903,-0.7886,-0.7826,-0.7741,-0.7671,-0.7522,-0.7568,-0.7616,-0.7616,-0.7665,-0.7709,-0.7709,-0.766,-0.76,-0.7511,-0.7397,-0.7595,-0.852,-0.9103,0.0,0.0,-1.114,-1.1619,-1.248,-1.2736,-1.3198,-1.3999,-1.4474,-1.4826,-1.5034,-1.4859,-1.4837,-1.5095,-1.5174,-1.5282,-1.548,-1.5569,-1.5677,-1.5815,-1.5914,-1.6287,-1.6886,-1.7195,-1.7661,-1.8287,-1.8587,-1.8638,-1.8517,-1.8681,-1.8553,-1.83,-1.8444,-1.842,-1.8312,-1.8444,-1.8577,-1.8729,-1.8874,-1.9007,-1.9104,-2.5391,-2.5391,-2.5379,-2.5318,-2.5077,-2.4812,-2.4535,-2.427,-2.4029,-2.3836,-2.38,-2.3704,-2.3439,-2.3212,-2.2973,-2.2707,-2.2453,-2.2163,-2.1837,-2.1631,-2.1305,-2.0809,-2.0422,-1.9999,-1.9503,-1.9237,-1.9104,-1.9104,-1.879,-1.8517,-1.8372,-1.8004,-1.7738,-1.7575,-1.7209,-1.6526,-1.5569,-1.5273,-1.4172,-1.2595,-1.2306,-1.1573,-1.0513,-1.0008,-0.9514,-0.9037,-0.8549,-0.8336,-0.8244,-0.7994,-0.7903,-0.7903,-0.7903,-0.7903,-0.7903,-0.7903,-0.7903,-0.7881,-0.7763,-0.7741,-0.772,-0.7622,-0.7671,-0.7741,-0.7741,-0.7837,-0.7903,-0.7903,-0.8043,-0.818,-0.8152,-0.8242,-0.8644,-0.9641,0.0,0.0,0.0,-1.2563,-1.316,-1.395,-1.3825,-1.4076,-1.507,-1.521,-1.5289,-1.5454,-1.5322,-1.5375,-1.5741,-1.5572,-1.5636,-1.6052,-1.6063,-1.6063,-1.6063,-1.6308,-1.6706,-1.727,-1.7639,-1.8112,-1.8688,-1.8988,-1.8995,-1.8782,-1.9019,-1.8874,-1.8493,-1.8717,-1.8662,-1.8493,-1.8698,-1.877,-1.8826,-1.9032,-1.9104,-1.9104,-2.5391,-2.5391,-2.5318,-2.5077,-2.48,-2.4523,-2.4258,-2.4005,-2.3824,-2.3812,-2.38,-2.3704,-2.3439,-2.3212,-2.2973,-2.2707,-2.2453,-2.2079,-2.1583,-2.1522,-2.1377,-2.1075,-2.035,-1.9805,-1.9503,-1.9237,-1.9104,-1.9104,-1.8565,-1.8432,-1.8638,-1.7895,-1.7653,-1.7799,-1.6391,-1.5688,-1.551,-1.4351,-1.4411,-1.5235,-1.4166,-1.3432,-1.2844,-1.1739,-1.0152,-0.8464,-0.8403,-0.8214,-0.7933,-0.7903,-0.7903,-0.7903,-0.7903,-0.7903,-0.7903,-0.7903,-0.7903,-0.7903,-0.7892,-0.7886,-0.7886,-0.7875,-0.7881,-0.7886,-0.7886,-0.7897,-0.7903,-0.7903,-0.883,-0.9597,-0.947,-1.045,-1.1545,-1.2385,0.0,0.0,-1.2728,-1.3643,-1.4162,-1.3616,-1.4643,-1.5545,-1.5879,-1.6075,-1.6184,-1.6237,-1.6215,-1.6195,-1.6258,-1.6217,-1.6247,-1.6291,-1.6291,-1.6291,-1.6291,-1.66,-1.6908,-1.7224,-1.7877,-1.8332,-1.8612,-1.8944,-1.9092,-1.908,-1.9092,-1.908,-1.9056,-1.9068,-1.9068,-1.9056,-1.9068,-1.908,-1.908,-1.9104,-1.9104,-1.9104,-2.5391,-2.527,-2.5126,-2.5017,-2.4644,-2.4306,-2.421,-2.3969,-2.38,-2.38,-2.38,-2.3643,-2.3249,-2.3143,-2.2913,-2.249,-2.2357,-2.2139,-2.1788,-2.1607,-2.1244,-2.064,-2.0134,-1.9748,-1.9503,-1.9237,-1.9104,-1.9104,-1.8911,-1.8746,-1.8674,-1.8234,-1.8034,-1.8118,-1.7197,-1.6884,-1.6922,-1.5485,-1.4708,-1.4301,-1.2867,-1.1671,-1.0694,-0.9883,-0.9081,-0.8372,-0.8152,-0.7994,-0.7903,-0.7903,-0.7903,-0.7903,-0.7903,-0.7903,-0.7903,-0.7903,-0.8566,-0.9335,-0.9335,-0.8633,-0.7919,-0.7995,-0.7957,-0.7903,-0.7903,-0.7963,-0.8017,-0.8017,-0.8446,-0.8799,-0.8752,-0.91,-0.9734,-1.0657,0.0,-1.2153,-1.2833,-1.4227,-1.5083,-1.4841,-1.5525,-1.6075,-1.6172,-1.6258,-1.6377,-1.6548,-1.6398,-1.647,-1.6831,-1.7061,-1.7155,-1.7155,-1.73,-1.7174,-1.6862,-1.73,-1.771,-1.8067,-1.8323,-1.8605,-1.8912,-1.904,-1.9104,-1.9104,-1.9104,-1.9104,-1.9104,-1.9104,-1.9104,-1.9104,-1.9104,-1.9104,-1.9104,-1.9104,-1.9104,-1.9104,-2.5138,-2.4993,-2.4849,-2.4764,-2.4439,-2.4162,-2.4089,-2.3921,-2.38,-2.38,-2.3728,-2.355,-2.313,-2.301,-2.278,-2.2332,-2.2224,-2.2066,-2.18,-2.145,-2.0978,-2.0337,-2.0026,-1.9748,-1.9503,-1.9237,-1.9104,-1.9104,-1.9032,-1.8935,-1.8826,-1.8456,-1.8336,-1.8396,-1.7937,-1.7841,-1.7968,-1.6894,-1.5602,-1.415,-1.2665,-1.1073,-0.9518,-0.8744,-0.837,-0.8214,-0.7994,-0.7903,-0.7903,-0.7903,-0.7924,-0.7957,-0.7957,-0.8287,-0.8656,-0.8656,-0.9709,-1.0895,-1.0946,-1.016,-0.9329,-0.9424,-0.9279,-0.9135,-0.9285,-0.9348,-0.9368,-0.9437,-0.981,-1.0161,-1.0161,-1.0451,-1.0906,-1.1594,-1.2414,-1.3212,-1.3927,-1.5077,-1.5828,-1.5828,-1.6183,-1.642,-1.642,-1.6495,-1.6624,-1.6924,-1.6782,-1.6918,-1.7422,-1.7655,-1.7782,-1.7782,-1.8049,-1.8029,-1.7623,-1.7985,-1.8334,-1.8603,-1.8699,-1.8892,-1.9104,-1.9104,-1.9104,-1.9104,-1.9104,-1.9104,-1.9104,-1.9104,-1.9104,-1.9104,-1.9104,-1.9104,-1.9104,-1.9104,-1.9104,-1.9104,-2.4583,-2.4583,-2.4499,-2.4246,-2.4186,-2.4101,-2.3836,-2.38,-2.38,-2.38,-2.3571,-2.3306,-2.3106,-2.2852,-2.2586,-2.232,-2.2054,-2.18,-2.1486,-2.1002,-2.0591,-2.0325,-2.0026,-1.9748,-1.9503,-1.9237,-1.9104,-1.9104,-1.8819,-1.885,-1.9092,-1.8541,-1.8432,-1.8674,-1.8408,-1.83,-1.83,-1.83,-1.7204,-1.5389,-1.4237,-1.2384,-1.0186,-0.9057,-0.8316,-0.7903,-0.7903,-0.7903,-0.7903,-0.7903,-0.7984,-0.8088,-0.8088,-0.9104,-1.0313,-1.0313,-1.1325,-1.2439,-1.2587,-1.2537,-1.2429,-1.2398,-1.2065,-1.1833,-1.2284,-1.2266,-1.2161,-1.2365,-1.3474,-1.4392,-1.4392,-1.5431,-1.6261,-1.6261,-1.6281,-1.6281,-1.6281,-1.6281,-1.6281,-1.6281,-1.6559,-1.6699,-1.6699,-1.6872,-1.713,-1.7464,-1.7497,-1.7658,-1.8001,-1.8001,-1.8001,-1.8001,-1.8399,-1.8603,-1.8603,-1.8603,-1.8603,-1.8603,-1.8944,-1.9104,-1.9104,-1.9104,-1.9104,-1.9104,-1.9104,-1.9104,-1.9104,-1.9104,-1.9104,-1.9104,-1.9104,-1.9104,-1.9104,-1.9104,-1.9104,-1.9104,-2.4583,-2.4439,-2.4282,-2.421,-2.4041,-2.3836,-2.3571,-2.3692,-2.3668,-2.3333,-2.3342,-2.3234,-2.2852,-2.2731,-2.2514,-2.2066,-2.1958,-2.1716,-2.1244,-2.0894,-2.0591,-2.0325,-2.0026,-1.9697,-1.9237,-1.9152,-1.9104,-1.9104,-1.9032,-1.9032,-1.9104,-1.8722,-1.871,-1.8971,-1.8493,-1.8396,-1.8491,-1.7174,-1.6278,-1.5618,-1.3876,-1.2144,-1.0597,-1.0011,-0.9097,-0.8127,-0.8127,-0.8127,-0.8127,-0.8127,-0.8149,-0.8182,-0.8182,-0.9145,-1.0313,-1.0313,-1.2067,-1.4039,-1.4061,-1.4744,-1.495,-1.3001,-1.2351,-1.2235,-1.2373,-1.2423,-1.2465,-1.2514,-1.2942,-1.3285,-1.3285,-1.3585,-1.3799,-1.3729,-1.4484,-1.5069,-1.4974,-1.5909,-1.6591,-1.6591,-1.6796,-1.6904,-1.6904,-1.6969,-1.713,-1.7464,-1.7992,-1.8314,-1.841,-1.8623,-1.8784,-1.8784,-1.888,-1.8956,-1.8956,-1.8956,-1.8956,-1.8956,-1.904,-1.9104,-1.9104,-1.9104,-1.9104,-1.9104,-1.9104,-1.9104,-1.9104,-1.9104,-1.9104,-1.9104,-1.9104,-1.9104,-1.9104,-1.9104,-1.9104,-1.9104,-2.427,-2.415,-2.4005,-2.3909,-2.3836,-2.3716,-2.3451,-2.3547,-2.3535,-2.3249,-2.3164,-2.3019,-2.2719,-2.2598,-2.2369,-2.1946,-2.1704,-2.1401,-2.0966,-2.0797,-2.0591,-2.0325,-2.0026,-1.9709,-1.9273,-1.9165,-1.9104,-1.9104,-1.9104,-1.9104,-1.9104,-1.8947,-1.8959,-1.9092,-1.862,-1.8509,-1.8578,-1.7267,-1.6286,-1.5512,-1.4307,-1.2874,-1.1364,-1.0598,-0.978,-0.8959,-0.839,-0.8204,-0.8204,-0.8204,-0.8237,-0.8285,-0.8329,-0.9722,-1.1288,-1.1288,-1.3328,-1.5623,-1.5623,-1.621,-1.6402,-1.4755,-1.4147,-1.3981,-1.417,-1.4212,-1.4235,-1.4309,-1.4387,-1.4469,-1.4469,-1.4469,-1.4433,-1.4346,-1.5013,-1.5519,-1.5453,-1.6223,-1.6829,-1.6829,-1.6915,-1.7001,-1.7001,-1.7001,-1.7195,-1.7658,-1.8249,-1.8667,-1.8796,-1.8976,-1.9104,-1.9104,-1.9104,-1.9104,-1.9104,-1.9104,-1.9104,-1.9104,-1.9104,-1.9104,-1.9104,-1.9104,-1.9104,-1.9104,-1.9104,-1.9104,-1.9104,-1.9104,-1.9104,-1.9104,-1.9104,-1.9104,-1.9104,-1.9104,-1.9104,-1.9104,-2.3776,-2.3788,-2.3716,-2.3427,-2.3595,-2.368,-2.339,-2.3366,-2.3366,-2.3318,-2.2935,-2.2683,-2.2659,-2.2441,-2.2187,-2.1897,-2.1377,-2.0954,-2.0724,-2.07,-2.0591,-2.0325,-2.0026,-1.9748,-1.9503,-1.9237,-1.9104,-1.9104,-1.9104,-1.9104,-1.9104,-1.9104,-1.9072,-1.904,-1.8731,-1.8571,-1.8507,-1.8109,-1.6968,-1.5395,-1.5364,-1.4252,-1.2478,-1.1046,-1.0506,-1.0315,-0.877,-0.8333,-0.8392,-0.8269,-0.8307,-0.8448,-0.8717,-1.0631,-1.2832,-1.2964,-1.4893,-1.7001,-1.7001,-1.7001,-1.7001,-1.7001,-1.6689,-1.6453,-1.6904,-1.6872,-1.6785,-1.6958,-1.7001,-1.7001,-1.7001,-1.7001,-1.7001,-1.7001,-1.7001,-1.7001,-1.7001,-1.7001,-1.7001,-1.7001,-1.7001,-1.7001,-1.7001,-1.7034,-1.7292,-1.7937,-1.8366,-1.8764,-1.9072,-1.9104,-1.9104,-1.9104,-1.9104,-1.9104,-1.9104,-1.9104,-1.9104,-1.9104,-1.9104,-1.9104,-1.9104,-1.9104,-1.9104,-1.9104,-1.9104,-1.9104,-1.9104,-1.9104,-1.9104,-1.9104,-1.9104,-1.9104,-1.9104,-1.9104,-1.9104,-1.9104,-2.3535,-2.3668,-2.3655,-2.3251,-2.3357,-2.3342,-2.2937,-2.3034,-2.3022,-2.2573,-2.2635,-2.2611,-2.2405,-2.2332,-2.2115,-2.1643,-2.1099,-2.0761,-2.07,-2.07,-2.0591,-2.0325,-2.0026,-1.9748,-1.9503,-1.9237,-1.9104,-1.9104,-1.9104,-1.9104,-1.9104,-1.9104,-1.8956,-1.8699,-1.8635,-1.8442,-1.8109,-1.7755,-1.7367,-1.699,-1.6733,-1.5724,-1.4188,-1.2775,-1.2254,-1.1936,-0.9425,-0.9234,-0.9985,-0.8871,-0.853,-0.8751,-0.9902,-1.1424,-1.3029,-1.4119,-1.5661,-1.7001,-1.7001,-1.7001,-1.7001,-1.7001,-1.6926,-1.6883,-1.698,-1.6969,-1.6947,-1.699,-1.7001,-1.7001,-1.7001,-1.7001,-1.7001,-1.7001,-1.7001,-1.7001,-1.7001,-1.7001,-1.7001,-1.7001,-1.7001,-1.7001,-1.7001,-1.7238,-1.7561,-1.7969,-1.8366,-1.8764,-1.9072,-1.9104,-1.9104,-1.9104,-1.9104,-1.9104,-1.9104,-1.9104,-1.9104,-1.9104,-1.9104,-1.9104,-1.9104,-1.9104,-1.9104,-1.9104,-1.9104,-1.9104,-1.9104,-1.9104,-1.9104,-1.9104,-1.9104,-1.9104,-1.9104,-1.9104,-1.9104,-1.9104,-2.3439,-2.3454,-2.3333,-2.2961,-2.3118,-2.3116,-2.2756,-2.2804,-2.2792,-2.2526,-2.249,-2.2453,-2.232,-2.2296,-2.2091,-2.1559,-2.1135,-2.0833,-2.0712,-2.07,-2.064,-2.0507,-2.0241,-1.9874,-1.9465,-1.9203,-1.8979,-1.886,-1.9008,-1.9008,-1.886,-1.886,-1.8764,-1.8571,-1.8217,-1.7948,-1.7755,-1.74,-1.7271,-1.7238,-1.7066,-1.6548,-1.5759,-1.4348,-1.3783,-1.3521,-1.1384,-1.1094,-1.1582,-1.0862,-1.0598,-1.073,-1.1457,-1.2668,-1.3947,-1.4674,-1.5889,-1.7001,-1.7001,-1.7001,-1.7001,-1.7001,-1.7001,-1.7001,-1.7001,-1.7001,-1.7001,-1.7001,-1.7001,-1.7001,-1.7001,-1.7001,-1.7001,-1.7001,-1.7001,-1.7001,-1.7001,-1.7001,-1.7001,-1.7001,-1.7001,-1.7001,-1.7001,-1.7174,-1.7464,-1.7969,-1.8206,-1.8527,-1.9072,-1.9225,-1.9237,-1.9116,-1.9225,-1.9237,-1.9104,-1.9104,-1.9165,-1.9298,-1.9165,-1.9104,-1.9104,-1.9104,-1.9104,-1.9104,-1.9104,-1.9104,-1.9104,-1.9104,-1.9104,-1.9104,-1.9104,-1.9104,-1.9104,-1.9104,-1.9104,-1.9104,-2.3427,-2.3273,-2.3058,-2.2744,-2.2864,-2.2925,-2.2659,-2.2623,-2.2623,-2.2623,-2.2429,-2.2296,-2.2296,-2.2185,-2.1894,-2.1342,-2.1043,-2.0802,-2.0539,-2.0527,-2.0503,-2.0467,-2.0217,-1.9818,-1.9242,-1.8998,-1.8764,-1.8507,-1.8784,-1.8752,-1.8507,-1.8507,-1.8474,-1.8378,-1.7766,-1.7464,-1.74,-1.7109,-1.7001,-1.7001,-1.7001,-1.7001,-1.6839,-1.5434,-1.5043,-1.5043,-1.339,-1.28,-1.28,-1.28,-1.28,-1.2832,-1.3095,-1.3955,-1.4945,-1.5206,-1.6084,-1.7001,-1.7001,-1.7001,-1.7001,-1.7001,-1.7001,-1.7001,-1.7001,-1.7001,-1.7001,-1.7001,-1.7001,-1.7001,-1.7001,-1.7001,-1.7001,-1.7001,-1.7001,-1.7001,-1.7001,-1.7001,-1.7001,-1.7001,-1.7001,-1.7001,-1.7001,-1.7044,-1.7347,-1.7937,-1.8081,-1.8416,-1.9084,-1.9358,-1.9394,-1.9189,-1.9346,-1.937,-1.9249,-1.9201,-1.931,-1.9564,-1.9346,-1.9249,-1.9249,-1.9249,-1.9249,-1.9249,-1.9201,-1.9177,-1.9165,-1.9128,-1.9104,-1.9104,-1.9104,-1.9104,-1.9104,-1.9104,-1.914,-1.9177,-2.3463,-2.339,-2.3237,-2.278,-2.2719,-2.2659,-2.2393,-2.2345,-2.2345,-2.2345,-2.232,-2.2296,-2.2296,-2.1757,-2.1177,-2.051,-2.0221,-1.9956,-1.9773,-1.975,-1.9658,-1.9404,-1.9358,-1.9094,-1.8556,-1.851,-1.834,-1.8066,-1.813,-1.813,-1.8066,-1.8066,-1.7916,-1.7626,-1.7529,-1.7335,-1.7066,-1.7001,-1.7001,-1.7001,-1.7001,-1.7001,-1.6839,-1.5434,-1.5661,-1.6375,-1.375,-1.28,-1.28,-1.28,-1.28,-1.2997,-1.4217,-1.4749,-1.514,-1.6343,-1.6839,-1.7001,-1.7001,-1.7001,-1.7001,-1.7001,-1.7001,-1.7001,-1.7001,-1.7001,-1.7001,-1.7001,-1.7001,-1.7001,-1.7001,-1.7001,-1.7001,-1.7001,-1.7001,-1.7001,-1.7001,-1.7001,-1.7001,-1.7001,-1.7001,-1.7001,-1.7001,-1.7195,-1.7533,-1.796,-1.8444,-1.8798,-1.9096,-1.9358,-1.9479,-1.9443,-1.9261,-1.937,-1.9805,-1.9564,-1.9588,-1.9866,-1.983,-1.9772,-1.9772,-1.9772,-1.9772,-1.9793,-1.9551,-1.9443,-1.9431,-1.9201,-1.9104,-1.9104,-1.9104,-1.9104,-1.9104,-1.9104,-1.9249,-1.9443,-2.3439,-2.3294,-2.3104,-2.2756,-2.2695,-2.2598,-2.2332,-2.2296,-2.2296,-2.2296,-2.2296,-2.2221,-2.1997,-2.1492,-2.0962,-2.034,-2.0203,-1.9963,-1.9599,-1.9611,-1.9565,-1.9416,-1.9416,-1.9141,-1.8519,-1.8407,-1.8105,-1.7663,-1.7876,-1.7905,-1.7723,-1.7723,-1.7626,-1.7497,-1.7303,-1.713,-1.7001,-1.7001,-1.7001,-1.7001,-1.7001,-1.7001,-1.6936,-1.6311,-1.6451,-1.6839,-1.5586,-1.5163,-1.5163,-1.5163,-1.5163,-1.5261,-1.5889,-1.6051,-1.6181,-1.6807,-1.7001,-1.7001,-1.7001,-1.7001,-1.7001,-1.7001,-1.7001,-1.7044,-1.7184,-1.7217,-1.7173,-1.7033,-1.7001,-1.7001,-1.7001,-1.7001,-1.7055,-1.7195,-1.7098,-1.7055,-1.7195,-1.7217,-1.726,-1.7389,-1.74,-1.74,-1.74,-1.7507,-1.7729,-1.8083,-1.854,-1.8841,-1.894,-1.9374,-1.9545,-1.939,-1.9426,-1.9485,-1.9568,-1.9661,-1.9733,-1.9806,-2.0009,-2.0026,-1.9881,-1.9881,-1.9881,-1.9881,-1.9748,-1.9733,-1.9721,-1.9612,-1.9467,-1.9322,-1.9322,-1.9237,-1.914,-1.9455,-1.9539,-1.9527]},{"header":{"parameterUnit":"m.s-1","parameterCategory":1,"la1":30.6,"la2":28.766,"lo1":-90.7593,"lo2":-88.6598,"dy":0.0162,"dx":0.0183,"nx":116,"ny":114,"refTime":"2023-04-24T06:00:00:Z","depth":0,"parameterNumber":3,"parameterNumberName":"V-component_of_WINDS"},"data":[0.0,0.0,0.0,0.0,0.0,0.0,0.0,0.0,0.0,0.0,0.0,0.0,0.0,0.0,0.0,0.0,0.0,0.0,0.0,0.0,0.0,0.0,0.0,0.0,0.0,0.0,0.0,0.0,0.0,0.0,0.0,0.0,0.0,0.0,0.0,0.0,0.0,0.0,0.0,0.0,0.0,0.0,0.0,0.0,0.0,0.0,0.0,0.0,0.0,0.0,0.0,0.0,0.0,0.0,0.0,0.0,0.0,0.0,0.0,0.0,0.0,0.0,0.0,0.0,0.0,0.0,0.0,0.0,0.0,0.0,0.0,0.0,0.0,0.0,0.0,0.0,0.0,0.0,0.0,0.0,0.0,0.0,0.0,0.0,0.0,0.0,0.0,0.0,0.0,0.0,0.0,0.0,0.0,0.0,0.0,0.0,0.0,0.0,0.0,0.0,0.0,0.0,0.0,0.0,0.0,0.0,0.0,0.0,0.0,0.0,0.0,0.0,0.0,0.0,0.0,0.0,0.0,0.0,0.0,0.0,0.0,0.0,0.0,0.0,0.0,0.0,0.0,0.0,0.0,0.0,0.0,0.0,0.0,0.0,0.0,0.0,0.0,0.0,0.0,0.0,0.0,0.0,0.0,0.0,0.0,0.0,0.0,0.0,0.0,0.0,0.0,0.0,0.0,0.0,0.0,0.0,0.0,0.0,0.0,0.0,0.0,0.0,0.0,0.0,0.0,0.0,0.0,0.0,0.0,0.0,0.0,0.0,0.0,0.0,0.0,0.0,0.0,0.0,0.0,0.0,0.0,0.0,0.0,0.0,0.0,0.0,0.0,0.0,0.0,0.0,0.0,0.0,0.0,0.0,0.0,0.0,0.0,0.0,0.0,0.0,0.0,0.0,0.0,0.0,0.0,0.0,0.0,0.0,0.0,0.0,0.0,0.0,0.0,0.0,0.0,0.0,0.0,0.0,0.0,0.0,0.0,0.0,0.0,0.0,0.0,0.0,0.0,0.0,0.0,0.0,0.0,0.0,0.0,0.0,0.0,0.0,0.0,0.0,0.0,0.0,0.0,0.0,0.0,0.0,0.0,0.0,0.0,0.0,0.0,0.0,0.0,0.0,0.0,0.0,0.0,0.0,0.0,0.0,0.0,0.0,0.0,0.0,0.0,0.0,0.0,0.0,0.0,0.0,0.0,0.0,0.0,0.0,0.0,0.0,0.0,0.0,0.0,0.0,0.0,0.0,0.0,0.0,0.0,0.0,0.0,0.0,0.0,0.0,0.0,0.0,0.0,0.0,0.0,0.0,0.0,0.0,0.0,0.0,0.0,0.0,0.0,0.0,0.0,0.0,0.0,0.0,0.0,0.0,0.0,0.0,0.0,0.0,0.0,0.0,0.0,0.0,0.0,0.0,0.0,0.0,0.0,0.0,0.0,0.0,0.0,0.0,0.0,0.0,0.0,0.0,0.0,0.0,0.0,0.0,0.0,0.0,0.0,0.0,0.0,0.0,0.0,0.0,0.0,0.0,0.0,0.0,0.0,0.0,0.0,0.0,0.0,0.0,0.0,0.0,0.0,0.0,0.0,0.0,0.0,0.0,0.0,0.0,0.0,0.0,0.0,0.0,0.0,0.0,0.0,0.0,0.0,0.0,0.0,0.0,0.0,0.0,0.0,0.0,0.0,0.0,0.0,0.0,0.0,0.0,0.0,0.0,0.0,0.0,0.0,0.0,0.0,0.0,0.0,0.0,0.0,0.0,0.0,0.0,0.0,0.0,0.0,0.0,0.0,0.0,0.0,0.0,0.0,0.0,0.0,0.0,0.0,0.0,0.0,0.0,0.0,0.0,0.0,0.0,0.0,0.0,0.0,0.0,0.0,0.0,0.0,0.0,0.0,0.0,0.0,0.0,0.0,0.0,0.0,0.0,0.0,0.0,0.0,0.0,0.0,0.0,0.0,0.0,0.0,0.0,0.0,0.0,0.0,0.0,0.0,0.0,0.0,0.0,0.0,0.0,0.0,0.0,0.0,0.0,0.0,0.0,0.0,0.0,0.0,0.0,0.0,0.0,0.0,0.0,0.0,0.0,0.0,0.0,0.0,0.0,0.0,0.0,0.0,0.0,0.0,0.0,0.0,0.0,0.0,0.0,0.0,0.0,0.0,0.0,0.0,0.0,0.0,0.0,0.0,0.0,0.0,0.0,0.0,0.0,0.0,0.0,0.0,0.0,0.0,0.0,0.0,0.0,0.0,0.0,0.0,0.0,0.0,0.0,0.0,0.0,0.0,0.0,0.0,0.0,0.0,0.0,0.0,0.0,0.0,0.0,0.0,0.0,0.0,0.0,0.0,0.0,0.0,0.0,0.0,0.0,0.0,0.0,0.0,0.0,0.0,0.0,0.0,0.0,0.0,0.0,0.0,0.0,0.0,0.0,0.0,0.0,0.0,0.0,0.0,0.0,0.0,0.0,0.0,0.0,0.0,0.0,0.0,0.0,0.0,0.0,0.0,0.0,0.0,0.0,0.0,0.0,0.0,0.0,0.0,0.0,0.0,0.0,0.0,0.0,0.0,0.0,0.0,0.0,0.0,0.0,0.0,0.0,0.0,0.0,0.0,0.0,0.0,0.0,0.0,0.0,0.0,0.0,0.0,0.0,0.0,0.0,0.0,0.0,0.0,0.0,0.0,0.0,0.0,0.0,0.0,0.0,0.0,0.0,0.0,0.0,0.0,0.0,0.0,0.0,0.0,0.0,0.0,0.0,0.0,0.0,0.0,0.0,0.0,0.0,0.0,0.0,0.0,0.0,0.0,0.0,0.0,0.0,0.0,0.0,0.0,0.0,0.0,0.0,0.0,0.0,0.0,0.0,0.0,0.0,0.0,0.0,0.0,0.0,0.0,0.0,0.0,0.0,0.0,0.0,0.0,0.0,0.0,0.0,0.0,0.0,0.0,0.0,0.0,0.0,0.0,0.0,0.0,0.0,0.0,0.0,0.0,0.0,0.0,0.0,0.0,0.0,0.0,0.0,0.0,0.0,0.0,0.0,0.0,0.0,0.0,0.0,0.0,0.0,0.0,0.0,0.0,0.0,0.0,0.0,0.0,0.0,0.0,0.0,0.0,0.0,0.0,0.0,0.0,0.0,0.0,0.0,0.0,0.0,0.0,0.0,0.0,0.0,0.0,0.0,0.0,0.0,0.0,0.0,0.0,0.0,0.0,0.0,0.0,0.0,0.0,0.0,0.0,0.0,0.0,0.0,0.0,0.0,0.0,0.0,0.0,0.0,0.0,0.0,0.0,0.0,0.0,0.0,0.0,0.0,0.0,0.0,0.0,0.0,0.0,0.0,0.0,0.0,0.0,0.0,0.0,0.0,0.0,0.0,0.0,0.0,0.0,0.0,0.0,0.0,0.0,0.0,0.0,0.0,0.0,0.0,0.0,0.0,0.0,0.0,0.0,0.0,0.0,0.0,0.0,0.0,0.0,0.0,0.0,0.0,0.0,0.0,0.0,0.0,0.0,0.0,0.0,0.0,0.0,0.0,0.0,0.0,0.0,0.0,0.0,0.0,0.0,0.0,0.0,0.0,0.0,0.0,0.0,0.0,0.0,0.0,0.0,0.0,0.0,0.0,0.0,0.0,0.0,0.0,0.0,0.0,0.0,0.0,0.0,0.0,0.0,0.0,0.0,0.0,0.0,0.0,0.0,0.0,0.0,0.0,0.0,0.0,0.0,0.0,0.0,0.0,0.0,0.0,0.0,0.0,0.0,0.0,0.0,0.0,0.0,0.0,0.0,0.0,0.0,0.0,0.0,0.0,0.0,0.0,0.0,0.0,0.0,0.0,0.0,0.0,0.0,0.0,0.0,0.0,0.0,0.0,0.0,0.0,0.0,0.0,0.0,0.0,0.0,0.0,0.0,0.0,0.0,0.0,0.0,0.0,0.0,0.0,0.0,0.0,0.0,0.0,0.0,0.0,0.0,0.0,0.0,0.0,0.0,0.0,0.0,0.0,0.0,0.0,0.0,0.0,0.0,0.0,0.0,0.0,0.0,0.0,0.0,0.0,0.0,0.0,0.0,0.0,0.0,0.0,0.0,0.0,0.0,0.0,0.0,0.0,0.0,0.0,0.0,0.0,0.0,0.0,0.0,0.0,0.0,0.0,0.0,0.0,0.0,0.0,0.0,0.0,0.0,0.0,0.0,0.0,0.0,0.0,0.0,0.0,0.0,0.0,0.0,0.0,0.0,0.0,0.0,0.0,0.0,0.0,0.0,0.0,0.0,0.0,0.0,0.0,0.0,0.0,0.0,0.0,0.0,0.0,0.0,0.0,0.0,0.0,0.0,0.0,0.0,0.0,0.0,0.0,0.0,0.0,0.0,0.0,0.0,0.0,0.0,0.0,0.0,0.0,0.0,0.0,0.0,0.0,0.0,0.0,0.0,0.0,0.0,0.0,0.0,0.0,0.0,0.0,0.0,0.0,0.0,0.0,0.0,0.0,0.0,0.0,0.0,0.0,0.0,0.0,0.0,0.0,0.0,0.0,0.0,0.0,0.0,0.0,0.0,0.0,0.0,0.0,0.0,0.0,0.0,0.0,0.0,0.0,0.0,0.0,0.0,0.0,0.0,0.0,0.0,0.0,0.0,0.0,0.0,0.0,0.0,0.0,0.0,0.0,0.0,0.0,0.0,0.0,0.0,0.0,0.0,0.0,0.0,0.0,0.0,0.0,0.0,0.0,0.0,0.0,0.0,0.0,0.0,0.0,0.0,0.0,0.0,0.0,0.0,0.0,0.0,0.0,0.0,0.0,0.0,0.0,0.0,0.0,0.0,0.0,0.0,0.0,0.0,0.0,0.0,0.0,0.0,0.0,0.0,0.0,0.0,0.0,0.0,0.0,0.0,0.0,0.0,0.0,0.0,0.0,0.0,0.0,0.0,0.0,0.0,0.0,0.0,0.0,0.0,0.0,0.0,0.0,0.0,0.0,0.0,0.0,0.0,0.0,0.0,0.0,0.0,0.0,0.0,0.0,0.0,0.0,0.0,0.0,0.0,0.0,0.0,0.0,0.0,0.0,0.0,0.0,0.0,0.0,0.0,0.0,0.0,0.0,0.0,0.0,0.0,0.0,0.0,0.0,0.0,0.0,0.0,0.0,0.0,0.0,0.0,0.0,0.0,0.0,0.0,0.0,0.0,0.0,0.0,0.0,0.0,0.0,0.0,0.0,0.0,0.0,0.0,0.0,0.0,0.0,0.0,0.0,0.0,0.0,0.0,0.0,0.0,0.0,0.0,0.0,0.0,0.0,0.0,0.0,0.0,0.0,0.0,0.0,0.0,0.0,0.0,0.0,0.0,0.0,0.0,0.0,0.0,0.0,0.0,0.0,0.0,0.0,0.0,0.0,0.0,0.0,0.0,0.0,0.0,0.0,0.0,0.0,0.0,0.0,0.0,0.0,0.0,0.0,0.0,0.0,0.0,0.0,0.0,0.0,0.0,0.0,0.0,0.0,0.0,0.0,0.0,0.0,0.0,0.0,0.0,0.0,0.0,0.0,0.0,0.0,0.0,0.0,0.0,0.0,0.0,0.0,0.0,0.0,0.0,0.0,0.0,0.0,0.0,0.0,0.0,0.0,0.0,0.0,0.0,0.0,0.0,0.0,0.0,0.0,0.0,0.0,0.0,0.0,0.0,0.0,0.0,0.0,0.0,0.0,0.0,0.0,0.0,0.0,0.0,0.0,0.0,0.0,0.0,0.0,0.0,0.0,0.0,0.0,0.0,0.0,0.0,0.0,0.0,0.0,0.0,0.0,0.0,0.0,0.0,0.0,0.0,0.0,0.0,0.0,0.0,0.0,0.0,0.0,0.0,0.0,0.0,0.0,0.0,0.0,0.0,0.0,0.0,0.0,0.0,0.0,0.0,0.0,0.0,0.0,0.0,0.0,0.0,0.0,0.0,0.0,0.0,0.0,0.0,0.0,0.0,0.0,0.0,0.0,0.0,0.0,0.0,0.0,0.0,0.0,0.0,0.0,0.0,0.0,0.0,0.0,0.0,0.0,0.0,0.0,0.0,0.0,0.0,0.0,0.0,0.0,0.0,0.0,0.0,0.0,0.0,0.0,2.1992,0.0,0.0,0.0,0.0,0.0,0.0,0.0,0.0,0.0,0.0,0.0,0.0,0.0,0.0,0.0,0.0,0.0,0.0,0.0,0.0,0.0,0.0,0.0,0.0,0.0,0.0,0.0,0.0,0.0,0.0,0.0,0.0,0.0,0.0,0.0,0.0,0.0,0.0,3.4554,3.5447,3.6087,3.658,3.658,3.6346,3.5916,0.0,0.0,0.0,0.0,0.0,0.0,0.0,0.0,0.0,0.0,0.0,0.0,0.0,0.0,0.0,0.0,0.0,0.0,0.0,0.0,0.0,0.0,0.0,0.0,0.0,0.0,0.0,0.0,0.0,0.0,0.0,0.0,0.0,0.0,0.0,0.0,0.0,0.0,0.0,0.0,0.0,0.0,0.0,0.0,0.0,0.0,0.0,0.0,0.0,0.0,0.0,0.0,0.0,0.0,0.0,0.0,0.0,0.0,0.0,0.0,0.0,0.0,0.0,0.0,0.0,0.0,0.0,0.0,0.0,0.0,0.0,2.3249,0.0,0.0,0.0,0.0,0.0,0.0,0.0,0.0,0.0,0.0,0.0,0.0,0.0,0.0,0.0,0.0,0.0,0.0,0.0,0.0,0.0,0.0,0.0,3.6311,3.5958,3.6072,3.611,3.611,0.0,0.0,0.0,0.0,0.0,0.0,3.5054,3.5546,3.595,3.625,3.7425,3.8594,3.9698,3.9858,3.9547,3.8843,3.7946,0.0,0.0,0.0,0.0,0.0,0.0,0.0,0.0,0.0,0.0,0.0,0.0,0.0,0.0,0.0,0.0,0.0,0.0,0.0,0.0,0.0,0.0,0.0,0.0,0.0,0.0,0.0,0.0,0.0,0.0,0.0,0.0,0.0,0.0,0.0,0.0,0.0,0.0,0.0,0.0,0.0,0.0,0.0,0.0,0.0,0.0,0.0,0.0,0.0,0.0,0.0,0.0,0.0,0.0,0.0,0.0,0.0,0.0,0.0,0.0,0.0,0.0,0.0,3.3251,3.4105,3.5535,3.5383,3.5047,3.4295,2.9649,2.7661,2.7642,0.0,0.0,0.0,0.0,0.0,0.0,0.0,0.0,0.0,0.0,0.0,0.0,0.0,0.0,0.0,0.0,0.0,0.0,0.0,0.0,0.0,0.0,3.6636,3.6867,3.7637,3.7718,3.7718,3.7718,0.0,0.0,0.0,0.0,0.0,3.7593,3.6963,3.7125,3.805,4.0497,4.2516,4.4084,4.4886,4.5208,4.4934,4.0446,3.8415,3.8376,0.0,0.0,0.0,0.0,0.0,0.0,0.0,0.0,0.0,0.0,0.0,0.0,0.0,0.0,0.0,0.0,0.0,0.0,0.0,0.0,0.0,0.0,0.0,0.0,0.0,0.0,0.0,0.0,0.0,0.0,0.0,0.0,0.0,0.0,0.0,0.0,0.0,0.0,0.0,0.0,0.0,2.8041,2.8095,0.0,0.0,0.0,0.0,0.0,0.0,0.0,0.0,0.0,0.0,0.0,0.0,0.0,0.0,3.6588,3.7394,3.7939,3.8222,3.9,3.9466,3.9697,3.8975,3.8985,3.9388,3.6497,0.0,3.1202,2.9515,0.0,0.0,0.0,0.0,0.0,0.0,0.0,0.0,0.0,0.0,0.0,0.0,0.0,0.0,0.0,0.0,0.0,0.0,0.0,0.0,0.0,3.8277,3.8819,3.8742,4.0896,4.1243,3.8896,4.0085,0.0,0.0,0.0,3.7612,3.7991,3.8579,4.0051,4.2434,4.422,4.5702,4.6946,4.7367,4.7636,4.7627,4.5325,4.2982,4.0601,3.8805,0.0,0.0,0.0,0.0,0.0,0.0,0.0,0.0,0.0,0.0,0.0,0.0,0.0,0.0,0.0,0.0,0.0,0.0,0.0,0.0,0.0,0.0,0.0,0.0,0.0,0.0,0.0,0.0,0.0,0.0,0.0,0.0,0.0,0.0,0.0,0.0,0.0,0.0,0.0,3.0008,3.1334,3.0251,3.1678,3.1928,0.0,0.0,0.0,0.0,0.0,0.0,0.0,0.0,0.0,3.7406,3.8236,3.9307,4.0651,4.1958,4.2865,4.344,4.429,4.4979,4.547,4.4665,4.421,4.4029,4.2383,4.0098,3.727,3.4222,3.2205,3.0925,0.0,0.0,0.0,0.0,0.0,2.9304,0.0,0.0,0.0,0.0,0.0,0.0,0.0,0.0,0.0,0.0,0.0,0.0,3.9189,4.0777,4.1824,4.1897,4.4359,4.4397,4.0819,4.1743,4.1123,3.8123,3.7758,3.7728,3.7912,4.026,4.317,4.6561,4.8041,4.9329,5.037,5.0449,5.067,5.0974,5.0324,4.7688,4.3566,4.0991,3.9665,3.9079,0.0,0.0,0.0,0.0,0.0,0.0,0.0,0.0,0.0,0.0,0.0,0.0,0.0,0.0,0.0,0.0,0.0,0.0,0.0,0.0,0.0,0.0,0.0,0.0,0.0,0.0,0.0,0.0,0.0,0.0,0.0,0.0,0.0,0.0,0.0,0.0,0.0,3.2728,3.4299,3.2262,3.4704,3.545,0.0,0.0,0.0,0.0,0.0,0.0,3.6292,3.8512,4.0258,4.1227,4.2101,4.3252,4.4704,4.5965,4.7023,4.7974,4.8621,4.9296,4.9942,4.9096,4.8254,4.7416,4.633,4.4744,4.2682,3.862,3.5957,3.4453,3.4312,3.3601,3.2706,3.3133,3.3429,3.3646,0.0,0.0,0.0,0.0,0.0,0.0,0.0,0.0,0.0,0.0,0.0,3.9223,4.2381,4.4299,4.6283,4.8663,4.7625,4.6043,4.4162,4.1897,3.9858,3.8084,3.7168,3.7084,3.7962,4.2028,4.5779,4.9219,5.182,5.3917,5.5524,5.559,5.6118,5.6871,5.4502,5.1174,4.7158,4.4543,4.2475,4.0836,3.9157,0.0,0.0,0.0,0.0,0.0,0.0,0.0,0.0,0.0,0.0,0.0,0.0,0.0,0.0,0.0,0.0,0.0,0.0,0.0,0.0,0.0,0.0,0.0,0.0,0.0,0.0,0.0,0.0,0.0,0.0,0.0,0.0,0.0,0.0,0.0,0.0,0.0,0.0,3.3128,3.872,0.0,0.0,0.0,0.0,3.7555,3.9047,4.0687,4.2288,4.3975,4.567,4.7297,4.8181,4.9066,4.9901,5.0015,5.0474,5.1359,5.1397,5.1441,5.1447,5.0574,4.9738,4.8897,4.7171,4.6369,4.5969,4.1986,3.938,3.7784,3.6944,3.7088,3.7621,3.6848,3.7105,3.7821,0.0,0.0,0.0,0.0,0.0,0.0,0.0,0.0,3.7156,3.7485,4.0165,4.2932,4.5252,4.85,5.1087,5.2549,5.3131,5.1977,4.8629,4.6047,4.3355,4.0581,3.8558,3.9173,4.282,4.6491,5.0288,5.4248,5.5771,5.7129,5.8206,5.7796,5.7811,5.8136,5.7305,5.5802,5.3558,4.8413,4.5519,4.4193,4.1343,3.9859,0.0,0.0,0.0,0.0,0.0,0.0,0.0,0.0,0.0,0.0,0.0,0.0,0.0,0.0,0.0,0.0,0.0,0.0,0.0,0.0,0.0,0.0,0.0,0.0,0.0,0.0,0.0,0.0,0.0,0.0,0.0,0.0,0.0,0.0,0.0,0.0,0.0,4.0079,4.3738,0.0,4.1636,4.1927,4.2636,4.3349,4.4977,4.6697,4.8389,5.0059,5.1238,5.1849,5.269,5.3034,5.2766,5.3301,5.3448,5.3225,5.3225,5.3225,5.3148,5.1767,5.0665,4.9824,4.8684,4.7837,4.7193,4.5208,4.3154,4.1176,4.0407,3.9914,3.9729,3.9992,4.0271,4.0639,0.0,0.0,0.0,0.0,0.0,0.0,0.0,0.0,3.7694,3.8327,4.2091,4.5704,4.8294,5.2385,5.5511,5.694,5.6747,5.4741,5.0495,4.7029,4.3479,3.9773,3.9365,4.1646,4.6726,5.0417,5.4337,5.8537,5.9462,6.0317,6.11,6.0371,5.9904,5.9721,5.9491,5.8959,5.7873,5.2986,4.9759,4.7678,4.4537,4.3138,4.2475,0.0,0.0,0.0,0.0,0.0,0.0,0.0,0.0,0.0,0.0,0.0,0.0,0.0,0.0,0.0,0.0,0.0,0.0,0.0,0.0,0.0,0.0,0.0,0.0,0.0,0.0,0.0,0.0,0.0,0.0,0.0,0.0,0.0,0.0,0.0,4.4499,4.5306,4.8373,4.9521,4.7253,4.7313,4.7903,4.8984,5.0671,5.2123,5.3225,5.4639,5.5365,5.5365,5.5938,5.5823,5.4944,5.5517,5.5365,5.4524,5.4524,5.4371,5.4065,5.2652,5.1538,5.0659,4.9601,4.876,4.8181,4.7297,4.601,4.4506,4.3458,4.2702,4.2285,4.2857,4.3054,4.3142,0.0,0.0,0.0,0.0,0.0,0.0,3.55,3.6192,3.7332,3.8984,4.2983,4.7308,5.1531,5.5791,5.9396,6.1941,5.8209,5.3918,4.9692,4.4567,3.9852,3.5695,3.9617,4.4294,4.9413,5.3651,5.7834,6.1952,6.2802,6.3618,6.4353,6.3518,6.2744,6.2068,6.1306,6.0555,5.975,5.825,5.5276,5.1334,4.8769,4.7195,4.6025,0.0,0.0,0.0,0.0,0.0,0.0,0.0,0.0,0.0,0.0,0.0,0.0,0.0,0.0,0.0,0.0,0.0,0.0,0.0,0.0,0.0,0.0,0.0,0.0,0.0,0.0,0.0,0.0,0.0,0.0,0.0,0.0,0.0,4.1695,4.6068,4.8968,4.8307,5.2517,5.4231,5.0991,5.2829,5.4218,5.4256,5.5747,5.6708,5.6708,5.7504,5.7963,5.7925,5.7963,5.7542,5.6632,5.6632,5.6243,5.5435,5.5396,5.4976,5.4104,5.3231,5.2384,5.1538,4.9868,4.9142,4.9066,4.8214,4.7832,4.7641,4.5965,4.5395,4.5436,4.5342,4.5283,4.5309,0.0,0.0,0.0,0.0,0.0,0.0,3.55,3.6667,3.7963,3.9104,4.4512,4.9702,5.3379,5.7582,6.1127,6.3705,5.8867,5.4666,5.2259,4.5571,4.1157,3.998,4.3948,4.889,5.4609,5.8351,6.1972,6.5561,6.5852,6.6076,6.6238,6.5486,6.4935,6.46,6.4526,6.4004,6.3164,6.2892,6.1384,5.8761,5.3324,5.0242,4.8688,0.0,0.0,0.0,0.0,0.0,0.0,0.0,0.0,0.0,0.0,0.0,0.0,0.0,0.0,0.0,0.0,0.0,0.0,0.0,0.0,0.0,0.0,0.0,0.0,0.0,0.0,0.0,0.0,0.0,0.0,0.0,0.0,4.6522,4.6167,4.9371,5.262,5.4881,5.6893,5.7734,5.6791,5.6785,5.7084,5.7689,5.8147,5.8689,5.9307,5.9574,5.9415,5.8797,5.9376,5.9001,5.7542,5.7542,5.7122,5.625,5.567,5.5282,5.4976,5.3492,5.2696,5.2384,5.0703,4.9977,4.9901,4.906,4.8372,4.7679,4.6615,4.6167,4.6101,4.5517,4.5283,4.5326,0.0,0.0,0.0,0.0,0.0,0.0,3.55,3.6594,3.7974,3.9585,4.5371,5.0673,5.4126,5.8225,6.1361,6.2822,5.7532,5.2899,5.0118,4.4407,4.2253,4.4775,4.9238,5.3996,5.8894,6.274,6.5781,6.8046,6.8446,6.8433,6.8018,6.756,6.6939,6.6193,6.6319,6.5884,6.5077,6.5228,6.4712,6.3417,5.8932,5.5919,5.376,5.0707,4.9366,4.898,4.7965,4.7432,4.6812,4.4027,0.0,0.0,0.0,0.0,0.0,0.0,0.0,0.0,0.0,0.0,0.0,0.0,0.0,0.0,0.0,0.0,0.0,0.0,0.0,0.0,0.0,0.0,0.0,0.0,4.8433,5.2429,5.2996,5.476,5.6976,5.9682,6.0401,6.0707,6.0707,6.0248,6.0026,6.0134,6.0134,6.0217,6.0377,6.0415,6.0186,5.9644,6.0148,5.9765,5.8421,5.8077,5.7466,5.6594,5.5785,5.5396,5.5358,5.3951,5.3339,0.0,5.1926,5.1162,5.0812,5.0321,4.9633,0.0,0.0,0.0,0.0,0.0,4.5588,4.5283,0.0,0.0,0.0,0.0,0.0,0.0,3.55,3.6192,3.7619,4.0169,4.5513,5.0394,5.3703,5.762,6.0083,6.0269,5.4814,4.9665,4.5663,4.2876,4.3995,4.9897,5.5012,5.9371,6.2828,6.6788,6.9183,6.9927,7.071,7.0604,6.974,6.9824,6.9047,6.7567,6.7689,6.73,6.6583,6.659,6.6551,6.634,6.4801,6.263,5.9762,5.4908,5.398,5.4935,5.2604,5.0808,4.9415,4.8365,0.0,0.0,0.0,0.0,0.0,0.0,0.0,0.0,0.0,0.0,0.0,0.0,0.0,0.0,0.0,0.0,0.0,0.0,0.0,0.0,0.0,0.0,0.0,0.0,5.3407,5.7931,6.0453,6.0912,6.1447,6.2732,6.2999,6.2999,6.2923,6.2999,6.2701,6.1822,6.1669,6.1287,6.0568,0.0,0.0,0.0,0.0,6.0033,5.9255,5.8459,5.7657,5.6861,5.6052,5.5632,5.5511,5.4639,5.418,5.4065,5.3187,5.2346,5.1614,5.1614,5.1041,4.9939,4.7564,4.6648,4.6609,4.6418,4.5965,0.0,0.0,0.0,0.0,0.0,0.0,0.0,3.55,3.6192,3.7619,4.0169,4.4509,4.8432,5.113,5.4005,5.6209,5.7509,5.2241,4.7827,4.5563,4.6732,4.9853,5.5113,6.0233,6.4509,6.7858,7.014,7.1704,7.2494,7.2716,7.2422,7.1664,7.2395,7.2143,7.1147,7.1926,7.1734,7.0899,7.0955,7.0597,6.9866,6.8905,6.6194,6.2486,5.953,5.8175,5.762,5.5799,5.5385,5.5152,5.1552,5.09,5.0825,4.6297,4.2796,0.0,0.0,0.0,0.0,0.0,0.0,0.0,0.0,0.0,0.0,0.0,0.0,0.0,0.0,0.0,0.0,0.0,0.0,0.0,5.3303,5.72,6.053,6.309,6.4007,6.4038,6.2999,6.3503,6.3656,6.2961,6.3541,6.3579,6.2693,6.2013,6.1516,6.1363,6.0759,0.0,6.0415,6.0415,6.0339,6.0148,5.93,5.8797,5.8606,0.0,0.0,5.632,5.5517,5.4753,5.4065,5.3187,5.2346,5.1614,5.1614,5.0703,4.9219,4.8028,4.7564,4.7373,4.6042,4.5851,4.6194,0.0,0.0,0.0,0.0,0.0,0.0,3.55,3.5846,3.685,3.8973,4.2239,4.5154,4.726,4.9341,5.0727,5.1107,4.7652,4.5793,4.6602,5.0275,5.5036,6.0949,6.5297,6.8544,7.0563,7.2333,7.3238,7.3192,7.4083,7.3913,7.2765,7.3649,7.3611,7.2803,7.3301,7.3255,7.2811,7.2846,7.2591,7.2122,7.1283,6.9958,6.8132,6.4778,6.2727,6.149,6.0747,5.962,5.8156,5.5705,5.4834,5.4132,5.0232,4.7517,4.5038,0.0,0.0,0.0,0.0,0.0,0.0,0.0,0.0,0.0,0.0,0.0,0.0,0.0,0.0,4.5357,4.7026,0.0,5.4025,5.7443,6.0776,6.3358,6.4619,6.5528,6.5757,6.4909,6.4802,6.4955,6.5375,6.5031,6.4611,6.4191,6.335,6.251,6.1669,6.1211,6.0835,6.0415,6.0415,6.0415,6.0415,5.9529,5.9102,5.9102,5.8268,5.7434,5.6594,5.6167,5.5556,5.4715,5.4295,5.3378,5.2155,5.1308,5.0474,4.9639,4.8793,4.7908,4.7144,4.7193,4.6882,4.6495,0.0,0.0,0.0,0.0,0.0,0.0,0.0,3.5615,3.6115,3.7777,3.9927,4.1881,4.3393,4.4872,4.5323,4.4255,4.3967,4.5186,4.8393,5.3782,5.9664,6.6054,6.97,7.1811,7.2379,7.3905,7.4357,7.3659,7.5017,7.4949,7.3552,7.4435,7.4434,7.3738,7.3892,7.4007,7.4007,7.4007,7.4007,7.393,7.3206,7.3245,7.3315,6.9513,6.7051,6.5538,6.496,6.2238,5.8925,5.8879,5.737,5.5265,5.3851,5.2543,5.0451,4.4973,4.3343,0.0,0.0,0.0,0.0,0.0,0.0,0.0,0.0,4.5788,4.6738,4.88,4.9979,5.1261,5.3286,5.5989,5.8679,6.1072,6.3547,6.5261,6.5605,6.6254,6.6743,6.6904,6.6178,6.6178,6.7561,6.6598,6.5757,6.5413,6.481,6.3663,6.1936,6.1707,6.1211,6.0415,6.0415,6.0415,6.0415,5.9682,5.9331,5.9331,5.8689,5.7925,5.7084,5.6938,5.6396,5.5626,5.5282,5.4333,5.2925,5.1238,5.0544,5.0474,4.9633,4.8372,4.715,4.8378,4.7837,4.6609,0.0,0.0,0.0,0.0,0.0,0.0,0.0,0.0,3.6115,3.7777,3.8934,3.9935,4.0816,4.1736,4.1618,3.9929,4.4466,4.8498,5.1019,5.7521,6.3591,6.8767,7.2324,7.4205,7.4197,7.5037,7.5416,7.534,7.5531,7.52,7.4481,7.5357,7.5318,7.4584,7.5361,7.5707,7.5707,7.5707,7.5707,7.5707,7.5592,7.5168,7.4353,7.236,7.0591,6.8744,6.5698,6.0975,5.6477,5.8649,5.6811,5.3995,5.6762,5.5976,5.3348,4.9653,4.6488,4.3393,3.9858,3.9092,3.9898,4.2147,4.33,4.5687,0.0,5.355,5.3993,5.7162,5.9063,6.0237,6.0511,6.1451,6.2799,6.4623,6.4587,6.4848,6.6369,6.6628,6.698,6.7676,6.7056,6.6636,6.6827,6.7324,6.6988,6.549,6.5337,6.4535,6.2846,6.2013,6.1211,6.0415,6.0415,6.0415,6.0415,6.03,6.0262,6.0262,6.0148,5.9644,5.8797,5.8077,5.7275,5.6365,5.4906,5.4142,5.3836,5.2149,5.1461,5.1385,5.0512,4.9601,4.8722,4.8181,4.7335,4.6495,0.0,0.0,0.0,0.0,0.0,0.0,0.0,0.0,0.0,3.6504,3.685,3.7189,3.7516,3.7782,3.7674,3.693,4.2296,4.7409,5.1409,5.8502,6.5057,7.0555,7.3621,7.513,7.5085,7.5936,7.6127,7.5599,7.5649,7.5547,7.5357,7.5734,7.571,7.5402,7.5787,7.594,7.594,7.594,7.597,7.6015,7.6015,7.5476,7.4476,7.2283,6.9475,6.6205,6.232,5.8396,0.0,5.5044,5.4236,5.3621,5.6011,5.5049,5.239,4.951,4.6586,4.4077,4.3098,4.2815,4.3532,4.6518,4.9362,5.2494,5.6709,5.8898,6.0615,6.2463,6.4217,6.535,6.5313,6.5589,6.6224,0.0,6.6545,6.6063,6.7209,6.6139,6.5528,6.633,6.5299,6.5062,6.6552,6.6101,6.565,6.5413,6.5413,6.4879,6.3732,6.3312,6.2479,6.1134,6.1096,6.0874,6.0415,6.0415,6.0415,6.0415,6.0415,5.995,5.9102,5.8758,5.7886,5.6517,5.483,5.4104,5.3951,5.2302,5.1882,5.2155,5.0818,5.0092,4.9748,4.9404,4.8716,4.8067,0.0,0.0,0.0,0.0,0.0,0.0,0.0,0.0,0.0,0.0,3.55,3.5486,3.5409,3.5352,3.5334,3.5312,4.0087,4.5376,5.0643,5.7486,6.4064,7.021,7.2884,7.4459,7.4852,7.5498,7.5889,7.5902,7.5471,7.5469,7.5817,7.5817,7.5718,7.5511,7.5764,7.5887,7.5887,7.5918,7.5802,7.563,7.563,7.4861,7.336,7.0591,6.659,6.2044,5.8511,5.4549,5.0818,4.9543,4.8928,4.9082,5.1471,5.1279,4.9813,4.7932,4.5427,4.3517,4.4733,4.54,4.6804,5.1268,5.5371,5.897,6.1388,6.3889,6.5955,6.698,6.7822,6.8311,6.8257,6.8058,6.8211,6.9043,6.7973,6.74,6.8432,6.6453,6.5039,6.5375,6.3732,6.319,6.4802,6.4695,6.4695,6.5031,6.549,6.5299,6.4275,6.4198,6.3396,6.1669,6.1593,6.1211,6.0415,6.0415,6.0415,6.0415,6.0415,6.0071,5.9453,5.8988,5.7963,5.6517,5.5097,5.4448,5.4333,5.2875,5.2614,5.2996,5.1314,5.0665,5.0621,5.0397,4.9633,4.8875,0.0,0.0,0.0,0.0,0.0,0.0,0.0,0.0,0.0,0.0,0.0,0.0,0.0,3.5476,3.543,3.5315,3.8539,4.3077,4.889,5.4194,6.0091,6.6848,6.9517,7.162,7.3215,7.322,7.4363,7.6656,7.5042,7.4712,7.5608,7.5608,7.5228,7.458,7.5511,7.5887,7.5895,7.5978,7.5507,7.4738,7.4738,7.3245,7.0667,6.7321,6.2397,5.7006,5.5241,4.9279,4.2196,4.2119,3.9927,3.7927,4.2162,4.4551,4.5782,4.571,4.3261,4.1139,4.3598,4.539,4.8335,5.581,6.0207,6.3801,6.7935,6.8975,6.951,7.1153,7.0274,6.9166,6.9158,6.8478,6.8211,6.9043,6.8432,6.8432,7.0105,6.8195,6.633,6.549,6.3159,6.1363,0.0,6.3503,6.5031,6.4275,6.5757,6.5948,6.4275,6.4198,6.3396,6.1669,6.1593,6.1211,6.0415,6.0415,6.0415,6.0415,6.0415,6.0377,6.03,5.8689,5.7466,5.6556,5.5708,5.5358,5.5282,5.4409,5.4027,5.3874,5.2225,5.1576,5.1461,5.0627,4.9245,4.7946,0.0,0.0,0.0,0.0,0.0,0.0,0.0,0.0,0.0,0.0,0.0,0.0,0.0,0.0,0.0,0.0,3.7479,4.0355,4.4063,5.0056,5.5205,5.9185,6.4984,6.8066,6.8021,7.0271,7.1572,7.1778,7.1864,7.2057,7.2356,7.241,7.2502,7.2738,7.3085,7.3561,7.4058,7.4098,7.3676,7.28,7.178,6.948,6.6217,6.234,5.6775,5.0505,0.0,4.1816,3.8154,3.6447,3.5493,3.5699,3.9377,3.9765,3.9115,4.0165,4.1238,4.3109,4.7831,5.1532,5.539,6.0742,6.5001,6.8386,7.0389,7.1306,7.1565,7.0954,6.8203,6.5536,6.4382,6.2586,6.2288,6.5383,6.6063,6.6909,6.8856,6.792,6.5889,6.2827,6.2195,0.0,0.0,0.0,0.0,6.3274,6.4382,6.5039,6.4993,6.4993,6.4458,6.3358,6.2777,6.2051,6.1211,6.0683,6.0415,6.0415,6.0415,6.0415,6.0339,5.8657,5.7734,5.7396,5.6008,5.5396,5.532,5.4448,5.4448,5.4791,5.3072,5.2384,5.2346,5.2079,5.0894,4.9513,0.0,0.0,0.0,0.0,0.0,0.0,0.0,0.0,0.0,0.0,0.0,0.0,0.0,0.0,0.0,0.0,0.0,3.7798,4.0735,4.5141,4.893,5.1787,5.7666,6.0561,5.9953,6.2359,6.3679,6.3754,6.4984,6.5762,6.6157,6.7702,6.8509,6.8633,6.9352,7.0103,7.0869,7.0668,6.9414,6.7424,6.6128,6.2828,5.8289,5.4995,4.9894,0.0,3.9165,3.6154,3.4057,3.1815,3.1671,3.291,3.595,3.7075,3.7586,3.9191,4.1843,4.5716,5.245,5.6683,6.0523,6.5994,6.9578,7.1901,7.2482,7.2329,7.1311,6.8602,6.4703,6.1079,5.8737,5.6477,5.6456,6.0989,6.2117,6.3685,6.7345,6.6598,6.4784,6.2378,6.1793,6.0899,0.0,0.0,0.0,6.2102,6.3291,6.4119,6.4499,6.4787,6.455,6.3761,6.2916,6.2043,6.1161,6.0371,5.9961,5.9961,5.9961,5.9961,5.9923,5.8243,5.7543,5.7606,5.5892,5.5266,5.5358,5.4791,5.4906,5.5244,5.3836,5.3263,5.3225,5.2925,5.2123,5.1162,0.0,0.0,0.0,0.0,0.0,0.0,0.0,0.0,0.0,0.0,0.0,0.0,0.0,0.0,0.0,0.0,0.0,0.0,3.8735,3.9754,4.1647,4.4856,4.8105,4.984,4.9802,5.0556,5.1813,5.3518,5.5147,5.6487,5.7554,6.1578,6.303,6.238,6.4099,6.5319,6.6068,6.5449,6.2775,5.8879,5.8083,5.3813,4.7731,4.6052,4.2281,3.7623,3.5164,3.2635,3.0212,2.8413,2.8532,2.9866,3.2391,3.6635,4.1042,4.2869,4.5232,4.9001,5.7263,6.0783,6.3885,7.1221,7.3628,7.4155,7.4061,7.196,6.8771,6.4329,5.987,5.5796,5.2372,5.0458,5.1024,5.608,5.7103,5.9443,6.5772,6.468,6.3476,6.4053,0.0,0.0,0.0,0.0,0.0,6.1014,0.0,6.3301,6.2981,6.3693,6.3711,6.2923,6.2172,6.1346,6.0473,5.9656,5.9243,5.9206,5.9206,5.9206,5.9131,5.7441,5.6911,5.7185,5.5489,5.4983,5.5357,5.5357,5.5364,5.5301,5.446,5.4129,5.4027,5.3225,5.2887,5.2696,0.0,0.0,0.0,0.0,0.0,0.0,0.0,0.0,0.0,0.0,0.0,0.0,0.0,0.0,0.0,0.0,0.0,0.0,3.432,3.6381,3.7827,3.8383,4.3499,4.6224,4.6013,4.8029,4.9315,4.9766,5.0825,5.146,5.1736,5.2883,5.3681,5.4206,5.4732,5.5167,5.5511,5.537,5.393,5.1699,5.0993,4.8476,4.501,4.3372,4.0389,3.6888,3.5619,3.4274,3.2572,2.8992,3.0433,3.4269,3.7469,4.0615,4.415,4.8958,5.2156,5.5702,6.283,6.6904,6.9884,7.3093,7.4049,7.3797,7.2222,6.8569,6.4008,5.8849,5.2515,4.6857,4.3567,4.3982,4.632,5.0711,5.6529,6.1823,6.5631,6.7167,6.7047,6.477,6.4499,6.3812,6.2044,6.1868,0.0,0.0,6.2405,6.2626,6.3731,6.3984,6.3721,6.2915,6.2707,6.2209,6.1383,6.051,5.9797,5.9206,5.9206,5.9206,5.9131,5.7441,5.6781,5.6755,5.5137,5.4479,5.4597,5.4597,5.4746,5.4916,5.4726,5.441,5.4142,5.46,5.3913,5.2849,0.0,0.0,0.0,0.0,0.0,0.0,0.0,0.0,0.0,0.0,0.0,0.0,0.0,0.0,0.0,0.0,0.0,0.0,0.0,3.3707,3.4205,3.4069,3.7821,3.9678,3.9131,4.0766,4.1467,4.1085,4.3034,4.3997,4.412,4.601,4.7263,4.7941,4.8338,4.887,4.9378,4.9109,4.7558,0.0,0.0,4.2214,3.9146,3.822,3.6696,3.4965,3.4503,3.4962,3.5752,3.5542,3.784,4.1327,4.4384,4.7563,5.1178,5.6352,5.9406,6.2369,6.8363,7.1642,7.3675,7.4966,7.4059,7.1867,6.8204,6.3685,5.8213,5.1058,4.5416,4.0954,3.8308,3.9118,4.1903,4.7166,5.3329,5.9138,6.3929,6.6408,6.7418,6.6592,6.6309,6.557,6.4039,6.3576,6.3448,0.0,6.291,6.2758,6.3505,6.3903,6.3729,6.2884,6.2501,6.1932,6.1151,6.0285,5.9653,5.9206,5.8845,5.8659,5.8632,5.6958,5.6301,5.6351,0.0,5.4132,5.4288,5.4288,5.4405,5.4583,5.4583,5.4428,5.4266,5.4895,5.4524,5.3783,0.0,0.0,0.0,0.0,0.0,0.0,0.0,0.0,0.0,0.0,0.0,0.0,0.0,0.0,0.0,0.0,0.0,0.0,0.0,0.0,3.1506,3.1826,3.2845,3.3102,3.2447,3.2931,3.2827,3.2089,3.5043,3.6594,3.6925,4.0553,4.2473,4.2898,4.3627,4.4456,4.5227,4.4603,4.2527,3.9603,3.9031,3.6511,3.3083,0.0,3.3237,3.3276,3.3385,3.5427,3.8864,4.4183,4.7149,4.9154,5.2097,5.5803,5.9865,6.3996,6.6215,6.8403,7.3148,7.4884,7.5492,7.6126,7.3401,6.9064,6.3177,5.8108,5.2057,4.2941,3.9004,3.6776,3.5305,3.5742,3.8515,4.5287,4.9645,5.4693,6.1949,6.4407,6.6316,6.8641,6.7687,6.6512,6.5705,6.4897,6.447,6.458,6.3995,6.3464,6.3001,6.3686,6.3686,6.2829,6.2034,6.119,6.0419,5.971,5.9269,5.9049,5.8327,5.7997,5.796,5.6429,5.5865,5.596,0.0,0.0,5.4328,5.4328,5.4354,5.436,5.4248,5.4245,5.4322,5.4631,5.4731,5.4784,0.0,0.0,0.0,0.0,0.0,0.0,0.0,0.0,0.0,0.0,3.6,3.5731,0.0,0.0,0.0,0.0,0.0,0.0,0.0,0.0,0.0,3.3137,3.3332,3.3654,3.4141,3.4091,3.404,3.3992,3.4609,3.5274,3.6032,3.654,3.7376,3.8497,3.8427,3.8373,3.8329,3.8191,3.6999,3.5266,3.5913,3.5276,3.4048,3.4773,0.0,0.0,3.5815,3.7294,4.0031,4.7131,5.1067,5.3803,5.841,6.2333,6.5849,6.9365,7.0596,7.1545,7.4723,7.5047,7.4352,7.4039,7.0972,6.6277,5.9517,5.3402,4.6887,3.8921,3.4756,3.2674,3.3004,3.4869,3.8631,4.5791,5.0345,5.5537,6.2842,6.5264,6.6953,6.8678,6.8628,6.8164,6.737,6.6549,0.0,0.0,0.0,6.4656,6.3919,6.4029,6.3686,6.2829,6.2034,6.119,6.0419,6.0272,5.9538,5.8217,5.807,5.7997,5.796,5.7005,5.6242,5.5657,0.0,0.0,5.4375,5.4375,5.4542,5.4735,5.4065,5.4007,5.4296,5.4355,5.438,5.443,0.0,0.0,0.0,0.0,0.0,0.0,0.0,3.6462,3.7042,3.793,3.6927,3.6269,3.6657,3.6346,3.5962,0.0,0.0,0.0,0.0,0.0,0.0,3.3807,3.3709,3.4035,3.4841,3.4641,3.4667,3.5037,0.0,3.5312,3.606,3.6118,3.6535,3.7252,3.7165,3.7169,3.7285,3.7152,3.6733,3.6073,3.6105,3.5888,3.5507,3.55,0.0,0.0,3.5944,3.7686,4.0496,4.5036,4.9658,5.4657,6.1454,6.5605,6.8317,6.9922,7.1956,7.3818,7.4454,7.5418,7.5823,7.4416,6.9881,6.3715,5.5697,4.8907,4.2057,3.4118,3.1231,3.0534,3.1751,3.3984,3.7323,4.2498,4.7452,5.2737,5.8816,6.2511,6.5655,6.8568,6.8885,6.8898,6.8949,6.7847,6.7297,0.0,0.0,6.6182,6.5375,6.4543,6.3686,6.2829,6.2438,6.2022,6.1655,6.0811,6.0015,5.9245,5.84,5.7997,5.796,5.7189,5.6602,5.6198,5.5768,0.0,5.5023,5.5023,5.5116,5.5196,5.4384,5.4172,5.4304,5.4065,5.3989,5.4043,0.0,0.0,0.0,0.0,0.0,0.0,0.0,3.685,3.7546,3.9088,3.8123,3.7196,3.7004,3.6811,3.6504,0.0,0.0,0.0,0.0,0.0,0.0,0.0,0.0,0.0,3.5407,0.0,0.0,3.573,3.5624,0.0,0.0,0.0,0.0,0.0,3.7748,3.7973,3.8342,3.8265,3.821,0.0,0.0,3.6888,0.0,0.0,0.0,0.0,0.0,3.7282,3.9937,4.2215,4.6564,5.2347,5.9838,6.4664,6.7668,6.8241,7.1171,7.4188,7.3944,7.5451,7.6531,7.3972,6.8306,6.1027,5.2084,4.5169,3.8513,3.1048,2.9402,2.9854,3.1825,3.3433,3.5775,3.9753,4.3975,4.8783,5.452,5.9208,6.36,6.7857,6.8678,0.0,6.9779,6.8545,0.0,0.0,0.0,0.0,6.6292,6.4714,6.3503,6.2829,6.2793,6.2646,6.2279,6.1031,6.0236,5.9869,5.8584,5.7997,5.796,5.7336,5.6957,5.6774,5.6308,0.0,0.0,5.5879,5.5879,5.5768,5.495,5.4546,5.4369,5.4011,5.376,5.3633,0.0,0.0,0.0,0.0,0.0,0.0,0.0,3.735,3.8238,3.9165,3.9165,3.8742,3.7969,3.7157,3.7004,0.0,0.0,0.0,0.0,0.0,0.0,0.0,0.0,0.0,0.0,0.0,0.0,3.6509,3.6497,0.0,0.0,0.0,0.0,0.0,0.0,3.9646,3.9919,4.0125,0.0,0.0,0.0,0.0,0.0,0.0,0.0,0.0,0.0,3.615,3.7639,4.1571,4.3828,4.5788,5.0358,5.6607,6.2739,6.507,6.7872,7.0951,7.4158,7.4703,7.3507,6.9825,6.4555,5.7961,4.9023,4.2848,3.7515,3.2248,3.0668,3.1084,3.4094,3.3647,3.4864,4.1075,4.1911,4.4737,5.3298,5.7398,6.1325,6.6145,6.8017,0.0,6.9009,6.8201,0.0,0.0,0.0,0.0,6.5435,6.382,6.2866,6.2793,6.2793,6.2095,6.0627,6.0481,5.9685,5.8217,5.807,5.7997,5.7997,5.7923,5.7483,5.6847,0.0,0.0,0.0,5.6712,5.6712,5.6602,5.5805,5.5034,5.4399,5.4332,5.3865,5.3303,0.0,0.0,0.0,0.0,0.0,0.0,3.658,3.7427,3.8315,3.9204,3.9281,3.9358,3.9473,3.8277,3.7234,3.6542,0.0,0.0,0.0,0.0,0.0,0.0,0.0,0.0,0.0,0.0,3.5938,3.7143,3.7064,0.0,0.0,0.0,0.0,0.0,0.0,4.0148,4.0343,4.0342,0.0,0.0,0.0,0.0,0.0,0.0,0.0,0.0,0.0,0.0,3.6227,3.7893,3.9318,4.0509,4.1126,4.5092,5.0744,5.6856,6.175,6.5653,6.7862,7.1561,7.3754,6.9445,6.4141,5.7883,4.9903,4.3264,3.7389,3.2488,3.1219,3.1397,3.2608,3.2302,3.2889,3.5965,3.7441,4.0304,4.6287,5.1169,5.6297,6.2144,6.4714,6.6769,0.0,0.0,0.0,0.0,0.0,0.0,6.5325,6.42,6.3356,6.2829,6.2793,6.2242,6.1117,6.0639,5.982,5.8719,5.8217,5.7997,5.7997,5.7997,5.7813,5.7556,0.0,0.0,0.0,5.7519,5.7519,5.7373,5.6099,5.5401,5.4997,5.4032,5.3471,5.3235,0.0,0.0,0.0,0.0,0.0,3.5769,3.658,3.7234,3.793,3.8819,3.8703,3.8857,3.9665,3.8277,3.6888,3.5923,3.5276,0.0,0.0,0.0,0.0,0.0,0.0,0.0,0.0,0.0,3.6624,3.7657,3.7798,3.8551,0.0,0.0,4.0182,4.0144,0.0,0.0,0.0,0.0,0.0,0.0,0.0,0.0,0.0,0.0,0.0,0.0,0.0,0.0,0.0,0.0,0.0,3.6934,3.5733,3.7225,4.0915,4.8781,5.5039,5.9858,6.1874,6.7262,7.1316,6.7097,6.1994,5.6179,4.9071,4.2245,3.6341,3.2637,3.1691,3.1642,3.2034,3.1904,3.2008,3.2809,3.4608,3.7323,4.1368,4.6838,5.2307,5.7336,0.0,6.3478,0.0,6.7333,0.0,0.0,0.0,0.0,0.0,6.4016,6.3429,6.2829,6.2793,6.2279,6.1263,6.0676,5.9893,5.8829,5.8253,5.7997,5.7997,5.7997,5.7997,5.7997,0.0,0.0,0.0,5.7997,5.7997,5.785,5.6503,5.5805,5.5438,5.4069,5.3398,5.3214,0.0,0.0,0.0,0.0,0.0,0.0,3.658,3.6696,3.7042,3.7892,3.7273,3.7042,3.793,3.6542,3.5846,3.6619,3.6696,0.0,0.0,0.0,0.0,0.0,0.0,0.0,0.0,0.0,3.6346,3.8004,3.8854,3.97,4.0504,4.0291,4.0205,4.0205,0.0,0.0,0.0,0.0,0.0,0.0,0.0,0.0,0.0,0.0,0.0,0.0,0.0,0.0,0.0,0.0,0.0,0.0,0.0,3.4878,3.5457,4.1912,4.8112,5.3764,5.7697,6.2022,6.4617,6.13,5.6915,5.1674,4.5137,3.8737,3.387,3.2901,3.2115,3.2047,3.3503,3.3103,3.2846,3.366,3.4497,3.6428,4.0545,4.603,5.0225,0.0,5.5611,5.9024,6.1459,0.0,0.0,0.0,0.0,0.0,0.0,6.2829,6.2793,6.2793,6.2793,6.2022,6.0419,6.0419,5.9612,5.7997,5.7997,5.7997,5.7997,5.7997,5.7997,0.0,0.0,0.0,0.0,5.7997,5.7997,5.7923,5.7116,5.6308,5.5511,5.4693,5.3875,5.3214,0.0,0.0,0.0,0.0,0.0,0.0,0.0,3.6346,3.6811,3.7081,3.7388,3.77,3.7969,3.7004,3.6423,3.6696,3.6192,0.0,0.0,0.0,0.0,0.0,0.0,0.0,0.0,0.0,3.7469,3.8007,3.8857,3.9704,4.0516,4.0422,4.0397,4.0397,4.0397,4.0397,0.0,0.0,0.0,0.0,0.0,0.0,0.0,0.0,0.0,0.0,0.0,0.0,0.0,0.0,0.0,0.0,0.0,0.0,0.0,3.7218,4.1348,4.5806,4.8268,5.2103,5.4719,5.2003,4.894,4.5506,4.1338,3.7084,3.3647,3.225,3.1746,3.1863,3.2799,3.2766,3.325,3.5202,3.6193,3.7558,3.9937,4.5672,5.0592,5.3309,6.0137,6.4947,0.0,0.0,0.0,0.0,0.0,0.0,0.0,6.3123,6.2793,6.2793,6.2291,6.1484,6.0419,5.9857,5.9049,5.7997,5.7997,5.7997,5.7997,5.7997,0.0,0.0,0.0,0.0,0.0,5.7997,5.7997,5.785,5.6503,5.5805,5.5438,5.4069,5.3434,5.3225,0.0,0.0,0.0,0.0,0.0,0.0,0.0,3.5923,3.6231,3.6231,3.6734,3.7157,3.7469,3.6734,3.6385,3.6657,3.6231,0.0,0.0,0.0,0.0,0.0,0.0,0.0,0.0,3.7392,3.8007,3.8007,3.8857,3.9704,4.0477,4.0208,4.0208,4.0516,4.0516,4.0516,0.0,0.0,0.0,0.0,0.0,0.0,3.55,0.0,0.0,0.0,0.0,0.0,0.0,0.0,0.0,0.0,0.0,0.0,0.0,0.0,3.6595,3.922,4.1744,4.5206,4.7637,4.58,4.3495,4.1074,3.8538,3.543,3.2816,3.1794,3.1831,3.2164,3.2535,3.2608,3.3136,3.4651,3.5576,3.6677,3.8293,4.413,4.9858,5.4326,0.0,0.0,0.0,0.0,0.0,0.0,0.0,0.0,0.0,6.3086,6.2646,6.2352,6.2144,6.1667,6.086,6.004,5.9233,5.8437,5.8143,5.7997,5.7997,5.7997,0.0,0.0,0.0,0.0,0.0,5.7997,5.7997,5.785,5.6565,5.5879,5.5438,5.4142,5.3471,5.3198,0.0,0.0,0.0,0.0,0.0,0.0,0.0,3.55,3.55,3.55,3.55,3.5769,3.6542,3.5962,3.5808,3.6542,0.0,0.0,0.0,0.0,0.0,0.0,0.0,0.0,3.55,3.7157,3.8007,3.8007,3.8934,3.9785,4.0477,3.9746,3.9781,4.0516,4.0516,4.0477,4.0362,0.0,0.0,0.0,0.0,0.0,0.0,0.0,0.0,0.0,0.0,0.0,0.0,0.0,0.0,0.0,0.0,0.0,0.0,0.0,0.0,0.0,0.0,4.0748,4.2595,4.1813,3.9952,3.7926,3.639,3.3752,0.0,3.1616,3.2207,3.268,3.2621,3.2647,3.274,3.2852,3.358,3.4724,3.6347,4.2286,0.0,0.0,5.8877,0.0,0.0,0.0,0.0,0.0,0.0,0.0,0.0,6.2793,6.2426,6.1643,6.2328,6.2279,6.1447,6.0639,5.9857,5.9123,5.8364,5.7997,5.7997,5.7997,0.0,0.0,0.0,0.0,0.0,5.7997,5.7997,5.7923,5.7042,5.6271,5.5511,5.462,5.3849,5.3198,0.0,0.0,0.0,0.0,0.0,0.0,0.0,0.0,0.0,0.0,3.55,3.5577,3.5769,3.5615,3.5577,0.0,0.0,0.0,0.0,0.0,0.0,0.0,0.0,0.0,3.55,3.7157,3.8007,3.8007,3.9473,4.0323,4.0516,4.0323,4.0323,4.0516,4.0516,4.0169,3.955,3.9396,0.0,0.0,0.0,0.0,0.0,0.0,0.0,0.0,3.55,3.55,0.0,0.0,0.0,0.0,0.0,0.0,0.0,0.0,3.4442,3.3789,3.4878,0.0,3.4574,3.4233,3.3821,3.3414,0.0,3.2163,3.1622,3.168,3.1793,3.2029,3.2568,3.2679,3.3298,3.5142,3.6633,3.7918,3.8917,4.6764,0.0,5.8731,6.3246,0.0,0.0,0.0,0.0,0.0,0.0,0.0,0.0,6.2793,6.2426,6.1643,6.1777,6.119,5.9783,5.8988,5.8474,5.829,5.8107,5.7997,5.7997,5.7997,0.0,0.0,0.0,0.0,5.7997,5.7997,5.7997,5.785,5.6429,5.5768,5.5438,5.3995,5.3361,5.3198,0.0,0.0,0.0,0.0,0.0,0.0,0.0,0.0,0.0,0.0,0.0,3.55,3.55,3.55,0.0,0.0,0.0,0.0,0.0,0.0,0.0,0.0,0.0,3.6231,3.6657,3.793,3.8588,3.8588,3.9511,4.0131,4.0477,4.0131,4.0169,4.0516,4.0516,3.9819,3.8703,3.8703,3.7738,0.0,3.6154,0.0,0.0,0.0,0.0,0.0,3.55,3.55,0.0,3.55,3.55,3.55,0.0,0.0,0.0,0.0,3.4956,3.4353,3.4486,3.353,3.2521,3.2369,3.2435,3.2548,3.2806,3.2477,3.2182,3.2253,3.2532,3.2736,3.271,3.3011,3.3809,3.5429,3.7397,4.0157,0.0,0.0,5.6565,6.0958,6.453,0.0,0.0,0.0,0.0,0.0,0.0,0.0,0.0,6.2254,6.1704,6.0529,6.0493,6.0272,5.9747,5.8939,5.8535,5.8535,5.818,5.7997,5.7997,5.7997,0.0,0.0,0.0,0.0,5.7997,5.7997,5.7997,5.7923,5.7053,5.6246,5.5475,5.462,5.3838,5.3235,0.0,0.0,0.0,0.0,0.0,0.0,0.0,0.0,0.0,0.0,0.0,0.0,0.0,0.0,0.0,0.0,0.0,0.0,0.0,0.0,0.0,0.0,3.7311,3.7119,3.7969,3.8857,3.9281,3.9281,3.9281,3.9665,4.0285,3.9473,3.955,4.0323,4.0169,3.9319,3.8007,3.7853,3.6927,3.55,3.55,0.0,0.0,0.0,0.0,0.0,0.0,0.0,0.0,3.55,3.55,3.55,3.55,0.0,0.0,0.0,0.0,0.0,3.5186,3.4557,3.3821,3.3489,3.3505,3.3702,3.4129,3.3568,3.3013,3.308,3.3648,3.3932,3.3393,3.4102,3.5054,3.598,3.8513,0.0,5.0355,5.4248,5.7873,6.1949,0.0,0.0,0.0,0.0,0.0,0.0,0.0,0.0,0.0,6.141,6.075,5.9269,5.9196,5.9453,6.0015,5.9343,5.9013,5.9013,5.8327,5.7997,5.7997,5.7997,5.7997,0.0,0.0,0.0,5.7997,5.7997,5.8008,5.8031,5.7921,5.694,5.5629,5.553,5.4527,5.3261,0.0,0.0,0.0,0.0,0.0,0.0,0.0,0.0,0.0,0.0,0.0,0.0,0.0,0.0,0.0,0.0,0.0,0.0,0.0,0.0,0.0,4.0054,3.793,3.7119,3.7969,3.8857,3.9281,3.9281,3.9281,3.9358,3.9473,3.8588,3.8665,3.9434,3.8703,3.8238,3.7969,3.7196,3.635,3.55,3.55,0.0,0.0,0.0,0.0,0.0,0.0,0.0,0.0,3.55,3.55,3.55,3.55,0.0,0.0,0.0,0.0,0.0,3.5186,3.5945,3.6333,3.4781,3.4904,3.518,3.4375,3.4043,3.3938,3.4006,3.4049,3.4463,3.5709,3.7204,3.8891,4.085,4.5017,4.9415,0.0,0.0,6.0072,6.0688,0.0,0.0,0.0,0.0,0.0,0.0,0.0,0.0,0.0,0.0,6.015,5.9233,5.9196,5.8939,5.8364,5.8253,5.818,5.818,5.807,5.7997,5.7997,5.7997,5.7997,0.0,0.0,5.7997,5.7997,5.7997,5.8065,5.8119,5.7409,5.6617,5.5781,5.5101,5.4252,5.3487,0.0,0.0,0.0,0.0,0.0,0.0,0.0,0.0,0.0,0.0,0.0,0.0,0.0,0.0,0.0,0.0,0.0,0.0,0.0,0.0,3.8742,4.0439,3.8973,3.8507,3.9319,3.9742,4.0165,4.0662,4.0662,4.0392,3.9938,3.8627,3.8473,3.9242,3.8392,3.8007,3.793,3.7081,3.6231,3.55,0.0,0.0,0.0,0.0,0.0,0.0,0.0,0.0,0.0,0.0,3.55,3.55,3.55,0.0,0.0,0.0,0.0,0.0,3.5186,3.5847,3.6406,3.5989,3.616,3.6184,3.5138,3.4494,3.4297,3.481,3.4866,3.5452,3.7491,3.9222,4.1969,4.6909,5.1096,5.4743,5.7537,5.9499,6.1087,0.0,0.0,0.0,0.0,0.0,0.0,0.0,0.0,0.0,0.0,0.0,5.938,5.8572,5.8535,5.8364,5.7997,5.7997,5.7997,5.7997,5.7997,5.7997,5.7997,5.7997,5.7997,5.7997,0.0,5.8031,5.8099,5.8099,5.8204,5.8279,5.791,5.7268,5.6462,5.518,5.4519,5.4199,0.0,0.0,0.0,0.0,0.0,0.0,0.0,0.0,0.0,0.0,0.0,0.0,0.0,0.0,0.0,0.0,0.0,0.0,0.0,0.0,3.9165,4.0439,3.99,3.9861,4.0477,4.0704,4.1123,4.1812,4.1812,4.1162,3.9896,3.82,3.7853,3.8665,3.7815,3.7507,3.7623,3.6773,3.6077,3.55,0.0,0.0,0.0,0.0,0.0,0.0,0.0,0.0,0.0,0.0,0.0,0.0,0.0,0.0,0.0,3.5196,3.5051,3.4872,3.4827,3.5319,3.5874,3.6261,3.6792,3.7205,3.7209,3.6674,3.6563,3.7826,3.7937,3.8437,4.063,4.2823,4.6131,5.173,5.5716,5.8813,6.0836,6.135,0.0,0.0,0.0,0.0,0.0,0.0,0.0,0.0,0.0,0.0,0.0,0.0,5.8657,5.8079,5.802,5.7997,5.7997,5.7997,5.7997,5.7997,5.7997,5.7997,5.7997,5.7997,5.7997,5.7997,5.7997,5.8065,5.8179,5.8179,5.8305,5.8437,5.8437,5.793,5.7075,5.541,5.4832,5.4818,0.0,0.0,0.0,0.0,0.0,0.0,0.0,0.0,0.0,0.0,0.0,0.0,0.0,0.0,0.0,0.0,0.0,0.0,0.0,0.0,4.0362,4.0477,4.0439,4.0439,4.0516,4.1277,4.1735,4.1812,4.1812,4.0542,3.8123,3.6465,3.6115,3.685,3.6038,3.6077,3.6734,3.5923,3.5538,3.55,3.55,0.0,0.0,0.0,0.0,0.0,0.0,0.0,0.0,0.0,0.0,0.0,0.0,0.0,3.4279,3.4279,3.4134,3.397,3.3783,3.474,3.5578,3.4641,3.6142,3.8596,4.1616,4.224,4.2835,4.5212,4.5109,4.5077,4.6701,5.0084,5.2858,5.3588,5.7655,6.1048,6.1963,0.0,0.0,0.0,0.0,0.0,0.0,0.0,0.0,0.0,0.0,0.0,0.0,0.0,0.0,5.8167,5.8054,5.7997,5.7997,5.7997,5.7997,5.7997,5.7997,5.7997,5.7997,5.7997,5.7997,5.7997,5.7997,5.8065,5.8179,5.8179,5.8312,5.8508,5.8508,5.809,5.7293,5.5585,5.4991,5.4889,0.0,0.0,0.0,0.0,0.0,0.0,0.0,0.0,0.0,0.0,0.0,0.0,0.0,0.0,0.0,0.0,0.0,0.0,0.0,3.9588,4.0516,4.0516,4.0516,4.0516,4.0516,4.0819,4.0973,4.0973,4.0469,3.9469,3.7969,3.6273,3.5923,3.6657,3.5846,3.5962,3.6657,3.5846,3.55,3.55,3.55,3.55,0.0,0.0,0.0,0.0,0.0,0.0,0.0,0.0,3.55,3.55,3.55,3.4891,3.4189,3.4064,3.3949,3.3831,3.3516,3.5308,3.7279,3.7253,3.912,4.1021,4.1244,4.2879,4.4915,4.6847,4.7813,4.877,5.0406,5.3188,5.5599,5.6672,6.0104,6.2717,0.0,0.0,0.0,0.0,0.0,0.0,0.0,0.0,0.0,0.0,0.0,0.0,0.0,0.0,0.0,5.8327,5.8282,5.826,5.826,5.8156,5.8111,5.8111,5.8031,5.7997,5.7997,5.7997,5.8042,5.8111,5.8111,5.8223,5.84,5.84,5.8486,5.855,5.8068,5.7431,5.6692,5.606,5.58,5.5763,0.0,0.0,0.0,0.0,0.0,0.0,0.0,0.0,0.0,0.0,0.0,0.0,0.0,0.0,0.0,0.0,0.0,0.0,3.7969,3.9319,4.0246,4.0477,4.0516,4.0362,4.0131,4.0131,4.0246,4.0516,3.9434,3.8588,3.7969,3.6273,3.5808,3.6308,3.5731,3.5657,3.5888,3.5615,3.5346,3.5119,3.5385,3.55,0.0,0.0,0.0,0.0,0.0,0.0,0.0,0.0,3.5469,3.5363,3.5144,3.4407,3.3592,3.3536,3.3399,3.3323,3.3308,3.5486,3.7891,3.8535,4.0977,4.328,4.3771,4.5629,4.7961,5.0636,5.2039,5.293,5.3311,5.4983,5.6655,0.0,6.0693,6.2922,0.0,0.0,0.0,0.0,0.0,0.0,0.0,0.0,0.0,0.0,0.0,0.0,0.0,0.0,0.0,0.0,5.8156,5.8134,5.8393,5.7788,5.7608,5.7866,5.7482,5.7573,5.8054,5.8054,5.8122,5.8271,5.8271,5.8345,5.8481,5.8222,5.8026,5.787,5.735,5.6766,5.6283,5.5986,5.5874,5.5837,0.0,0.0,0.0,0.0,0.0,0.0,0.0,0.0,0.0,0.0,0.0,0.0,0.0,0.0,0.0,0.0,0.0,0.0,3.7969,3.8819,3.9669,4.0477,4.0516,4.0131,3.9319,3.9281,3.9665,4.0477,3.8819,3.7969,3.793,3.6273,3.55,3.55,3.55,3.5003,3.4241,3.5119,3.5003,3.4279,3.5157,3.55,3.55,0.0,0.0,0.0,0.0,0.0,0.0,0.0,3.5361,3.5066,3.4424,3.3379,3.2437,3.2569,3.2364,3.231,3.3114,3.5016,3.6941,3.7752,4.1014,4.5324,5.0302,5.1416,5.2791,5.7685,5.8725,5.7982,5.5493,5.5753,5.632,5.632,5.9069,0.0,0.0,0.0,0.0,0.0,0.0,0.0,0.0,0.0,0.0,0.0,0.0,0.0,0.0,0.0,0.0,0.0,5.7597,5.7507,5.8367,5.672,5.6314,5.709,5.6277,5.6693,5.8179,5.8179,5.8282,5.8393,5.8393,5.8422,5.8407,5.763,5.6887,5.6283,5.6283,5.6283,5.6172,5.5307,5.501,5.4899,0.0,0.0,0.0,0.0,0.0,0.0,0.0,0.0,0.0,0.0,0.0,0.0,0.0,0.0,0.0,0.0,0.0,0.0,3.8857,3.9704,4.0246,4.0477,4.0516,4.04,4.0169,3.8973,3.82,3.7815,3.7311,3.6811,3.6234,3.5731,3.5157,3.4587,3.4587,3.4087,3.3356,3.4241,3.4433,3.4279,3.5157,3.55,3.55,0.0,0.0,0.0,0.0,0.0,0.0,0.0,0.0,0.0,3.4255,3.3243,3.2411,3.2463,3.3312,3.4352,3.4723,3.809,4.1587,4.2083,4.4841,4.8296,5.1528,5.2234,5.3311,5.71,5.9245,5.969,5.7202,5.787,5.8465,5.7323,0.0,0.0,0.0,0.0,0.0,0.0,0.0,0.0,0.0,0.0,0.0,0.0,0.0,0.0,0.0,0.0,0.0,0.0,5.6685,5.6665,5.6924,5.6323,5.6171,5.6393,5.605,5.6441,5.7441,5.7441,5.7802,5.8439,5.7883,5.7688,5.7707,5.6938,5.6142,5.5382,5.5382,5.5057,5.4574,5.4899,5.501,5.5047,0.0,0.0,0.0,0.0,0.0,0.0,0.0,0.0,0.0,0.0,3.55,3.55,0.0,0.0,0.0,0.0,0.0,0.0,0.0,3.9742,4.0169,4.0477,4.0516,4.0208,3.9511,3.8161,3.7081,3.6231,3.6231,3.5962,3.55,3.5846,3.5542,3.4737,3.5045,3.4545,3.3471,3.4353,3.451,3.4279,3.5157,3.55,3.55,0.0,0.0,0.0,0.0,0.0,0.0,0.0,0.0,0.0,3.4069,3.3314,3.2779,3.2765,3.3984,3.5423,3.5876,3.9524,4.3523,4.4712,4.7441,5.0525,5.2977,5.4834,5.6756,5.9393,6.0582,6.0853,5.9653,5.917,0.0,5.8502,0.0,0.0,0.0,0.0,0.0,0.0,0.0,0.0,0.0,0.0,0.0,0.0,0.0,0.0,0.0,0.0,0.0,0.0,5.5939,5.5949,5.632,5.5545,5.5357,5.5653,5.5259,5.5478,5.6292,5.6583,5.7032,5.7592,5.711,5.6732,5.6459,5.5976,5.528,5.4527,5.4527,5.423,5.3859,5.4342,5.4527,5.4602,0.0,0.0,0.0,0.0,0.0,0.0,0.0,0.0,0.0,0.0,3.5507,3.5542,0.0,0.0,0.0,0.0,0.0,0.0,0.0,0.0,3.9746,4.0477,4.0439,3.9627,3.8046,3.7157,3.6308,3.55,3.55,3.55,3.5538,3.6231,3.6154,3.5423,3.608,3.5507,3.4125,3.4926,3.485,3.4279,3.5042,3.5423,3.55,3.5423,0.0,0.0,0.0,0.0,0.0,0.0,0.0,0.0,3.386,3.3415,3.3199,3.3275,3.4298,3.5634,3.6643,3.9816,4.3467,4.6149,4.9522,5.2791,5.5122,5.8613,6.1633,6.2699,6.2068,6.1473,6.1956,5.9738,5.8289,0.0,0.0,0.0,0.0,0.0,0.0,0.0,0.0,0.0,0.0,0.0,0.0,0.0,0.0,0.0,0.0,0.0,0.0,0.0,5.5307,5.527,5.606,5.4574,5.4156,0.0,5.4156,5.4193,5.4936,5.5653,5.6071,5.6172,5.6172,5.5689,5.4899,5.4899,5.4453,5.3784,5.3784,5.3784,5.3784,5.3784,5.3784,5.3784,0.0,0.0,0.0,0.0,0.0,0.0,0.0,0.0,0.0,0.0,0.0,0.0,0.0,0.0,0.0,0.0,0.0,0.0,0.0,0.0,4.0323,4.0477,3.99,3.9088,3.8007,3.7157,3.6308,3.55,3.55,3.55,3.55,3.5692,3.5311,3.4472,3.3968,3.3506,3.3199,3.3391,3.3737,3.4205,3.4395,3.4891,3.5423,3.4737,3.4891,0.0,0.0,0.0,0.0,0.0,0.0,0.0,3.33,3.2903,3.2497,3.3119,3.3993,3.5342,3.7892,4.0802,4.4122,4.8289,5.371,5.8539,6.0396,6.151,6.1325,5.8475,6.0147,6.1585,5.9802,5.9998,6.011,0.0,0.0,0.0,0.0,0.0,0.0,0.0,0.0,0.0,0.0,0.0,0.0,0.0,0.0,0.0,0.0,0.0,0.0,5.4342,5.4156,5.4166,5.4351,5.397,5.3896,0.0,5.3859,5.3896,5.4082,5.4879,5.5251,5.527,5.527,5.4825,5.4044,5.4044,5.397,5.3784,5.3784,5.3784,5.3784,5.3784,5.3784,5.3784,0.0,0.0,0.0,0.0,0.0,0.0,0.0,0.0,0.0,0.0,0.0,0.0,0.0,0.0,0.0,0.0,0.0,0.0,0.0,0.0,4.0531,4.0516,3.9319,3.8469,3.8007,3.6773,3.5923,3.55,3.55,3.5692,3.6077,3.6077,3.5811,3.5391,3.493,3.4503,3.4119,3.3699,3.3779,3.4167,3.3741,3.3853,3.4196,3.3737,3.3853,3.4196,3.3737,0.0,0.0,0.0,0.0,0.0,0.0,0.0,3.2871,3.3071,3.431,3.6135,3.8461,4.1292,4.4909,5.0486,5.5642,5.9653,6.0916,6.1213,6.0582,5.8465,5.9728,6.0805,5.9505,5.9653,0.0,0.0,0.0,0.0,0.0,0.0,0.0,0.0,0.0,0.0,0.0,0.0,0.0,0.0,0.0,0.0,0.0,5.4416,5.423,5.3831,5.3784,5.3784,5.3784,5.3784,5.3784,5.3784,5.3423,5.3237,5.3227,5.4044,5.4416,5.4416,5.4416,5.4193,5.3784,5.3784,5.3784,5.3784,5.3784,5.3784,5.3784,5.3784,5.3784,5.3784,0.0,0.0,0.0,0.0,0.0,0.0,0.0,0.0,0.0,0.0,0.0,0.0,0.0,0.0,0.0,0.0,0.0,0.0,0.0,0.0,0.0,4.0292,3.8823,3.793,3.7777,3.6273,3.55,3.55,3.55,3.6154,3.735,3.6773,3.65,3.6504,3.635,3.5965,3.5423,3.4587,3.4279,3.4356,3.3314,3.3006,3.3083,3.2814,3.2763,3.2859,3.2705,3.2537,3.2523,3.3203,0.0,0.0,0.0,0.0,3.3284,3.3084,3.4445,3.6451,3.8198,4.1497,4.5955,5.2224,5.605,5.8576,5.9653,5.969,5.9579,5.9839,5.9802,5.969,5.969,5.9133,0.0,0.0,0.0,0.0,0.0,0.0,0.0,0.0,0.0,0.0,0.0,0.0,0.0,0.0,0.0,0.0,5.3599,5.345,5.3385,5.3385,5.3385,5.3385,5.3385,5.3385,5.345,5.3562,5.294,5.2531,5.2419,5.3088,5.3534,5.3784,5.3784,5.3784,5.3784,5.3784,5.3784,5.3784,5.3784,5.3784,5.3784,5.3784,5.3784,5.3784,0.0,0.0,0.0,0.0,0.0,0.0,0.0,0.0,0.0,0.0,3.8125,3.8424,0.0,0.0,0.0,0.0,0.0,0.0,0.0,0.0,0.0,3.9479,3.8526,3.7661,3.6888,3.5962,3.55,3.55,3.55,3.7042,3.9935,3.7004,3.5654,3.5615,3.4853,3.4891,3.5423,3.4587,3.4622,3.5192,3.3545,3.3356,3.3856,3.2391,3.2202,3.2633,3.1872,3.1466,3.1315,3.1455,3.0928,0.0,0.0,0.0,3.2379,3.2847,3.3218,3.3999,3.6377,4.1505,4.7404,5.2531,5.5233,5.7212,5.9393,5.8836,5.8205,5.9616,5.9356,5.8873,5.8873,0.0,0.0,0.0,0.0,0.0,0.0,0.0,0.0,0.0,0.0,0.0,0.0,0.0,0.0,0.0,0.0,0.0,5.2754,5.2085,5.1714,5.1714,5.1714,5.1714,5.1714,5.1714,5.2085,5.2754,5.2642,5.2234,5.1565,5.1676,5.2494,5.3784,5.3784,5.3784,5.3784,5.3784,5.3784,5.3784,5.3784,5.3784,5.3784,5.3784,5.3784,5.3784,0.0,0.0,0.0,0.0,0.0,0.0,0.0,0.0,0.0,0.0,0.0,3.9628,0.0,0.0,0.0,0.0,0.0,0.0,0.0,0.0,0.0,3.9332,3.7987,3.7081,3.6696,3.5923,3.55,3.55,3.55,3.6965,3.9785,3.8315,3.8392,3.9696,3.7857,3.7011,3.6811,3.5503,3.4853,3.4615,3.2774,3.2548,3.3112,3.1429,3.122,3.1717,3.1051,3.066,3.0514,3.1226,3.0806,3.0209,3.1238,0.0,0.0,0.0,3.2958,3.4222,3.6711,4.1163,4.5955,4.9485,5.2308,5.476,5.6719,5.6979,5.7026,5.7722,5.7621,5.7499,0.0,0.0,0.0,0.0,0.0,0.0,0.0,0.0,0.0,0.0,0.0,0.0,0.0,0.0,0.0,0.0,0.0,5.2605,5.2605,5.1825,5.1416,5.1416,5.1416,5.1416,5.1416,5.1416,5.1342,5.1231,5.1676,5.1491,5.0711,5.1193,5.1788,5.2494,5.294,5.3116,5.3153,5.3599,5.3784,5.3784,5.3784,5.3784,5.3784,5.3784,5.3784,5.3784,0.0,0.0,0.0,0.0,0.0,0.0,0.0,0.0,0.0,0.0,0.0,0.0,0.0,0.0,0.0,0.0,0.0,0.0,0.0,0.0,0.0,3.8695,3.7413,3.6584,3.6402,3.5825,3.5517,3.5517,3.5517,3.7014,3.9935,3.9935,4.1508,4.4239,4.1277,3.92,3.793,3.6657,3.5619,3.465,3.2784,3.2405,3.2768,3.1238,3.096,3.1302,3.0758,0.0,0.0,0.0,3.0774,3.0233,3.0872,3.1643,0.0,0.0,0.0,3.4705,3.6971,3.9974,4.3132,4.603,4.8779,5.1342,5.3562,5.4611,5.5243,5.5837,5.58,5.5912,0.0,0.0,0.0,0.0,0.0,0.0,0.0,0.0,0.0,0.0,0.0,0.0,0.0,0.0,0.0,0.0,0.0,5.1964,5.1964,5.1193,5.0748,5.0748,5.0748,5.0748,5.0748,5.0971,5.0673,4.981,5.0673,5.0636,4.981,5.0488,5.0748,5.0822,5.1862,5.2419,5.2642,5.3227,5.3599,5.3784,5.3784,5.3784,5.3784,5.3784,5.3784,5.3784,0.0,0.0,0.0,0.0,0.0,0.0,0.0,0.0,0.0,0.0,0.0,0.0,4.0739,4.0774,4.0816,4.0816,0.0,0.0,0.0,0.0,0.0,3.7,3.6776,0.0,3.5563,3.5525,3.5486,3.5486,3.5486,3.762,4.1658,4.1658,4.3889,4.7658,4.3504,4.0312,3.8007,3.7892,3.735,3.6412,3.4535,3.3815,3.3719,3.2619,3.2119,3.1974,0.0,0.0,0.0,0.0,0.0,0.0,0.0,3.1543,3.2204,0.0,0.0,0.0,3.6303,3.7454,3.9194,4.3206,4.4952,4.6735,5.0673,5.1602,5.2308,5.4602,5.4453,5.4203,0.0,0.0,0.0,0.0,0.0,0.0,0.0,0.0,0.0,0.0,0.0,0.0,0.0,0.0,0.0,0.0,0.0,5.0219,5.0219,4.9476,4.9039,4.9039,4.9039,4.9039,4.9039,4.9856,4.9819,4.8964,4.9773,4.9736,4.8964,4.8993,4.9039,4.9113,5.0748,5.1899,5.2605,5.2642,5.3125,5.3784,5.3784,5.3784,5.3784,5.3784,5.3784,5.3784,0.0,0.0,0.0,0.0,0.0,0.0,0.0,0.0,0.0,0.0,0.0,0.0,0.0,4.0726,4.0739,4.0739,4.0237,0.0,0.0,0.0,0.0,3.6848,3.6237,3.579,3.5528,3.549,3.549,3.549,3.549,3.7123,4.02,4.02,4.1893,4.4855,4.3855,4.2624,4.1162,3.955,3.8315,3.7409,3.5912,3.5327,3.5153,3.3558,3.2846,0.0,0.0,0.0,0.0,0.0,0.0,0.0,0.0,0.0,3.2338,3.3431,3.4111,3.4539,3.4971,3.608,3.7603,3.961,4.1534,4.3437,4.5435,4.7516,4.9262,5.0153,5.1342,0.0,0.0,0.0,0.0,0.0,0.0,0.0,0.0,0.0,0.0,0.0,0.0,0.0,0.0,0.0,0.0,0.0,0.0,0.0,5.0107,4.9327,4.889,4.889,4.889,4.8667,4.8147,4.7924,4.7924,4.8147,4.8407,4.8667,4.889,4.889,4.889,4.8927,4.9522,5.0562,5.1862,5.2382,5.3079,5.3784,5.3784,5.3784,5.3784,5.3784,5.3784,5.3784,0.0,0.0,0.0,0.0,0.0,0.0,0.0,0.0,0.0,3.964,0.0,0.0,0.0,0.0,4.0278,4.0278,3.9969,3.9709,3.9461,3.8051,3.7096,3.6807,3.599,3.5522,3.5521,3.5521,3.5518,3.5544,3.5544,3.6674,3.8857,3.9165,4.0666,4.3124,4.3355,4.3162,4.2547,4.0854,3.9438,3.8207,3.6996,3.6515,3.6452,3.6007,0.0,0.0,0.0,0.0,0.0,0.0,0.0,0.0,0.0,0.0,0.0,3.408,3.4467,3.4534,3.425,3.5002,3.6117,3.7231,3.8755,4.0315,4.169,4.4321,4.655,4.681,4.8853,0.0,0.0,0.0,0.0,0.0,0.0,0.0,0.0,0.0,0.0,0.0,0.0,0.0,0.0,0.0,0.0,0.0,0.0,0.0,4.929,4.903,4.8779,4.8519,4.8519,4.811,4.7293,4.6773,4.6884,4.7701,4.7701,4.811,4.889,4.889,4.889,4.889,4.889,4.9856,5.1454,5.1974,5.2828,5.3784,5.3784,5.3784,5.3784,5.3784,5.3784,5.3784,0.0,0.0,0.0,0.0,0.0,0.0,0.0,0.0,3.9563,4.0449,0.0,0.0,0.0,0.0,0.0,3.9402,4.0054,4.0167,3.9385,3.8504,3.7656,3.6797,0.0,0.0,3.5584,3.5584,3.5608,3.5617,3.5617,3.6424,3.7969,3.8819,4.0589,4.3008,4.2115,4.1769,4.1812,4.1773,4.0679,3.8883,3.7884,3.7452,3.7692,0.0,0.0,0.0,4.1198,4.1069,0.0,3.8719,0.0,0.0,0.0,0.0,0.0,0.0,0.0,3.4545,0.0,0.0,0.0,3.6228,3.6637,3.7269,3.9735,4.2144,4.4106,4.5042,4.7115,0.0,0.0,0.0,0.0,0.0,0.0,0.0,0.0,0.0,0.0,0.0,0.0,0.0,0.0,0.0,0.0,0.0,0.0,4.8481,4.7701,4.8407,4.8481,4.7701,4.7627,4.7256,4.6475,4.6475,4.6884,4.7664,4.7701,4.811,4.889,4.889,4.889,4.889,4.889,4.9856,5.1342,5.1342,5.2308,5.3747,5.3747,5.3794,5.3784,5.3784,5.3784,5.3784,0.0,0.0,0.0,0.0,0.0,0.0,3.9242,3.8749,3.868,0.0,0.0,0.0,4.0545,3.9862,3.9403,3.9473,3.8521,3.7819,3.7605,3.6796,3.6166,3.5953,3.5703,3.5593,3.5584,3.5602,3.5587,3.5617,3.5554,3.6054,3.7042,3.7311,3.8777,4.12,4.0803,4.1085,4.1773,4.1123,4.0907,4.0995,4.116,4.1091,0.0,0.0,0.0,0.0,0.0,4.4309,4.4776,0.0,4.2512,3.9863,0.0,0.0,0.0,0.0,0.0,0.0,3.4303,0.0,0.0,0.0,0.0,0.0,0.0,3.8841,4.0379,4.3217,4.4602,0.0,0.0,0.0,0.0,0.0,0.0,0.0,0.0,0.0,0.0,0.0,0.0,0.0,0.0,0.0,0.0,0.0,4.7144,4.707,4.6847,4.7033,4.707,4.6847,4.6261,4.5844,4.5629,4.5629,4.603,4.6847,4.7404,4.811,4.889,4.889,4.889,4.889,4.889,4.9485,5.045,5.045,5.1444,5.294,5.294,5.3311,5.3784,5.3784,5.3784,5.3784,0.0,0.0,0.0,0.0,0.0,3.9281,3.9281,3.855,3.8315,0.0,0.0,0.0,3.9983,3.9949,3.9763,3.9496,3.8547,3.8077,3.8408,3.6999,3.63,3.6666,3.6003,3.5626,3.5643,3.5611,3.5742,3.6112,3.6077,3.6657,3.7777,3.7427,3.8584,4.1004,4.0522,4.0799,4.1588,4.1093,4.14,4.2141,4.197,0.0,0.0,4.4417,4.4518,0.0,0.0,0.0,4.8171,4.7313,4.5486,0.0,0.0,0.0,0.0,0.0,0.0,0.0,0.0,0.0,3.4185,0.0,0.0,0.0,3.5641,3.6659,3.8177,0.0,0.0,0.0,0.0,0.0,0.0,0.0,0.0,0.0,0.0,0.0,0.0,0.0,0.0,0.0,0.0,0.0,0.0,4.6513,4.6513,4.6513,4.6513,4.6186,4.6001,4.6001,4.5555,4.5146,4.4766,4.4766,4.5175,4.5992,4.681,4.7627,4.8407,4.8742,4.889,4.889,4.889,4.9187,4.9596,4.9596,5.0776,5.2605,5.2605,5.3088,5.3784,5.3784,5.3784,5.3784,0.0,0.0,4.0208,4.0208,3.9704,3.9281,3.9281,3.8703,3.855,0.0,3.9438,3.9453,3.9444,4.0075,4.017,3.9476,3.9321,3.9553,4.0293,3.8276,3.7403,3.8176,3.6773,3.5977,3.5977,3.6021,3.6372,3.7106,3.7185,3.7963,3.9434,3.8738,3.9573,4.1591,4.0998,4.0939,4.1341,4.1297,4.1879,4.2705,4.162,4.2459,0.0,0.0,4.751,4.7384,4.9882,5.0764,5.0365,4.8122,4.6348,0.0,0.0,0.0,0.0,0.0,3.503,0.0,0.0,0.0,0.0,0.0,0.0,0.0,3.4487,3.551,3.6941,0.0,0.0,0.0,0.0,0.0,0.0,0.0,0.0,0.0,0.0,0.0,0.0,0.0,0.0,0.0,0.0,4.629,4.6215,4.6215,4.6215,4.6215,4.6215,4.5547,4.5138,4.5138,4.5138,4.4766,4.4023,4.4098,4.4544,4.5295,4.6223,4.6995,4.7738,4.8519,4.889,4.889,4.889,4.889,4.889,4.889,5.0265,5.2345,5.2345,5.2865,5.3673,5.3673,5.372,5.3784,0.0,3.8857,3.8507,3.8507,3.8934,3.9281,3.9281,3.9704,4.0054,4.0246,4.0308,4.0369,4.0334,3.9928,3.958,3.9396,3.88,3.8504,3.8661,3.8203,3.8013,3.8206,3.7903,3.7712,3.7712,3.8347,3.8736,3.888,3.9475,3.9942,4.0285,4.0816,4.0858,4.0557,4.1523,4.164,4.1119,4.076,4.1707,4.3496,4.4075,4.6151,4.9035,5.023,5.0641,5.0606,5.1149,5.1058,5.0163,4.6614,4.4881,4.3545,0.0,0.0,0.0,0.0,0.0,0.0,0.0,0.0,0.0,0.0,0.0,0.0,3.6354,3.5588,3.5591,0.0,0.0,0.0,0.0,0.0,0.0,0.0,0.0,0.0,0.0,0.0,0.0,0.0,0.0,0.0,0.0,4.4915,4.4506,4.4506,4.4506,4.4506,4.4506,4.4358,4.4246,4.4246,4.4246,4.4172,4.3986,4.47,4.5146,4.5332,4.6773,4.7553,4.7738,4.8519,4.889,4.889,4.889,4.889,4.889,4.889,4.9596,5.0673,5.059,5.1528,5.2828,5.2828,5.3237,5.3784,3.9281,3.8588,3.8123,3.8588,3.9011,3.9281,3.9281,3.9627,4.0054,4.0439,4.1297,4.1855,4.184,4.1141,4.063,4.0647,3.9522,3.9158,4.0044,3.9292,3.9224,4.0072,3.9301,3.8828,3.881,3.918,3.9606,4.0012,4.0766,4.1589,4.2397,4.2291,4.2201,4.2116,4.2254,4.1813,4.0988,4.1701,4.2869,4.4236,4.4052,0.0,4.8086,4.9331,4.9779,4.9875,5.0431,5.0487,4.9857,4.7224,4.6079,0.0,0.0,4.0266,3.9634,0.0,3.75,3.6888,0.0,0.0,0.0,3.6538,0.0,0.0,0.0,3.5555,3.5292,3.7887,3.6931,3.6154,3.7754,0.0,0.0,0.0,0.0,0.0,0.0,0.0,0.0,0.0,0.0,0.0,0.0,4.4246,4.3986,4.3986,4.3986,4.3986,4.3986,4.3986,4.3986,4.3986,4.3986,4.3986,4.3986,4.4432,4.4655,4.4655,4.6327,4.7107,4.7144,4.837,4.889,4.889,4.889,4.889,4.889,4.889,4.915,4.9596,4.9959,5.111,5.2605,5.2605,5.3125,5.3784,3.9281,3.8354,3.7777,3.8665,3.8934,3.905,3.905,3.9319,3.9819,4.0627,4.2124,4.3213,4.3562,4.2722,4.2314,4.2803,4.103,4.0555,4.2146,4.0823,4.0494,4.169,4.0765,4.0127,3.9895,4.0202,4.0668,4.1335,4.214,4.3124,4.4274,4.3384,4.3118,4.3403,4.2616,4.1862,4.1374,4.288,4.4112,4.4953,0.0,4.4788,4.6736,4.8185,4.8632,4.8535,4.9463,4.981,4.9578,4.8199,4.7747,4.7094,4.3105,4.1651,0.0,0.0,0.0,0.0,0.0,0.0,0.0,0.0,0.0,3.6447,0.0,0.0,0.0,3.6598,3.5682,0.0,0.0,0.0,0.0,0.0,0.0,0.0,0.0,0.0,0.0,0.0,0.0,0.0,0.0,4.3838,4.3986,4.3986,4.3986,4.3986,4.3986,4.3986,4.3986,4.3986,4.3986,4.3986,4.3986,4.3986,4.3986,4.4023,4.5547,4.6364,4.655,4.7999,4.8742,4.889,4.889,4.889,4.889,4.889,4.889,4.8993,4.9773,5.0933,5.2159,5.2494,5.3004,5.3599,3.9165,3.7392,3.6038,3.685,3.7623,3.8161,3.8161,3.9396,4.0666,4.1542,4.2508,4.3666,4.5137,4.39,4.3882,4.6155,4.3455,0.0,4.2992,0.0,4.1457,4.0877,4.2075,4.2402,4.1626,4.305,4.3874,4.3985,4.4761,4.4859,4.4278,4.3982,4.2985,4.1434,4.1838,4.2383,4.2934,4.3155,4.4178,0.0,4.6216,4.7795,0.0,5.079,5.0495,4.9614,4.9765,4.981,4.9551,0.0,4.8005,4.8198,0.0,4.3427,4.2883,0.0,0.0,0.0,0.0,0.0,0.0,0.0,3.8261,0.0,0.0,0.0,3.5887,3.5282,0.0,0.0,0.0,0.0,0.0,0.0,0.0,0.0,0.0,0.0,0.0,0.0,0.0,0.0,0.0,0.0,4.3986,4.3986,4.3986,4.3986,4.3986,4.3986,4.3986,4.3986,4.3986,4.3986,4.3986,4.3986,4.3986,4.4023,4.4997,4.5815,4.6513,4.7441,4.8221,4.889,4.889,4.889,4.889,4.889,4.889,4.8993,4.9773,5.0219,5.0553,5.2048,5.2679,5.2828,3.8588,3.6888,3.5923,3.7234,3.7777,3.8315,3.9319,4.1743,4.3397,4.3278,4.4855,4.6817,4.9009,4.645,4.5963,4.9495,0.0,4.4677,0.0,0.0,4.4426,4.5082,4.4345,4.3713,4.3366,4.3539,4.3866,4.4342,4.5045,4.5668,4.6276,4.587,4.4714,4.3045,4.3664,4.3572,4.3085,4.4847,4.5635,0.0,0.0,0.0,0.0,4.9787,5.0079,4.9806,4.9994,4.9645,4.9009,0.0,4.7864,0.0,0.0,0.0,0.0,0.0,0.0,0.0,0.0,0.0,0.0,0.0,0.0,0.0,3.8399,0.0,3.6438,0.0,0.0,0.0,0.0,0.0,0.0,0.0,3.6652,0.0,0.0,0.0,0.0,0.0,0.0,0.0,0.0,0.0,0.0,0.0,0.0,4.2612,4.2612,4.3503,4.3986,4.3986,4.3986,4.3986,4.3986,4.3986,4.3986,4.4023,4.5361,4.6178,4.655,4.7813,4.8593,4.889,4.889,4.889,4.889,4.889,4.889,4.8993,4.9773,5.0107,5.0256,5.1454,5.2197,5.2717,3.878,3.7353,3.6657,3.8084,3.8354,3.8934,4.0589,4.3166,4.4859,4.4667,4.6471,4.9197,5.289,4.9933,0.0,0.0,5.0649,4.8444,0.0,0.0,4.6732,0.0,0.0,0.0,0.0,4.4328,4.4311,4.4667,4.5084,4.5893,4.7019,4.6309,4.5324,4.4083,4.4214,4.416,4.4095,4.6513,4.7315,4.7213,4.9041,4.8885,4.768,4.8601,4.9258,4.97,4.983,4.9433,4.894,4.9156,4.8312,0.0,4.6797,0.0,0.0,0.0,0.0,0.0,4.252,0.0,0.0,0.0,0.0,0.0,0.0,0.0,0.0,0.0,0.0,0.0,0.0,0.0,0.0,0.0,0.0,0.0,0.0,0.0,0.0,0.0,0.0,0.0,0.0,0.0,0.0,0.0,0.0,0.0,4.1579,4.2723,4.354,4.3986,4.3986,4.3986,4.3986,4.3986,4.3986,4.4023,4.5212,4.6067,4.655,4.7701,4.8481,4.889,4.889,4.889,4.889,4.889,4.889,4.8964,4.9559,4.9773,4.9921,5.1231,5.1974,5.2419,4.0285,3.9088,3.82,3.9088,3.9242,3.9819,4.1504,4.2585,4.3739,4.5359,4.6355,0.0,0.0,0.0,0.0,0.0,0.0,5.3531,5.1992,0.0,4.7422,0.0,0.0,4.6403,0.0,0.0,4.6394,4.5556,4.5586,4.5486,4.5272,4.4203,4.3529,4.3188,4.2171,4.3587,4.6824,4.7695,4.9002,5.0517,5.1359,5.0759,4.9226,0.0,4.8426,4.9384,4.9061,0.0,0.0,4.9779,4.9781,0.0,0.0,0.0,0.0,0.0,0.0,0.0,0.0,0.0,0.0,4.4055,0.0,0.0,0.0,0.0,3.8947,0.0,0.0,0.0,0.0,0.0,0.0,0.0,0.0,0.0,0.0,0.0,0.0,0.0,0.0,0.0,0.0,0.0,0.0,0.0,0.0,0.0,4.1579,4.1653,4.2396,4.3949,4.3986,4.3986,4.3986,4.3986,4.3986,4.3986,4.4061,4.4915,4.6513,4.655,4.7441,4.889,4.889,4.889,4.889,4.889,4.889,4.889,4.8927,4.8927,4.9224,5.1676,5.2085,5.1676,4.0439,4.0508,4.0619,4.0893,4.0969,4.1354,4.2508,4.435,0.0,0.0,5.2697,0.0,0.0,6.2627,6.2243,0.0,0.0,5.8792,5.7071,5.407,0.0,0.0,0.0,4.8759,0.0,0.0,0.0,4.5351,4.5159,4.5484,4.6326,4.5758,4.5185,4.4602,4.4784,4.5805,4.749,4.8534,4.9169,0.0,0.0,4.8771,4.8302,0.0,0.0,4.9637,4.9535,4.9122,0.0,4.9348,4.9325,4.894,4.8358,4.777,4.7049,4.5558,4.4876,0.0,0.0,0.0,4.6022,4.6198,0.0,0.0,0.0,0.0,0.0,0.0,0.0,0.0,0.0,0.0,0.0,0.0,0.0,0.0,0.0,0.0,0.0,0.0,0.0,0.0,0.0,0.0,0.0,0.0,0.0,0.0,0.0,4.1014,4.2352,4.3949,4.3986,4.3986,4.3986,4.3986,4.3986,4.4023,4.4581,4.5138,4.5732,4.681,4.759,4.8147,4.8667,4.889,4.889,4.889,4.889,4.889,4.889,4.9224,4.9884,5.1268,5.1639,5.1639,4.1358,4.1893,4.2081,4.147,4.1581,4.2196,0.0,0.0,0.0,0.0,5.7443,0.0,6.8786,0.0,6.7545,0.0,6.7051,6.3557,6.0627,5.8401,0.0,5.4587,5.3208,0.0,0.0,0.0,0.0,0.0,4.5218,4.5217,4.6005,4.5828,4.5443,4.4841,4.5361,4.6401,4.7793,4.9135,4.9728,0.0,0.0,4.7961,0.0,0.0,4.9145,4.9629,0.0,4.9159,4.8783,4.9258,4.9175,4.8878,4.8967,4.8588,4.8045,4.7271,4.6866,4.6865,4.7863,4.8043,0.0,4.7588,4.6364,0.0,4.3272,0.0,0.0,0.0,0.0,0.0,0.0,0.0,0.0,0.0,0.0,0.0,0.0,4.0161,0.0,0.0,0.0,0.0,0.0,0.0,0.0,0.0,3.5039,0.0,0.0,0.0,4.172,4.3949,4.3986,4.3986,4.3986,4.3986,4.3986,4.4023,4.4581,4.4989,4.5332,4.6661,4.7441,4.7738,4.8556,4.889,4.889,4.889,4.889,4.8927,4.9216,4.9624,5.0219,5.1082,5.1751,5.2419,4.2854,4.3085,4.2585,4.1016,4.1431,0.0,0.0,0.0,5.3382,0.0,6.0425,6.6035,6.919,6.9985,7.1514,7.4623,7.186,6.7859,6.2903,6.2364,0.0,0.0,5.5549,5.5088,5.3351,0.0,0.0,0.0,0.0,4.465,4.439,4.4376,4.425,4.3986,4.4061,4.5435,4.7813,4.9447,5.0636,5.1268,4.9633,4.8519,4.7813,4.7776,4.8431,4.9337,4.901,4.9283,4.9721,4.9454,4.9391,4.9468,4.9693,4.9631,4.9311,4.8795,4.9403,5.0065,4.9352,4.8623,4.8091,4.8312,0.0,0.0,0.0,0.0,4.305,0.0,0.0,0.0,0.0,0.0,0.0,0.0,0.0,0.0,0.0,0.0,0.0,0.0,0.0,0.0,0.0,0.0,3.6049,3.4376,3.4259,3.5627,0.0,0.0,4.0606,4.3763,4.3949,4.3986,4.3986,4.3986,4.3986,4.3986,4.3986,4.4432,4.5257,4.6067,4.6884,4.7701,4.8481,4.8853,4.889,4.889,4.889,4.8993,4.9773,5.0144,5.033,5.1156,5.2457,5.3784,4.1966,4.2662,4.3355,0.0,4.4474,4.5205,0.0,0.0,0.0,0.0,6.4457,6.9903,7.5085,7.7138,7.8015,7.7561,7.5014,0.0,0.0,0.0,0.0,6.205,5.9781,5.7434,5.5126,5.2318,0.0,4.769,0.0,4.4465,4.4383,4.4192,4.4071,4.4023,4.4692,4.5992,4.7776,4.8816,5.0079,5.1305,5.0228,4.9661,0.0,0.0,4.8756,4.9018,4.8925,4.901,4.9114,4.9061,4.9249,4.9476,4.9491,4.9638,4.9731,4.9538,4.9816,5.018,5.0024,4.9977,4.985,4.9333,4.7768,4.6194,0.0,0.0,0.0,0.0,0.0,0.0,0.0,0.0,0.0,0.0,0.0,0.0,0.0,0.0,0.0,4.0167,0.0,0.0,0.0,3.7249,3.6335,3.5336,3.5182,3.5782,0.0,0.0,0.0,4.2166,4.3392,4.3986,4.3986,4.3986,4.3986,4.3986,4.3986,4.4135,4.4358,4.5212,4.603,4.6847,4.7664,4.837,4.889,4.889,4.889,4.8993,4.9773,5.0859,5.1974,5.2197,5.294,5.3784,4.3278,4.4655,0.0,4.7399,0.0,0.0,5.1167,5.328,0.0,6.2413,6.8396,0.0,7.5438,7.8259,7.9708,7.9131,7.6399,0.0,7.2329,0.0,0.0,6.4705,6.3474,6.1127,5.7434,5.4585,0.0,4.8659,0.0,4.5092,4.4221,4.4071,4.4209,4.4581,4.4692,4.5621,4.7256,4.8779,4.9782,5.0339,5.0562,0.0,0.0,4.9067,4.889,4.889,4.889,4.889,4.8916,4.9069,4.9184,4.9276,4.9551,4.9742,4.9923,5.0012,5.0218,5.0439,5.0455,5.0581,5.0413,4.9221,4.8261,4.7295,4.6082,4.5075,4.4407,0.0,0.0,0.0,0.0,0.0,0.0,0.0,0.0,0.0,0.0,0.0,0.0,0.0,4.0282,0.0,0.0,3.7755,3.6491,3.5713,3.5572,0.0,0.0,0.0,0.0,4.2092,4.3726,4.4061,4.2946,4.4395,4.4544,4.3466,4.4209,4.4581,4.4618,4.5807,4.6587,4.707,4.7887,4.8481,4.889,4.889,4.889,4.9039,5.0228,5.1676,5.3125,5.3125,5.3423,5.3784,4.5849,4.7606,0.0,0.0,0.0,0.0,0.0,5.8834,0.0,6.5344,0.0,7.5462,7.3571,7.6503,7.8915,7.9791,0.0,7.4361,7.3098,7.3129,7.0891,6.582,6.6481,6.4711,5.9935,5.6938,0.0,0.0,0.0,4.5941,4.4048,4.401,4.4469,4.5257,4.4506,4.5138,4.6958,4.9187,4.981,4.9522,5.0971,5.0673,4.9373,4.9262,4.9224,4.9224,4.9104,4.9002,4.8942,4.9297,4.9217,4.9065,4.9672,4.9884,4.9968,5.0245,5.0504,5.0659,5.0683,5.0712,5.0332,4.8906,4.8416,4.7961,4.6577,4.6042,4.5842,4.5958,4.4717,0.0,0.0,0.0,0.0,0.0,0.0,0.0,0.0,0.0,0.0,0.0,0.0,0.0,0.0,0.0,3.6827,3.6084,3.6055,0.0,0.0,0.0,0.0,4.2255,4.4031,0.0,4.2099,0.0,4.5361,4.3466,4.4804,4.548,4.5517,4.6921,4.759,4.7738,4.8444,4.8816,4.889,4.889,4.9039,4.9373,5.0933,5.2494,5.3784,5.3784,5.3784,5.3784,4.7974,4.8678,0.0,0.0,0.0,5.5888,6.4299,6.5077,6.5691,6.8479,7.3611,7.6721,7.5935,7.7758,7.9336,8.0225,7.7499,0.0,0.0,0.0,0.0,7.086,6.7827,6.4711,6.171,5.7918,5.4074,0.0,0.0,4.5797,4.4343,4.4117,4.4469,4.5295,4.5146,4.6327,4.8556,4.9624,0.0,5.1974,5.2271,5.2197,5.1899,5.1193,5.0971,5.0859,5.0144,4.9439,4.8942,4.9297,4.9385,4.9423,4.9544,4.9793,5.0076,5.0056,5.0256,5.0483,5.0645,5.0697,5.0635,5.0332,4.928,4.8416,4.8771,4.7252,4.5997,4.6732,4.6074,4.5139,4.4453,0.0,0.0,0.0,0.0,0.0,0.0,0.0,0.0,0.0,0.0,0.0,0.0,0.0,0.0,0.0,0.0,0.0,0.0,0.0,0.0,0.0,0.0,0.0,0.0,0.0,4.5955,4.6847,4.6475,4.629,4.629,4.6587,4.707,4.7701,4.785,4.8296,4.889,4.889,4.9707,5.1045,5.2011,5.2977,5.3784,5.3784,5.3784,5.3784,5.0341,0.0,0.0,0.0,0.0,0.0,0.0,7.0773,0.0,7.248,7.4889,7.6488,7.6284,7.7941,7.9465,8.0315,7.766,7.6394,7.747,7.4411,7.2264,7.1545,6.8744,0.0,6.2172,5.9307,5.5295,5.01,0.0,0.0,4.4857,4.4287,4.4692,4.5926,4.6364,4.6958,0.0,0.0,0.0,5.2048,5.2902,5.2977,5.2568,5.2159,5.1751,5.1342,5.0933,5.0219,4.95,4.9439,4.9438,4.9476,4.9693,4.9981,5.0227,5.0099,5.0358,5.0625,5.0561,5.0664,5.0629,5.0173,4.9504,4.8955,4.8877,4.7959,4.7157,4.7119,4.677,4.6074,4.4829,4.3505,0.0,0.0,0.0,0.0,0.0,0.0,0.0,0.0,0.0,0.0,0.0,0.0,0.0,0.0,0.0,0.0,0.0,0.0,0.0,0.0,0.0,0.0,0.0,0.0,0.0,4.5943,4.6845,4.7292,4.7292,4.7702,4.8079,4.8438,4.8438,4.8599,4.8927,4.9327,5.0525,5.2048,5.2457,5.3088,5.3784,5.3784,5.3784,5.3784,5.4269,5.4492,0.0,0.0,6.168,0.0,7.0455,7.4509,7.6859,7.6322,7.6484,7.6654,7.6654,7.7932,7.9236,8.0315,7.7808,7.6322,7.6582,7.4698,7.2688,7.0745,6.8719,6.5918,6.2196,6.0182,5.6377,0.0,0.0,0.0,0.0,4.4766,4.5175,0.0,0.0,0.0,0.0,0.0,5.1648,5.2129,5.3302,5.3423,5.2865,5.2865,5.2503,5.1989,5.1803,5.1319,5.0626,4.997,4.9627,4.9589,5.0093,5.0309,5.0363,5.0247,5.0502,5.0781,5.055,5.064,5.0653,4.9958,4.9702,4.9451,4.8952,4.8636,4.8275,4.7773,4.7351,4.6651,4.5139,4.4538,0.0,0.0,0.0,0.0,0.0,0.0,0.0,0.0,0.0,0.0,0.0,0.0,0.0,0.0,0.0,0.0,0.0,0.0,0.0,0.0,0.0,4.34,4.26,0.0,4.7031,0.0,4.7383,4.8242,4.8279,4.8915,4.9164,4.9127,4.9288,4.9377,4.9485,5.0116,5.1259,5.2605,5.2791,5.3237,5.3784,5.3784,5.3784,5.3784,0.0,0.0,0.0,0.0,0.0,0.0,7.0867,7.4382,7.7235,7.9053,7.8999,7.8779,7.8714,7.8228,7.8586,8.0277,7.8415,7.7014,7.67,7.3624,7.1244,6.9945,6.685,6.4221,6.2222,5.9597,5.645,0.0,0.0,0.0,0.0,0.0,0.0,0.0,0.0,0.0,0.0,5.1383,5.2405,5.4023,5.3861,5.3757,5.3683,5.3683,5.3832,5.3945,5.3195,5.2903,5.2623,5.1388,5.0427,4.9903,5.0823,5.0756,5.0401,5.0527,5.0542,5.0567,5.0803,5.0834,5.0778,5.0696,5.0113,4.9798,5.0494,4.9482,4.8585,4.932,4.8198,4.6809,4.5842,4.4318,4.3115,0.0,0.0,0.0,0.0,0.0,0.0,0.0,0.0,0.0,0.0,0.0,0.0,0.0,0.0,0.0,0.0,0.0,0.0,4.075,0.0,4.3034,4.5133,4.6246,0.0,4.9832,4.9318,4.9102,4.9102,4.9168,4.9205,4.9226,4.9909,5.0568,5.1156,5.1268,5.1788,5.2679,5.3413,5.371,5.3784,5.3784,5.3784,5.3784,0.0,0.0,0.0,0.0,0.0,0.0,0.0,7.6476,7.83,7.9168,7.9383,7.9457,7.9426,7.8866,7.869,7.9153,7.7724,7.6331,7.516,7.3361,7.156,6.9804,6.6979,6.4557,6.2597,5.9722,5.6526,0.0,0.0,0.0,0.0,0.0,0.0,0.0,0.0,5.0895,5.216,5.2857,5.3724,5.4591,5.4455,5.4262,5.4125,5.4313,5.4664,5.5015,5.4355,5.3997,5.3787,5.3481,5.2148,5.0587,5.0694,5.0691,5.0692,5.0606,5.0658,5.0713,5.0687,5.076,5.085,5.0863,5.0618,5.0453,5.084,5.0387,4.9858,4.9742,4.8314,4.7003,4.6654,4.5532,4.4465,0.0,0.0,0.0,0.0,0.0,0.0,0.0,0.0,0.0,0.0,0.0,0.0,0.0,0.0,0.0,0.0,0.0,0.0,4.1453,0.0,4.3655,4.5611,4.6465,4.7596,4.9001,4.9252,4.9335,4.9249,4.9335,4.9565,4.9944,5.0709,5.1432,5.2122,5.2122,5.2605,5.3348,5.3673,5.3784,5.3784,5.3784,5.3784,5.3784,6.8187,0.0,6.8773,0.0,7.2481,7.3936,7.5982,7.7504,7.8515,7.8765,7.8864,7.9073,7.9437,7.9088,7.8696,7.8425,7.7357,7.5988,7.4313,7.2987,7.14,6.9429,6.6921,0.0,6.2689,6.0063,5.7402,5.4705,5.277,0.0,0.0,0.0,0.0,0.0,5.2258,5.3112,5.3828,5.4802,5.538,5.566,5.5572,5.5396,5.5211,5.545,5.5836,5.622,5.5822,5.539,5.4958,5.5082,5.3746,5.1879,5.1327,5.1044,5.0863,5.0742,5.0808,5.0866,5.0663,5.0743,5.0894,5.0905,5.0917,5.0898,5.0898,5.0898,5.067,4.9858,4.8701,4.7695,4.7196,4.6616,4.5887,4.4893,0.0,0.0,0.0,0.0,0.0,0.0,3.9688,4.0796,4.1167,0.0,0.0,0.0,0.0,0.0,0.0,0.0,0.0,0.0,0.0,0.0,0.0,4.6554,4.75,4.8534,4.9421,4.9796,4.9704,5.0059,5.0574,5.1182,5.1424,5.2073,5.2986,5.2726,5.3079,5.3784,5.3784,5.3784,5.3784,5.3784,5.3784,5.3784,7.4305,7.3743,7.3275,7.536,7.5726,7.5763,7.5801,7.6557,7.7412,7.8192,7.7635,7.759,7.8866,7.8652,7.8409,7.8392,7.7672,7.6469,7.4804,7.2394,7.0261,0.0,0.0,6.4013,6.2244,6.0608,5.9327,5.8423,0.0,0.0,5.4722,0.0,5.3014,5.4276,5.4686,5.5769,5.7232,5.7255,5.7451,5.772,5.7399,5.7271,5.7271,5.7271,5.7458,5.7778,5.7785,5.7205,5.639,5.5884,5.4962,5.3901,5.3119,5.1949,5.0888,5.0886,5.0898,5.0898,5.0898,5.0898,5.0898,5.0898,5.0898,5.0898,5.0898,5.0898,5.067,4.9858,4.9664,4.9126,4.7428,4.708,4.6809,4.5919,0.0,0.0,0.0,0.0,0.0,0.0,4.1131,4.1668,4.1418,0.0,0.0,0.0,0.0,0.0,0.0,0.0,0.0,4.1967,4.2837,0.0,4.5697,4.6554,4.783,4.949,5.0286,5.0662,5.0699,5.1518,5.2248,5.2914,5.1996,5.2498,5.3907,5.2986,5.3079,5.3784,5.3784,5.3784,5.3784,5.3784,5.3784,5.3784,7.672,7.6869,7.6718,7.7388,7.751,7.7324,7.6767,7.7398,7.7807,7.751,7.7733,7.8062,7.8461,7.7937,7.7404,0.0,7.6383,7.5096,0.0,7.2251,7.0801,6.8546,6.6623,6.4961,6.3587,6.1264,5.9612,5.8651,0.0,0.0,0.0,5.6307,5.6638,5.6982,5.6045,5.6511,5.7896,5.6288,5.6255,5.7205,5.6508,5.6097,5.5953,5.6142,5.6875,5.7659,5.6724,5.6829,5.7226,5.6175,5.5072,5.41,5.4164,5.3082,5.1664,5.1053,5.0898,5.0898,5.0898,5.0898,5.0898,5.0898,5.0898,5.0898,5.0898,5.0898,5.0821,5.0554,5.009,4.9513,4.8972,4.7889,4.678,4.5831,0.0,0.0,0.0,0.0,0.0,0.0,4.0504,4.1122,0.0,4.1576,0.0,0.0,0.0,0.0,0.0,0.0,0.0,0.0,4.4496,0.0,4.7394,4.8288,4.9165,5.0102,5.1086,5.1518,5.1555,5.2389,5.2865,5.3035,5.33,5.3652,5.3991,5.3693,5.3637,5.3784,5.3784,5.3784,5.3784,5.3784,5.4156,5.4602,7.7993,7.829,7.829,7.829,7.8067,7.777,7.7584,7.7435,7.7287,7.7101,7.725,7.7361,7.7361,7.6655,0.0,7.6231,7.5222,7.3977,7.2497,7.1848,7.0549,6.8546,6.7153,6.568,6.3955,0.0,0.0,5.9542,5.8028,5.7225,5.7027,5.7953,5.84,5.8348,5.7718,5.777,5.8285,5.6958,5.6725,5.7276,5.6824,5.6581,5.6458,5.6609,5.7228,5.7882,5.6999,5.7036,5.7364,5.6603,5.5635,5.4769,5.476,5.4027,5.296,5.1757,5.1173,5.0898,5.0898,5.0898,5.0898,5.0898,5.0898,5.0898,5.0898,5.0898,5.0898,5.0898,5.0515,5.0051,4.9742,4.8817,4.7669,4.6383,4.6213,4.5418,4.2885,0.0,0.0,0.0,0.0,0.0,0.0,4.2893,0.0,0.0,0.0,0.0,0.0,0.0,0.0,4.4451,4.5615,0.0,4.8664,4.9227,4.9982,5.0929,5.1828,5.2423,5.2731,5.3336,5.3582,5.3521,5.4037,5.4182,5.4046,5.4,5.3926,5.3784,5.3784,5.397,5.423,5.423,5.4787,5.5493,7.829,7.8253,0.0,0.0,7.7621,0.0,7.803,7.6841,7.6135,7.6841,7.6284,7.5801,7.5801,7.5095,7.4872,7.5578,0.0,0.0,0.0,7.1111,6.9643,6.848,6.7534,6.5935,6.3541,6.3416,6.2571,6.093,5.9382,5.8365,5.7863,5.8372,5.8573,5.8535,5.9284,5.9149,5.8447,5.8611,5.8324,5.7735,5.7991,5.8121,5.8121,5.8121,5.8165,5.8198,5.8121,5.7632,5.6994,5.7004,5.6516,5.5798,5.5039,5.4779,5.4465,5.2767,5.1679,5.1018,5.1057,5.0975,5.0898,5.0979,5.0937,5.0898,5.0898,5.0898,5.0898,5.0898,5.0898,5.067,4.9935,4.9742,4.9165,4.7467,4.7157,4.6449,4.4628,0.0,0.0,0.0,0.0,0.0,0.0,4.4639,4.4449,0.0,0.0,0.0,0.0,0.0,4.4827,4.4752,4.6328,4.7988,4.964,4.9715,5.0494,5.1969,5.2669,5.3381,5.4109,5.4227,5.429,5.429,5.429,5.4209,5.4082,5.4028,5.3926,5.3784,5.3784,5.4304,5.501,5.501,5.5567,5.6395,0.0,0.0,7.7584,7.8179,7.7621,7.6952,7.6469,7.6618,7.6395,7.5318,7.554,7.5801,7.5801,7.5095,7.4426,7.4017,7.3051,7.2173,7.1392,6.984,6.8509,6.7628,6.6172,6.4817,6.3585,6.263,6.1475,6.0075,6.0042,5.9793,5.9314,5.9425,5.9127,5.8483,5.7804,5.7544,5.7498,5.6299,5.6193,5.6773,5.6454,5.6319,5.6319,5.6319,5.6747,5.7209,5.6555,5.6653,5.6965,5.64,5.6107,5.5927,5.5745,5.5264,5.4581,5.3502,5.2573,5.2032,5.2685,5.1908,5.1057,5.1718,5.1405,5.0898,5.0898,5.0898,5.0898,5.0898,5.0898,5.0821,5.067,5.0128,4.9359,4.8275,4.754,4.6677,4.5389,4.4302,0.0,0.0,4.4818,4.4867,4.6905,4.6431,4.5851,0.0,0.0,0.0,0.0,4.6817,4.8025,4.735,4.8363,4.9678,5.133,5.1976,5.279,5.37,5.3762,5.3913,5.41,5.4127,5.4136,5.4136,5.4136,5.411,5.4019,5.4,5.3926,5.3784,5.3784,5.4304,5.501,5.501,5.5939,5.7202,7.829,7.7956,7.7807,7.8216,7.7621,7.6952,7.6469,7.6469,7.6061,7.476,7.4983,7.5095,7.476,7.398,7.3311,7.2902,7.2085,7.1106,6.9868,6.8642,6.7416,6.6191,6.4928,6.3888,6.307,6.2007,6.1034,6.0124,5.9431,5.9075,5.8962,5.8458,5.8023,5.7687,5.6928,5.6611,5.6656,5.5746,5.5589,5.5932,5.5763,5.5708,5.5708,5.5708,5.5978,5.6368,5.5889,5.6069,5.6452,5.6064,5.5952,5.5984,5.5995,5.5698,5.5277,5.4774,5.3768,5.2883,5.3386,5.2531,5.1525,5.1602,5.1563,5.1486,5.1486,5.1796,5.2101,5.2101,5.1757,5.1486,5.1486,5.0825,4.9858,4.8585,4.7944,4.7092,4.568,4.5064,0.0,4.6455,4.6129,4.6311,4.7724,4.7346,4.6912,4.6664,0.0,0.0,4.62,4.8288,4.9114,4.8221,4.9753,5.1217,5.2502,5.3286,5.3856,5.4209,5.4484,5.4569,5.4522,5.4979,5.496,5.4634,5.5053,5.4755,5.4028,5.4401,5.4261,5.3822,5.4193,5.4862,5.5642,5.6013,5.6942,5.8056,7.829,7.8216,7.8179,7.829,7.7547,7.6915,7.6915,7.6172,7.5318,7.4537,7.4426,7.4166,7.346,7.2679,7.2159,7.2011,7.1218,7.0091,6.8605,6.7639,6.6413,6.4853,6.3925,6.3033,6.2253,6.1399,6.0735,6.0237,5.85,5.7764,5.7884,5.6823,5.6367,5.6506,5.6284,5.6012,5.5738,5.5845,5.5634,5.5256,5.552,5.5654,5.5654,5.5654,5.5682,5.5724,5.5776,5.5802,5.5865,5.5947,5.6018,5.5993,5.5995,5.6008,5.6008,5.6008,5.5006,5.3884,5.3884,5.327,5.238,5.1521,5.1834,5.2418,5.2418,5.296,5.3502,5.3502,5.2921,5.2341,5.2225,5.1602,5.0507,4.8632,4.8202,4.7509,4.5896,0.0,4.6781,4.6959,4.7721,4.8311,4.838,4.8245,4.8099,4.7987,4.7891,4.8022,0.0,4.9527,4.964,4.8784,5.0917,5.2494,5.3366,5.3994,5.4319,5.4314,5.4914,5.522,5.5225,5.6047,5.6002,5.5416,5.621,5.5715,5.441,5.508,5.4911,5.424,5.4936,5.5726,5.658,5.7239,5.8019,5.8687,7.829,7.7733,7.751,7.8179,7.7027,7.5986,7.5986,7.5318,7.45,7.3683,7.3571,7.3534,7.3423,7.2679,7.1899,7.1168,7.0351,6.9496,6.8568,6.7119,6.5819,6.4853,6.3368,6.2216,6.1399,6.0545,5.9722,5.8977,5.8692,5.8209,5.7573,5.6685,5.5941,5.5275,5.5537,5.5238,5.461,5.5171,5.5185,5.4902,5.5249,5.5358,5.5358,5.5358,5.5531,5.5782,5.5792,5.5885,5.5957,5.6009,5.6002,5.5999,5.6008,5.6008,5.6008,5.6008,5.5814,5.5621,5.5621,5.5006,5.4194,5.3304,5.3192,5.3308,5.3308,5.3386,5.3502,5.3502,5.3386,5.3076,5.2341,5.2109,5.1137,4.8557,4.8118,4.7698,4.6518,0.0,4.7248,4.936,4.9562,5.0067,5.1444,5.077,5.0515,5.1138,5.0574,5.022,5.0332,5.1788,5.2239,5.1359,5.2427,5.3403,5.4221,5.4317,5.4678,5.5273,5.5276,5.5585,5.6188,5.6258,5.6229,5.6154,5.6286,5.6174,5.5931,5.608,5.6033,5.5912,5.606,5.6617,5.7323,5.7472,5.8019,5.8687,7.829,7.7993,7.7844,7.8253,7.7287,7.6358,7.5875,7.5132,7.4314,7.3497,7.3385,7.3237,7.2791,7.1998,7.118,7.0351,6.9534,6.8716,6.7899,6.6748,6.5522,6.4222,6.3033,6.1808,6.0508,5.969,5.9059,5.8687,5.8279,5.7647,5.684,5.5976,5.5159,5.4351,5.4541,5.4471,5.4313,5.4639,5.4887,5.5071,5.5243,5.5382,5.5508,5.5543,5.5682,5.5802,5.589,5.5938,5.6018,5.6007,5.599,5.6008,5.6008,5.6008,5.6008,5.6008,5.6008,5.5892,5.5466,5.5084,5.4581,5.3734,5.3846,5.4194,5.4194,5.4542,5.4851,5.4851,5.4503,5.4078,5.3656,5.2844,5.1592,4.9744,4.8966,0.0,0.0,4.7661,4.8631,4.9707,5.061,5.1379,5.2016,5.1643,5.1705,5.254,5.1818,5.1743,5.2644,5.3028,5.3403,5.3875,5.4296,5.4672,5.5039,5.5498,5.5878,5.6108,5.6463,5.6769,5.7022,5.7418,5.736,5.6989,5.7387,5.71,5.632,5.6766,5.6692,5.6357,5.6766,5.7175,5.7536,5.7982,5.839,5.8687,7.829,7.829,7.8253,7.8067,7.7324,7.6507,7.5652,7.4834,7.4091,7.3497,7.3385,7.3088,7.2271,7.1441,7.0574,6.9756,6.8976,6.8085,6.7082,6.6451,6.5448,6.3925,6.2736,6.1436,5.9913,5.9096,5.8687,5.8687,5.7722,5.6989,5.6543,5.5307,5.449,5.4091,5.3963,5.4054,5.4296,5.438,5.4677,5.5102,5.5367,5.5486,5.5537,5.5868,5.5915,5.5875,5.5952,5.5984,5.5998,5.5995,5.6008,5.6008,5.6008,5.6008,5.6008,5.6008,5.6008,5.5853,5.5238,5.5084,5.4929,5.4233,5.4581,5.5084,5.5084,5.5543,5.6008,5.6008,5.5474,5.4941,5.4748,5.3549,5.2179,5.0931,0.0,0.0,0.0,4.9243,5.0097,5.041,5.182,5.2764,5.2773,5.2936,5.332,5.4004,5.3433,5.362,5.4897,5.4417,5.4643,5.5864,5.5902,5.5902,5.5902,5.6522,5.6854,5.693,5.7471,5.7774,5.7837,5.8438,5.8353,5.7806,5.8427,5.7982,5.6915,5.7499,5.7435,5.6915,5.7546,5.7769,5.7833,5.8465,5.8687,5.8687,7.829,7.829,7.8067,7.7324,7.6469,7.5615,7.4797,7.4017,7.346,7.3423,7.3385,7.3088,7.2271,7.1441,7.0574,6.9756,6.8976,6.7825,6.6302,6.6116,6.5671,6.4742,6.2513,6.0842,5.9913,5.9096,5.8687,5.8687,5.7138,5.6729,5.736,5.4973,5.423,5.4881,5.4462,5.4262,5.4313,5.4631,5.4615,5.4472,5.5526,5.5547,5.5085,5.6129,5.6319,5.6005,5.6014,5.6002,5.6003,5.6008,5.6008,5.6008,5.6008,5.6008,5.6008,5.6008,5.6008,5.6008,5.593,5.5892,5.5892,5.5814,5.5853,5.5892,5.5892,5.5969,5.6008,5.6008,5.575,5.5306,5.4575,5.4077,5.3175,5.134,0.0,0.0,5.0813,5.0696,5.1284,5.3006,5.3825,5.4547,5.5264,5.6061,5.6558,5.6624,5.6549,5.6595,5.6699,5.6671,5.6662,5.6812,5.6812,5.6812,5.6812,5.6722,5.708,5.7801,5.7684,5.8032,5.8805,5.8739,5.865,5.8613,5.865,5.8613,5.8539,5.8576,5.8576,5.8539,5.8576,5.8613,5.8613,5.8687,5.8687,5.8687,7.829,7.7919,7.7473,7.7138,7.5986,7.4946,7.4649,7.3906,7.3385,7.3385,7.3385,7.2902,7.1552,7.1094,7.0388,6.9088,6.8679,6.8011,6.6933,6.6376,6.5262,6.3405,6.1967,6.0778,5.9913,5.9096,5.8687,5.8687,5.8093,5.7695,5.7472,5.6013,5.5503,5.5763,5.4541,5.427,5.4708,5.4564,5.4536,5.4684,5.532,5.5505,5.5502,5.6049,5.6145,5.6018,5.6011,5.5995,5.6008,5.6008,5.6008,5.6008,5.6008,5.6008,5.6008,5.6008,5.6266,5.6539,5.6539,5.6295,5.6124,5.6665,5.6394,5.6008,5.6008,5.6433,5.682,5.682,5.7153,5.7376,5.7067,5.6459,5.556,5.4196,0.0,5.2639,5.1954,5.2521,5.3257,5.3973,5.5162,5.6061,5.6399,5.6699,5.7112,5.7591,5.7187,5.7085,5.751,5.7482,5.7454,5.7454,5.7941,5.7978,5.75,5.7941,5.8266,5.8524,5.8445,5.8561,5.875,5.8708,5.8687,5.8687,5.8687,5.8687,5.8687,5.8687,5.8687,5.8687,5.8687,5.8687,5.8687,5.8687,5.8687,5.8687,7.751,7.7064,7.6618,7.6358,7.5355,7.45,7.4277,7.3757,7.3385,7.3385,7.3162,7.2481,7.1056,7.0685,6.9979,6.8605,6.8271,6.7788,6.6971,6.5893,6.4445,6.2476,6.1633,6.0778,5.9913,5.9096,5.8687,5.8687,5.8465,5.8167,5.7833,5.6803,5.6432,5.6617,5.5206,5.4909,5.5401,5.5044,5.4977,5.5086,5.5687,5.5826,5.5756,5.6199,5.6216,5.6002,5.5995,5.6008,5.6008,5.6008,5.6162,5.6394,5.6394,5.6505,5.6647,5.6647,5.6872,5.7214,5.7483,5.7071,5.6698,5.7277,5.6588,5.5899,5.6429,5.6814,5.7128,5.7354,5.7846,5.8182,5.8182,5.7614,5.6934,5.6199,5.5423,5.4636,5.3853,5.4597,5.5197,5.5197,5.6436,5.7263,5.7263,5.7525,5.7854,5.8418,5.793,5.7809,5.8231,5.8201,5.8163,5.8163,5.8693,5.8741,5.8211,5.8713,5.8933,5.8889,5.8859,5.8797,5.8687,5.8687,5.8687,5.8687,5.8687,5.8687,5.8687,5.8687,5.8687,5.8687,5.8687,5.8687,5.8687,5.8687,5.8687,5.8687,7.5801,7.5801,7.554,7.476,7.4574,7.4314,7.3497,7.3385,7.3385,7.3385,7.2679,7.1862,7.0982,7.0202,6.9385,6.8568,6.7751,6.6971,6.6128,6.4519,6.3256,6.2439,6.1633,6.0778,5.9913,5.9096,5.8687,5.8687,5.7918,5.7907,5.865,5.7063,5.6729,5.7472,5.6655,5.632,5.632,5.632,5.6052,5.5727,5.6838,5.659,5.5638,5.6782,5.6698,5.6008,5.6008,5.6008,5.6008,5.6008,5.6588,5.7323,5.7323,5.7684,5.8115,5.8115,5.7927,5.7898,5.8745,5.8356,5.77,5.7707,5.6459,5.567,5.7331,5.7096,5.6758,5.7554,5.7505,5.7322,5.7322,5.7092,5.6942,5.6942,5.6896,5.6896,5.6896,5.6896,5.6896,5.6896,5.7629,5.8117,5.8117,5.884,5.9253,5.9196,5.9187,5.9139,5.8994,5.8994,5.8994,5.8994,5.8912,5.8889,5.8889,5.8889,5.8889,5.8889,5.8739,5.8687,5.8687,5.8687,5.8687,5.8687,5.8687,5.8687,5.8687,5.8687,5.8687,5.8687,5.8687,5.8687,5.8687,5.8687,5.8687,5.8687,7.5801,7.5355,7.4872,7.4649,7.4128,7.3497,7.2679,7.3051,7.2977,7.1812,7.1973,7.1639,7.0202,6.9831,6.9162,6.7788,6.7453,6.6711,6.5262,6.4185,6.3256,6.2439,6.1633,6.0508,5.9096,5.8836,5.8687,5.8687,5.8465,5.8465,5.8687,5.7621,5.7583,5.8279,5.6915,5.6617,5.7121,5.6837,5.6653,5.6555,5.7248,5.7441,5.7349,5.7692,5.7844,5.783,5.783,5.783,5.783,5.783,5.7985,5.8217,5.8217,5.8152,5.8115,5.8115,5.8176,5.8334,5.857,5.8321,5.8067,5.8494,5.7796,5.7102,5.7592,5.7981,5.8331,5.856,5.8987,5.9312,5.9312,5.9284,5.9034,5.8448,5.8226,5.7875,5.7254,5.7488,5.7742,5.7742,5.8455,5.8952,5.8952,5.9178,5.9253,5.9196,5.9079,5.898,5.895,5.8842,5.8791,5.8791,5.876,5.8777,5.8777,5.8777,5.8777,5.8777,5.8708,5.8687,5.8687,5.8687,5.8687,5.8687,5.8687,5.8687,5.8687,5.8687,5.8687,5.8687,5.8687,5.8687,5.8687,5.8687,5.8687,5.8687,7.4834,7.4463,7.4017,7.372,7.3497,7.3125,7.2308,7.2605,7.2568,7.1552,7.1292,7.0846,6.9794,6.9422,6.8716,6.7416,6.6673,6.5745,6.4408,6.3888,6.3256,6.2439,6.1633,6.0545,5.9207,5.8873,5.8687,5.8687,5.8687,5.8687,5.8687,5.8205,5.8242,5.865,5.7736,5.7607,5.8036,5.7829,5.7626,5.7515,5.7786,5.7922,5.7959,5.8064,5.8247,5.8418,5.8542,5.8608,5.8608,5.8608,5.884,5.9188,5.9498,5.9286,5.8928,5.8928,5.8901,5.882,5.882,5.8701,5.8648,5.9043,5.8228,5.7544,5.8182,5.8493,5.8729,5.9033,5.9496,5.9838,5.9838,5.9838,5.9686,5.9185,5.8978,5.8686,5.8178,5.8373,5.8568,5.8568,5.899,5.929,5.929,5.929,5.9234,5.9139,5.9,5.8869,5.8828,5.8729,5.8687,5.8687,5.8687,5.8687,5.8687,5.8687,5.8687,5.8687,5.8687,5.8687,5.8687,5.8687,5.8687,5.8687,5.8687,5.8687,5.8687,5.8687,5.8687,5.8687,5.8687,5.8687,5.8687,5.8687,5.8687,5.8687,7.3311,7.3348,7.3125,7.2233,7.2754,7.3014,7.2122,7.2048,7.2048,7.1899,7.0586,6.9682,6.9608,6.8939,6.8159,6.7268,6.5671,6.4371,6.3665,6.359,6.3256,6.2439,6.1633,6.0778,5.9913,5.9096,5.8687,5.8687,5.8687,5.8687,5.8687,5.8687,5.8698,5.8708,5.8848,5.8899,5.892,5.9002,5.8812,5.8476,5.8484,5.8242,5.7929,5.8179,5.8279,5.8313,5.8684,5.8827,5.8779,5.8836,5.9343,6.0112,6.0824,6.0677,6.021,6.0182,5.9734,5.929,5.929,5.929,5.929,5.929,5.8201,5.7497,5.8952,5.8718,5.8417,5.914,5.929,5.929,5.929,5.929,5.929,5.929,5.929,5.929,5.929,5.929,5.929,5.929,5.929,5.929,5.929,5.9281,5.9206,5.9014,5.8922,5.8838,5.8698,5.8687,5.8687,5.8687,5.8687,5.8687,5.8687,5.8687,5.8687,5.8687,5.8687,5.8687,5.8687,5.8687,5.8687,5.8687,5.8687,5.8687,5.8687,5.8687,5.8687,5.8687,5.8687,5.8687,5.8687,5.8687,5.8687,5.8687,7.2568,7.2977,7.2939,7.1428,7.1886,7.1973,7.0462,7.0759,7.0722,6.9472,6.9534,6.9459,6.8828,6.8605,6.7936,6.6488,6.4816,6.3776,6.359,6.359,6.3256,6.2439,6.1633,6.0778,5.9913,5.9096,5.8687,5.8687,5.8687,5.8687,5.8687,5.8687,5.8777,5.8859,5.8879,5.894,5.9002,5.911,5.9103,5.9009,5.9082,5.9197,5.9383,5.9623,5.9732,5.9837,6.0362,6.0431,6.0272,6.0486,6.0692,6.0819,6.08,6.0533,6.0168,5.9962,5.9618,5.929,5.929,5.929,5.929,5.929,5.9027,5.8877,5.9215,5.9178,5.9102,5.9253,5.929,5.929,5.929,5.929,5.929,5.929,5.929,5.929,5.929,5.929,5.929,5.929,5.929,5.929,5.929,5.9262,5.9167,5.9004,5.8922,5.8838,5.8698,5.8687,5.8687,5.8687,5.8687,5.8687,5.8687,5.8687,5.8687,5.8687,5.8687,5.8687,5.8687,5.8687,5.8687,5.8687,5.8687,5.8687,5.8687,5.8687,5.8687,5.8687,5.8687,5.8687,5.8687,5.8687,5.8687,5.8687,7.2271,7.2184,7.1812,7.0536,7.1019,7.1143,6.9905,7.0054,7.0016,6.9199,6.9088,6.8976,6.8568,6.8493,6.7862,6.6228,6.4928,6.3999,6.3628,6.359,6.3405,6.2996,6.2179,6.1394,6.0582,5.9764,5.9179,5.8807,5.8719,5.8719,5.8807,5.8807,5.8838,5.8899,5.901,5.9051,5.911,5.9215,5.9253,5.9262,5.9272,5.9418,5.9592,5.9907,6.0,6.0059,6.0501,6.0594,6.0463,6.0636,6.0683,6.066,6.0527,6.0245,5.9962,5.9828,5.9558,5.929,5.929,5.929,5.929,5.929,5.929,5.929,5.929,5.929,5.929,5.929,5.929,5.929,5.929,5.929,5.929,5.929,5.929,5.929,5.929,5.929,5.929,5.929,5.929,5.929,5.929,5.9281,5.9196,5.9004,5.8972,5.8872,5.8698,5.9059,5.9096,5.8725,5.9059,5.9096,5.8687,5.8687,5.8873,5.9282,5.8873,5.8687,5.8687,5.8687,5.8687,5.8687,5.8687,5.8687,5.8687,5.8687,5.8687,5.8687,5.8687,5.8687,5.8687,5.8687,5.8687,5.8687,7.2233,7.1626,7.0834,6.9868,7.0239,7.0425,6.9608,6.9496,6.9496,6.9496,6.8902,6.8493,6.8493,6.8406,6.7761,6.6298,6.5368,6.4502,6.3684,6.3647,6.3572,6.3461,6.2803,6.2028,6.1145,6.0485,5.9739,5.892,5.8791,5.8801,5.892,5.892,5.893,5.896,5.9147,5.9196,5.9215,5.93,5.929,5.929,5.929,5.929,5.9336,5.9677,5.9777,5.9777,6.0089,6.0217,6.0217,6.0217,6.0217,6.021,6.0154,6.0,5.9801,5.9736,5.9505,5.929,5.929,5.929,5.929,5.929,5.929,5.929,5.929,5.929,5.929,5.929,5.929,5.929,5.929,5.929,5.929,5.929,5.929,5.929,5.929,5.929,5.929,5.929,5.929,5.929,5.929,5.944,5.9393,5.9014,5.9256,5.9194,5.8735,5.9467,5.9579,5.8947,5.943,5.9505,5.9133,5.8985,5.9319,6.0099,5.943,5.9133,5.9133,5.9133,5.9133,5.9133,5.8985,5.891,5.8873,5.8762,5.8687,5.8687,5.8687,5.8687,5.8687,5.8687,5.8799,5.891,7.2345,7.2122,7.1515,6.9979,6.9794,6.9608,6.8791,6.8642,6.8642,6.8642,6.8568,6.8493,6.8493,6.797,6.7293,6.6437,6.5627,6.4769,6.3926,6.3851,6.3553,6.2854,6.2705,6.1969,6.0458,6.0309,5.9871,5.8975,5.8955,5.8955,5.8975,5.8975,5.9061,5.9148,5.9177,5.9234,5.9272,5.929,5.929,5.929,5.929,5.929,5.9336,5.9677,5.9618,5.9426,6.0007,6.0217,6.0217,6.0217,6.0217,6.0175,5.9938,5.985,5.9752,5.9434,5.9336,5.929,5.929,5.929,5.929,5.929,5.929,5.929,5.929,5.929,5.929,5.929,5.929,5.929,5.929,5.929,5.929,5.929,5.929,5.929,5.929,5.929,5.929,5.929,5.929,5.929,5.929,5.9966,6.0031,5.9089,6.0329,6.0424,5.8772,5.9467,5.9839,5.9728,5.917,5.9505,6.0842,6.0099,6.0173,6.1028,6.0916,6.0853,6.0853,6.0853,6.0853,6.0805,6.0062,5.9728,5.969,5.8985,5.8687,5.8687,5.8687,5.8687,5.8687,5.8687,5.9133,5.9728,7.2271,7.1825,7.1106,6.9905,6.9719,6.9422,6.8605,6.8493,6.8493,6.8493,6.8493,6.8518,6.859,6.8423,6.7769,6.653,6.6082,6.5298,6.3979,6.3894,6.3745,6.3382,6.3382,6.2853,6.1776,6.128,6.0636,5.987,5.9277,5.9024,5.9119,5.9119,5.9148,5.9187,5.9244,5.9253,5.929,5.929,5.929,5.929,5.929,5.929,5.9309,5.9443,5.9445,5.9336,5.9597,5.9706,5.9706,5.9706,5.9706,5.9681,5.9558,5.9514,5.9479,5.9345,5.929,5.929,5.929,5.929,5.929,5.929,5.929,5.944,5.9929,6.0041,5.9891,5.9403,5.929,5.929,5.929,5.929,5.9478,5.9966,5.9628,5.9478,5.9966,6.0041,6.0191,6.0642,6.068,6.068,6.068,6.1055,6.1072,6.0561,6.1117,6.1147,6.0298,6.0981,6.1172,6.0688,6.08,6.0986,6.1247,6.0848,6.1071,6.1991,6.1926,6.1633,6.1187,6.1187,6.1187,6.1187,6.0778,6.0619,6.0582,6.0248,5.9802,5.9356,5.9356,5.9096,5.8799,5.9765,6.0025,5.9988]}]]